Darstellungsparameter: Aktuell verwendete Einstellungen:
Skalierung der Graphiken ... ?
xyx+y,   Skalierungsfaktor:      Skalierung: Modus: x, Faktor: 1
Darstellungszeitraum ... ?
Vom - - bis: - -   Zeitraum: 09.09.2010 - 09.10.2010
Min/Max/Avg-Anzeige ... ?
Zeige MMA aktuell
Zeige MMA Monat
Zeige MMA alles
Zeige --A aktuell
Zeige --A Monat
Zeige --A alles
Keine MMA-Anzeige
MMA:
Average (ber die Originaldaten)
MMA-Basis: 23.08.2010 - 25.09.2010
Quicknavigation für Darstellung... ?
Tage:      1T, 2T, 3T, 5T -1T -2T -3T -5T +1T +2T +3T +5T
Wochen: 1W, 2W, 3W -1W -2W -3W +1W +2W +3W
Monate: 1M, 3M, 6M -1M -3M -6M +1M +3M +6M
Jahre:    1J, 3J, 5J, 10J -1J -3J -5J -10J +1J +3J +5J +10J
Nutze für die Darstellung ... ?
Originaldaten oder Mittelwerte auf ...
Stundenbasis Tagesbasis Wochenbasis
Monatsbasis Jahresbasis      Datenbasis: Original-Daten
Darstellen als:
Statistik (Auto) Statistik J:M      Darstellung:
Zur Graphik,    zurück zur Übersicht aller Sensoren.
 
Tabellarische Datenbersicht: ?
 
Sensor: Nr:Datum:Temp:Abs-Feuchte:Windchill:Wind:
Aussen-T/F 1 09-09-2010 00:07:03 14.4 C 10.14 g/m*3 14.4 C 0 km/h
2 09-09-2010 00:19:03 14.4 C 10.14 g/m*3 14.4 C 0 km/h
3 09-09-2010 00:31:03 14.1 C 10.07 g/m*3 14.1 C 0 km/h
4 09-09-2010 00:43:03 14.5 C 10.32 g/m*3 14.5 C 0 km/h
5 09-09-2010 00:55:03 14.5 C 10.32 g/m*3 14.5 C 0 km/h
6 09-09-2010 01:07:03 14.8 C 10.39 g/m*3 14.8 C 0 km/h
7 09-09-2010 01:19:03 15 C 10 g/m*3 15 C 0 km/h
8 09-09-2010 01:31:03 15.1 C 10.06 g/m*3 15.1 C 0 km/h
9 09-09-2010 01:43:03 15.2 C 9.99 g/m*3 15.2 C 0 km/h
10 09-09-2010 01:55:03 15.1 C 9.93 g/m*3 15.1 C 0 km/h
11 09-09-2010 02:07:03 15.2 C 9.99 g/m*3 15.2 C 0 km/h
12 09-09-2010 02:19:03 15.1 C 9.93 g/m*3 15.1 C 0 km/h
13 09-09-2010 02:31:03 15.1 C 9.93 g/m*3 15.1 C 0 km/h
14 09-09-2010 02:43:03 15.1 C 9.93 g/m*3 15.1 C 0 km/h
15 09-09-2010 02:55:03 15.2 C 9.86 g/m*3 15.2 C 0 km/h
16 09-09-2010 03:07:03 15.2 C 9.86 g/m*3 15.2 C 0 km/h
17 09-09-2010 03:19:03 15.3 C 9.79 g/m*3 15.3 C 0 km/h
18 09-09-2010 03:31:03 15.3 C 9.79 g/m*3 15.3 C 0 km/h
19 09-09-2010 03:43:03 15.4 C 9.72 g/m*3 15.4 C 0 km/h
20 09-09-2010 03:55:04 15.4 C 9.72 g/m*3 15.4 C 0 km/h
21 09-09-2010 04:07:04 15.4 C 9.59 g/m*3 15.4 C 0 km/h
22 09-09-2010 04:19:04 15.2 C 9.48 g/m*3 15.2 C 0 km/h
23 09-09-2010 04:31:04 15.2 C 9.35 g/m*3 15.2 C 0 km/h
24 09-09-2010 04:43:04 15.2 C 9.22 g/m*3 15.2 C 0 km/h
25 09-09-2010 04:55:04 15.1 C 9.03 g/m*3 15.1 C 0 km/h
Sensor: Nr:Datum:Temp:Abs-Feuchte:Windchill:Wind:
Aussen-T/F 26 09-09-2010 05:07:04 14.9 C 9.05 g/m*3 14.9 C 0 km/h
27 09-09-2010 05:19:04 14.9 C 9.05 g/m*3 14.9 C 0 km/h
28 09-09-2010 05:31:04 14.9 C 9.05 g/m*3 14.9 C 0 km/h
29 09-09-2010 05:43:04 14.9 C 9.05 g/m*3 14.9 C 0 km/h
30 09-09-2010 05:55:04 14.9 C 8.92 g/m*3 14.9 C 0 km/h
31 09-09-2010 06:07:04 14.8 C 8.87 g/m*3 14.8 C 0 km/h
32 09-09-2010 06:19:04 14.8 C 8.87 g/m*3 14.8 C 0 km/h
33 09-09-2010 06:31:04 14.8 C 8.87 g/m*3 14.8 C 0 km/h
34 09-09-2010 06:43:04 14.8 C 8.87 g/m*3 14.8 C 0 km/h
35 09-09-2010 06:55:04 14.7 C 8.94 g/m*3 14.7 C 0 km/h
36 09-09-2010 07:07:04 14.5 C 9.08 g/m*3 14.5 C 0 km/h
37 09-09-2010 07:19:04 14.5 C 9.08 g/m*3 14.5 C 0 km/h
38 09-09-2010 07:31:04 14.6 C 9.13 g/m*3 14.6 C 0 km/h
39 09-09-2010 07:43:04 14.6 C 9.01 g/m*3 14.6 C 0 km/h
40 09-09-2010 07:55:04 14.7 C 9.07 g/m*3 14.7 C 0 km/h
41 09-09-2010 08:07:02 14.7 C 9.07 g/m*3 14.7 C 0 km/h
42 09-09-2010 08:19:02 14.8 C 9.12 g/m*3 14.8 C 0 km/h
43 09-09-2010 08:31:02 14.8 C 9.12 g/m*3 14.8 C 0 km/h
44 09-09-2010 08:43:02 14.8 C 9.12 g/m*3 14.8 C 0 km/h
45 09-09-2010 08:55:02 14.9 C 9.05 g/m*3 14.9 C 0 km/h
46 09-09-2010 09:07:02 14.9 C 9.05 g/m*3 14.9 C 0 km/h
47 09-09-2010 09:19:03 14.9 C 9.05 g/m*3 14.9 C 0 km/h
48 09-09-2010 09:31:02 15.2 C 9.09 g/m*3 15.2 C 0 km/h
49 09-09-2010 09:43:02 15.5 C 9.12 g/m*3 15.5 C 0 km/h
50 09-09-2010 09:55:01 15.8 C 9.15 g/m*3 15.8 C 0 km/h
Sensor: Nr:Datum:Temp:Abs-Feuchte:Windchill:Wind:
Aussen-T/F 51 09-09-2010 10:07:02 16 C 8.99 g/m*3 16 C 0 km/h
52 09-09-2010 10:19:02 16.4 C 9.07 g/m*3 16.4 C 0 km/h
53 09-09-2010 10:31:01 16.8 C 9.15 g/m*3 16.8 C 0 km/h
54 09-09-2010 10:43:01 17.2 C 9.08 g/m*3 17.2 C 0 km/h
55 09-09-2010 10:55:02 17.4 C 9.19 g/m*3 17.4 C 0 km/h
56 09-09-2010 11:07:01 17.5 C 9.09 g/m*3 17.5 C 0 km/h
57 09-09-2010 11:19:02 17.5 C 9.09 g/m*3 17.5 C 0 km/h
58 09-09-2010 11:31:02 17.8 C 8.8 g/m*3 17.8 C 0 km/h
59 09-09-2010 11:43:02 17.8 C 8.65 g/m*3 17.8 C 0 km/h
60 09-09-2010 11:55:02 18.3 C 8.76 g/m*3 18.3 C 0 km/h
61 09-09-2010 12:07:01 18.5 C 8.23 g/m*3 18.5 C 0 km/h
62 09-09-2010 12:19:02 18.6 C 8.28 g/m*3 18.6 C 0 km/h
63 09-09-2010 12:31:02 18.6 C 8.12 g/m*3 18.6 C 0 km/h
64 09-09-2010 12:43:02 19 C 8.15 g/m*3 19 C 0 km/h
65 09-09-2010 12:55:02 18.5 C 8.07 g/m*3 18.5 C 0 km/h
66 09-09-2010 13:07:02 18.6 C 8.28 g/m*3 18.6 C 0 km/h
67 09-09-2010 13:19:02 18.7 C 8.17 g/m*3 18.7 C 0 km/h
68 09-09-2010 13:31:02 18.7 C 8.01 g/m*3 18.7 C 0 km/h
69 09-09-2010 13:43:02 19 C 8.15 g/m*3 19 C 0 km/h
70 09-09-2010 13:55:02 19 C 8.47 g/m*3 19 C 0 km/h
71 09-09-2010 14:07:02 18.6 C 8.12 g/m*3 18.6 C 0 km/h
72 09-09-2010 14:19:02 18.4 C 8.18 g/m*3 18.4 C 0 km/h
73 09-09-2010 14:31:02 18.8 C 8.86 g/m*3 18.8 C 0 km/h
74 09-09-2010 14:43:02 19.3 C 8.79 g/m*3 19.3 C 0 km/h
75 09-09-2010 14:55:02 19.8 C 9.05 g/m*3 19.8 C 0 km/h
Sensor: Nr:Datum:Temp:Abs-Feuchte:Windchill:Wind:
Aussen-T/F 76 09-09-2010 15:07:02 20.3 C 8.97 g/m*3 20.3 C 0 km/h
77 09-09-2010 15:19:02 20.3 C 8.97 g/m*3 20.3 C 0 km/h
78 09-09-2010 15:31:02 19.5 C 8.89 g/m*3 19.5 C 0 km/h
79 09-09-2010 15:43:02 18.7 C 9.29 g/m*3 18.7 C 0 km/h
80 09-09-2010 15:55:02 18.1 C 9.43 g/m*3 18.1 C 0 km/h
81 09-09-2010 16:07:01 17.7 C 9.51 g/m*3 17.7 C 0 km/h
82 09-09-2010 16:19:02 16.1 C 10.14 g/m*3 16.1 C 0 km/h
83 09-09-2010 16:31:01 16.1 C 10.42 g/m*3 16.1 C 0 km/h
84 09-09-2010 16:43:01 17.1 C 11.79 g/m*3 17.1 C 0 km/h
85 09-09-2010 16:55:02 18.5 C 12.82 g/m*3 18.5 C 0 km/h
86 09-09-2010 17:07:02 18.2 C 12.28 g/m*3 18.2 C 0 km/h
87 09-09-2010 17:19:02 18 C 12.13 g/m*3 18 C 0 km/h
88 09-09-2010 17:31:02 17.9 C 11.45 g/m*3 17.9 C 0 km/h
89 09-09-2010 17:43:02 17.8 C 11.08 g/m*3 17.8 C 0 km/h
90 09-09-2010 17:55:02 17.7 C 11.16 g/m*3 17.7 C 0 km/h
91 09-09-2010 18:07:02 17.7 C 11.32 g/m*3 17.7 C 0 km/h
92 09-09-2010 18:19:01 17.7 C 10.86 g/m*3 17.7 C 0 km/h
93 09-09-2010 18:31:02 17.7 C 10.41 g/m*3 17.7 C 0 km/h
94 09-09-2010 18:43:03 17.9 C 10.38 g/m*3 17.9 C 0 km/h
95 09-09-2010 18:55:02 17.5 C 9.39 g/m*3 17.5 C 0 km/h
96 09-09-2010 19:07:02 17.2 C 9.37 g/m*3 17.2 C 0 km/h
97 09-09-2010 19:19:01 16.8 C 9.44 g/m*3 16.8 C 0 km/h
98 09-09-2010 19:31:02 16.5 C 9.55 g/m*3 16.5 C 0 km/h
99 09-09-2010 19:43:02 16.2 C 9.52 g/m*3 16.2 C 0 km/h
100 09-09-2010 19:55:01 16 C 9.4 g/m*3 16 C 0 km/h
Sensor: Nr:Datum:Temp:Abs-Feuchte:Windchill:Wind:
Aussen-T/F 101 09-09-2010 20:07:02 15.9 C 9.48 g/m*3 15.9 C 0 km/h
102 09-09-2010 20:19:02 15.8 C 9.42 g/m*3 15.8 C 0 km/h
103 09-09-2010 20:31:01 15.4 C 9.72 g/m*3 15.4 C 0 km/h
104 09-09-2010 20:43:01 15 C 10 g/m*3 15 C 0 km/h
105 09-09-2010 20:55:01 14.9 C 10.2 g/m*3 14.9 C 0 km/h
106 09-09-2010 21:07:01 14.9 C 10.32 g/m*3 14.9 C 0 km/h
107 09-09-2010 21:19:02 14.9 C 10.32 g/m*3 14.9 C 0 km/h
108 09-09-2010 21:31:01 14.8 C 10.26 g/m*3 14.8 C 0 km/h
109 09-09-2010 21:43:01 14.7 C 10.2 g/m*3 14.7 C 0 km/h
110 09-09-2010 21:55:02 14.7 C 10.2 g/m*3 14.7 C 0 km/h
111 09-09-2010 22:07:02 14.7 C 10.2 g/m*3 14.7 C 0 km/h
112 09-09-2010 22:19:01 14.8 C 10.13 g/m*3 14.8 C 0 km/h
113 09-09-2010 22:31:01 14.8 C 10.26 g/m*3 14.8 C 0 km/h
114 09-09-2010 22:43:01 14.7 C 10.2 g/m*3 14.7 C 0 km/h
115 09-09-2010 22:56:02 14.7 C 10.07 g/m*3 14.7 C 0 km/h
116 09-09-2010 23:08:02 14.8 C 10.01 g/m*3 14.8 C 0 km/h
117 09-09-2010 23:20:03 15 C 9.75 g/m*3 15 C 0 km/h
118 09-09-2010 23:32:03 15 C 9.62 g/m*3 15 C 0 km/h
119 09-09-2010 23:44:03 15.1 C 9.68 g/m*3 15.1 C 0 km/h
120 09-09-2010 23:56:03 15 C 9.49 g/m*3 15 C 0 km/h
121 10-09-2010 00:08:03 14.9 C 9.81 g/m*3 14.9 C 0 km/h
122 10-09-2010 00:20:03 14.8 C 9.88 g/m*3 14.8 C 0 km/h
123 10-09-2010 00:32:03 14.6 C 10.01 g/m*3 14.6 C 0 km/h
124 10-09-2010 00:44:03 14.6 C 10.01 g/m*3 14.6 C 0 km/h
125 10-09-2010 00:56:03 14.4 C 9.89 g/m*3 14.4 C 0 km/h
Sensor: Nr:Datum:Temp:Abs-Feuchte:Windchill:Wind:
Aussen-T/F 126 10-09-2010 01:08:03 14.3 C 9.83 g/m*3 14.3 C 0 km/h
127 10-09-2010 01:20:03 14.1 C 9.71 g/m*3 14.1 C 0 km/h
128 10-09-2010 01:32:03 13.9 C 9.71 g/m*3 13.9 C 0 km/h
129 10-09-2010 01:44:03 13.8 C 9.77 g/m*3 13.8 C 0 km/h
130 10-09-2010 01:56:03 13.9 C 9.83 g/m*3 13.9 C 0 km/h
131 10-09-2010 02:08:03 13.8 C 9.89 g/m*3 13.8 C 0 km/h
132 10-09-2010 02:20:03 13.8 C 9.89 g/m*3 13.8 C 0 km/h
133 10-09-2010 02:32:03 13.9 C 10.07 g/m*3 13.9 C 0 km/h
134 10-09-2010 02:44:03 14 C 10.01 g/m*3 14 C 0 km/h
135 10-09-2010 02:56:03 14 C 9.89 g/m*3 14 C 0 km/h
136 10-09-2010 03:08:03 14 C 10.01 g/m*3 14 C 0 km/h
137 10-09-2010 03:20:03 14 C 10.01 g/m*3 14 C 0 km/h
138 10-09-2010 03:32:04 13.9 C 10.07 g/m*3 13.9 C 0 km/h
139 10-09-2010 03:44:04 13.8 C 10.13 g/m*3 13.8 C 0 km/h
140 10-09-2010 03:56:04 13.8 C 10.13 g/m*3 13.8 C 0 km/h
141 10-09-2010 04:08:04 13.9 C 10.31 g/m*3 13.9 C 0 km/h
142 10-09-2010 04:20:04 14 C 10.25 g/m*3 14 C 0 km/h
143 10-09-2010 04:32:04 13.9 C 10.31 g/m*3 13.9 C 0 km/h
144 10-09-2010 04:44:04 13.8 C 10.25 g/m*3 13.8 C 0 km/h
145 10-09-2010 04:56:04 13.6 C 10.12 g/m*3 13.6 C 0 km/h
146 10-09-2010 05:08:04 13.4 C 10 g/m*3 13.4 C 0 km/h
147 10-09-2010 05:20:04 13.2 C 9.99 g/m*3 13.2 C 0 km/h
148 10-09-2010 05:32:04 13.1 C 10.04 g/m*3 13.1 C 0 km/h
149 10-09-2010 05:44:04 12.8 C 9.97 g/m*3 12.8 C 0 km/h
150 10-09-2010 05:56:04 12.8 C 9.97 g/m*3 12.8 C 0 km/h
Sensor: Nr:Datum:Temp:Abs-Feuchte:Windchill:Wind:
Aussen-T/F 151 10-09-2010 06:08:04 13.2 C 10.33 g/m*3 13.2 C 0 km/h
152 10-09-2010 06:20:04 13 C 10.09 g/m*3 13 C 0 km/h
153 10-09-2010 06:32:04 13.1 C 10.27 g/m*3 13.1 C 0 km/h
154 10-09-2010 06:44:04 13.1 C 10.27 g/m*3 13.1 C 0 km/h
155 10-09-2010 06:56:04 13.2 C 10.22 g/m*3 13.2 C 0 km/h
156 10-09-2010 07:08:04 13.1 C 10.16 g/m*3 13.1 C 0 km/h
157 10-09-2010 07:20:04 13.2 C 9.99 g/m*3 13.2 C 0 km/h
158 10-09-2010 07:32:05 13.3 C 9.7 g/m*3 13.3 C 0 km/h
159 10-09-2010 07:44:05 13.2 C 9.64 g/m*3 13.2 C 0 km/h
160 10-09-2010 07:56:02 13.1 C 9.7 g/m*3 13.1 C 0 km/h
161 10-09-2010 08:08:02 13.1 C 9.81 g/m*3 13.1 C 0 km/h
162 10-09-2010 08:20:02 13.1 C 9.93 g/m*3 13.1 C 0 km/h
163 10-09-2010 08:32:02 13.2 C 9.99 g/m*3 13.2 C 0 km/h
164 10-09-2010 08:44:03 13.5 C 10.06 g/m*3 13.5 C 0 km/h
165 10-09-2010 08:56:02 13.7 C 9.95 g/m*3 13.7 C 0 km/h
166 10-09-2010 09:08:02 14 C 9.77 g/m*3 14 C 0 km/h
167 10-09-2010 09:20:02 14.4 C 9.64 g/m*3 14.4 C 0 km/h
168 10-09-2010 09:32:02 14.5 C 9.58 g/m*3 14.5 C 0 km/h
169 10-09-2010 09:44:02 14.9 C 9.43 g/m*3 14.9 C 0 km/h
170 10-09-2010 09:56:02 15.2 C 9.22 g/m*3 15.2 C 0 km/h
171 10-09-2010 10:08:02 15.5 C 9.39 g/m*3 15.5 C 0 km/h
172 10-09-2010 10:20:03 15.7 C 9.23 g/m*3 15.7 C 0 km/h
173 10-09-2010 10:32:02 16.2 C 9.38 g/m*3 16.2 C 0 km/h
174 10-09-2010 10:44:02 16.6 C 9.46 g/m*3 16.6 C 0 km/h
175 10-09-2010 10:56:02 16.8 C 9.29 g/m*3 16.8 C 0 km/h
Sensor: Nr:Datum:Temp:Abs-Feuchte:Windchill:Wind:
Aussen-T/F 176 10-09-2010 11:08:02 17.2 C 9.37 g/m*3 17.2 C 0 km/h
177 10-09-2010 11:20:02 17.7 C 9.51 g/m*3 17.7 C 0 km/h
178 10-09-2010 11:32:02 18.1 C 9.12 g/m*3 18.1 C 0 km/h
179 10-09-2010 11:44:02 18.1 C 8.96 g/m*3 18.1 C 0 km/h
180 10-09-2010 11:56:02 18.3 C 9.07 g/m*3 18.3 C 0 km/h
181 10-09-2010 12:08:01 18.6 C 9.07 g/m*3 18.6 C 0 km/h
182 10-09-2010 12:20:02 18.7 C 9.13 g/m*3 18.7 C 0 km/h
183 10-09-2010 12:32:02 18.4 C 9.12 g/m*3 18.4 C 0 km/h
184 10-09-2010 12:44:02 18.8 C 9.34 g/m*3 18.8 C 0 km/h
185 10-09-2010 12:56:02 19.2 C 9.23 g/m*3 19.2 C 0 km/h
186 10-09-2010 13:08:03 19.5 C 8.89 g/m*3 19.5 C 0 km/h
187 10-09-2010 13:20:02 19.4 C 8.84 g/m*3 19.4 C 0 km/h
188 10-09-2010 13:32:02 19 C 8.47 g/m*3 19 C 0 km/h
189 10-09-2010 13:44:02 19 C 8.47 g/m*3 19 C 0 km/h
190 10-09-2010 13:56:01 19 C 8.64 g/m*3 19 C 0 km/h
191 10-09-2010 14:08:02 19.3 C 8.79 g/m*3 19.3 C 0 km/h
192 10-09-2010 14:20:01 19.9 C 8.76 g/m*3 19.9 C 0 km/h
193 10-09-2010 14:32:01 20.4 C 8.67 g/m*3 20.4 C 0 km/h
194 10-09-2010 14:44:01 20.2 C 8.74 g/m*3 20.2 C 0 km/h
195 10-09-2010 14:56:01 19.9 C 8.76 g/m*3 19.9 C 0 km/h
196 10-09-2010 15:08:02 20 C 8.64 g/m*3 20 C 0 km/h
197 10-09-2010 15:20:02 20.6 C 8.95 g/m*3 20.6 C 0 km/h
198 10-09-2010 15:32:01 20.9 C 8.38 g/m*3 20.9 C 0 km/h
199 10-09-2010 15:44:01 21.2 C 8.34 g/m*3 21.2 C 0 km/h
200 10-09-2010 15:56:02 21.4 C 8.62 g/m*3 21.4 C 0 km/h
Sensor: Nr:Datum:Temp:Abs-Feuchte:Windchill:Wind:
Aussen-T/F 201 10-09-2010 16:08:01 21.2 C 8.34 g/m*3 21.2 C 0 km/h
202 10-09-2010 16:20:02 20.8 C 8.33 g/m*3 20.8 C 0 km/h
203 10-09-2010 16:32:01 21.1 C 8.48 g/m*3 21.1 C 0 km/h
204 10-09-2010 16:44:01 21.2 C 8.71 g/m*3 21.2 C 0 km/h
205 10-09-2010 16:56:02 21.2 C 8.34 g/m*3 21.2 C 0 km/h
206 10-09-2010 17:08:02 20.9 C 8.56 g/m*3 20.9 C 0 km/h
207 10-09-2010 17:20:02 20.5 C 8.9 g/m*3 20.5 C 0 km/h
208 10-09-2010 17:32:03 20.1 C 9.04 g/m*3 20.1 C 0 km/h
209 10-09-2010 17:44:03 19.8 C 9.39 g/m*3 19.8 C 0 km/h
210 10-09-2010 17:56:02 19.6 C 8.95 g/m*3 19.6 C 0 km/h
211 10-09-2010 18:08:02 19.4 C 9.18 g/m*3 19.4 C 0 km/h
212 10-09-2010 18:20:02 18.9 C 9.56 g/m*3 18.9 C 0 km/h
213 10-09-2010 18:32:02 17.8 C 10.17 g/m*3 17.8 C 0 km/h
214 10-09-2010 18:44:02 16.8 C 10.72 g/m*3 16.8 C 0 km/h
215 10-09-2010 18:56:02 16.4 C 11.03 g/m*3 16.4 C 0 km/h
216 10-09-2010 19:08:02 16.4 C 11.31 g/m*3 16.4 C 0 km/h
217 10-09-2010 19:20:02 16.8 C 11.72 g/m*3 16.8 C 0 km/h
218 10-09-2010 19:32:02 16.3 C 11.38 g/m*3 16.3 C 0 km/h
219 10-09-2010 19:44:02 16 C 11.31 g/m*3 16 C 0 km/h
220 10-09-2010 19:56:02 15.8 C 11.44 g/m*3 15.8 C 0 km/h
221 10-09-2010 20:08:03 15.8 C 11.58 g/m*3 15.8 C 0 km/h
222 10-09-2010 20:20:02 15.7 C 11.51 g/m*3 15.7 C 0 km/h
223 10-09-2010 20:32:03 15.6 C 11.57 g/m*3 15.6 C 0 km/h
224 10-09-2010 20:44:03 15.6 C 11.57 g/m*3 15.6 C 0 km/h
225 10-09-2010 20:56:02 15.7 C 11.64 g/m*3 15.7 C 0 km/h
Sensor: Nr:Datum:Temp:Abs-Feuchte:Windchill:Wind:
Aussen-T/F 226 10-09-2010 21:08:01 15.8 C 11.71 g/m*3 15.8 C 0 km/h
227 10-09-2010 21:20:02 15.8 C 11.71 g/m*3 15.8 C 0 km/h
228 10-09-2010 21:32:02 15.8 C 11.71 g/m*3 15.8 C 0 km/h
229 10-09-2010 21:44:02 15.8 C 11.71 g/m*3 15.8 C 0 km/h
230 10-09-2010 21:56:02 15.8 C 11.58 g/m*3 15.8 C 0 km/h
231 10-09-2010 22:08:01 15.8 C 11.58 g/m*3 15.8 C 0 km/h
232 10-09-2010 22:20:02 15.8 C 11.58 g/m*3 15.8 C 0 km/h
233 10-09-2010 22:32:01 15.7 C 11.51 g/m*3 15.7 C 0 km/h
234 10-09-2010 22:44:01 15.6 C 11.3 g/m*3 15.6 C 0 km/h
235 10-09-2010 22:57:03 15.5 C 11.24 g/m*3 15.5 C 0 km/h
236 10-09-2010 23:09:03 15.6 C 11.3 g/m*3 15.6 C 0 km/h
237 10-09-2010 23:21:03 15.5 C 11.24 g/m*3 15.5 C 0 km/h
238 10-09-2010 23:33:03 15.5 C 11.24 g/m*3 15.5 C 0 km/h
239 10-09-2010 23:45:03 15.4 C 11.17 g/m*3 15.4 C 0 km/h
240 10-09-2010 23:57:03 15.3 C 10.97 g/m*3 15.3 C 0 km/h
241 11-09-2010 00:09:03 15.2 C 10.9 g/m*3 15.2 C 0 km/h
242 11-09-2010 00:21:03 15.2 C 10.9 g/m*3 15.2 C 0 km/h
243 11-09-2010 00:33:03 15.1 C 10.84 g/m*3 15.1 C 0 km/h
244 11-09-2010 00:45:03 15.1 C 10.84 g/m*3 15.1 C 0 km/h
245 11-09-2010 00:57:03 15.1 C 10.84 g/m*3 15.1 C 0 km/h
246 11-09-2010 01:09:03 15.1 C 10.84 g/m*3 15.1 C 0 km/h
247 11-09-2010 01:21:03 15 C 10.77 g/m*3 15 C 0 km/h
248 11-09-2010 01:33:03 15 C 10.77 g/m*3 15 C 0 km/h
249 11-09-2010 01:45:04 15 C 10.77 g/m*3 15 C 0 km/h
250 11-09-2010 01:57:04 14.9 C 10.83 g/m*3 14.9 C 0 km/h
Sensor: Nr:Datum:Temp:Abs-Feuchte:Windchill:Wind:
Aussen-T/F 251 11-09-2010 02:09:04 14.9 C 10.83 g/m*3 14.9 C 0 km/h
252 11-09-2010 02:21:04 14.8 C 10.77 g/m*3 14.8 C 0 km/h
253 11-09-2010 02:33:04 14.7 C 10.58 g/m*3 14.7 C 0 km/h
254 11-09-2010 02:45:04 14.7 C 10.7 g/m*3 14.7 C 0 km/h
255 11-09-2010 02:57:04 14.6 C 10.76 g/m*3 14.6 C 0 km/h
256 11-09-2010 03:09:04 14.4 C 10.63 g/m*3 14.4 C 0 km/h
257 11-09-2010 03:21:04 14.3 C 10.57 g/m*3 14.3 C 0 km/h
258 11-09-2010 03:33:04 14.1 C 10.44 g/m*3 14.1 C 0 km/h
259 11-09-2010 03:45:04 14 C 10.37 g/m*3 14 C 0 km/h
260 11-09-2010 03:57:04 13.6 C 10.12 g/m*3 13.6 C 0 km/h
261 11-09-2010 04:09:04 13.5 C 10.06 g/m*3 13.5 C 0 km/h
262 11-09-2010 04:21:04 13.3 C 9.94 g/m*3 13.3 C 0 km/h
263 11-09-2010 04:33:04 13.1 C 9.81 g/m*3 13.1 C 0 km/h
264 11-09-2010 04:45:04 13 C 9.75 g/m*3 13 C 0 km/h
265 11-09-2010 04:57:04 12.8 C 9.74 g/m*3 12.8 C 0 km/h
266 11-09-2010 05:09:04 12.6 C 9.62 g/m*3 12.6 C 0 km/h
267 11-09-2010 05:21:04 12.5 C 9.68 g/m*3 12.5 C 0 km/h
268 11-09-2010 05:33:04 12.6 C 9.74 g/m*3 12.6 C 0 km/h
269 11-09-2010 05:45:05 12.7 C 9.91 g/m*3 12.7 C 0 km/h
270 11-09-2010 05:57:05 12.8 C 9.97 g/m*3 12.8 C 0 km/h
271 11-09-2010 06:09:05 13 C 10.09 g/m*3 13 C 0 km/h
272 11-09-2010 06:21:05 13.1 C 10.16 g/m*3 13.1 C 0 km/h
273 11-09-2010 06:33:05 12.8 C 9.97 g/m*3 12.8 C 0 km/h
274 11-09-2010 06:45:05 12.5 C 9.78 g/m*3 12.5 C 0 km/h
275 11-09-2010 06:57:05 12.3 C 9.56 g/m*3 12.3 C 0 km/h
Sensor: Nr:Datum:Temp:Abs-Feuchte:Windchill:Wind:
Aussen-T/F 276 11-09-2010 07:09:05 12.1 C 9.44 g/m*3 12.1 C 0 km/h
277 11-09-2010 07:21:05 12.1 C 9.44 g/m*3 12.1 C 0 km/h
278 11-09-2010 07:33:05 12.1 C 9.54 g/m*3 12.1 C 0 km/h
279 11-09-2010 07:45:05 12.1 C 9.54 g/m*3 12.1 C 0 km/h
280 11-09-2010 07:57:05 12.4 C 9.72 g/m*3 12.4 C 0 km/h
281 11-09-2010 08:09:05 12.7 C 10.02 g/m*3 12.7 C 0 km/h
282 11-09-2010 08:21:03 13 C 10.21 g/m*3 13 C 0 km/h
283 11-09-2010 08:33:02 13 C 10.21 g/m*3 13 C 0 km/h
284 11-09-2010 08:45:02 13.1 C 10.27 g/m*3 13.1 C 0 km/h
285 11-09-2010 08:57:02 13.4 C 10.46 g/m*3 13.4 C 0 km/h
286 11-09-2010 09:09:02 13.4 C 10.35 g/m*3 13.4 C 0 km/h
287 11-09-2010 09:21:02 13.5 C 10.41 g/m*3 13.5 C 0 km/h
288 11-09-2010 09:33:02 13.7 C 10.54 g/m*3 13.7 C 0 km/h
289 11-09-2010 09:45:01 13.9 C 10.67 g/m*3 13.9 C 0 km/h
290 11-09-2010 09:57:01 14.3 C 10.81 g/m*3 14.3 C 0 km/h
291 11-09-2010 10:09:02 14.7 C 11.08 g/m*3 14.7 C 0 km/h
292 11-09-2010 10:21:01 15 C 11.03 g/m*3 15 C 0 km/h
293 11-09-2010 10:33:01 15.6 C 11.3 g/m*3 15.6 C 0 km/h
294 11-09-2010 10:45:01 16.2 C 11.45 g/m*3 16.2 C 0 km/h
295 11-09-2010 10:57:01 16.8 C 11.72 g/m*3 16.8 C 0 km/h
296 11-09-2010 11:09:01 17.1 C 11.5 g/m*3 17.1 C 0 km/h
297 11-09-2010 11:21:02 17.5 C 11.18 g/m*3 17.5 C 0 km/h
298 11-09-2010 11:33:01 18.2 C 11.35 g/m*3 18.2 C 0 km/h
299 11-09-2010 11:45:03 19.1 C 11.31 g/m*3 19.1 C 0 km/h
300 11-09-2010 11:57:03 19.3 C 11.44 g/m*3 19.3 C 0 km/h
Sensor: Nr:Datum:Temp:Abs-Feuchte:Windchill:Wind:
Aussen-T/F 301 11-09-2010 12:09:02 19.2 C 9.89 g/m*3 19.2 C 0 km/h
302 11-09-2010 12:21:02 19.6 C 9.96 g/m*3 19.6 C 0 km/h
303 11-09-2010 12:33:02 19.9 C 9.45 g/m*3 19.9 C 0 km/h
304 11-09-2010 12:45:02 20.2 C 9.27 g/m*3 20.2 C 0 km/h
305 11-09-2010 12:57:02 20.6 C 9.31 g/m*3 20.6 C 0 km/h
306 11-09-2010 13:09:02 20.9 C 9.11 g/m*3 20.9 C 0 km/h
307 11-09-2010 13:21:02 21.3 C 8.76 g/m*3 21.3 C 0 km/h
308 11-09-2010 13:33:01 21.7 C 8.97 g/m*3 21.7 C 0 km/h
309 11-09-2010 13:45:02 22.2 C 8.44 g/m*3 22.2 C 0 km/h
310 11-09-2010 13:57:03 22.7 C 8.69 g/m*3 22.7 C 0 km/h
311 11-09-2010 14:09:01 23.3 C 8.15 g/m*3 23.3 C 0 km/h
312 11-09-2010 14:21:01 23.9 C 8.44 g/m*3 23.9 C 0 km/h
313 11-09-2010 14:33:02 24.3 C 8.19 g/m*3 24.3 C 0 km/h
314 11-09-2010 14:45:02 24.5 C 7.83 g/m*3 24.5 C 0 km/h
315 11-09-2010 14:57:02 25 C 8.06 g/m*3 25 C 0 km/h
316 11-09-2010 15:09:02 25.6 C 8.09 g/m*3 25.6 C 0 km/h
317 11-09-2010 15:21:02 25.7 C 7.9 g/m*3 25.7 C 0 km/h
318 11-09-2010 15:33:02 25.6 C 8.57 g/m*3 25.6 C 0 km/h
319 11-09-2010 15:45:02 26.5 C 7.51 g/m*3 26.5 C 0 km/h
320 11-09-2010 15:57:02 26.8 C 7.13 g/m*3 26.8 C 0 km/h
321 11-09-2010 16:09:02 25.7 C 7.66 g/m*3 25.7 C 0 km/h
322 11-09-2010 16:21:02 25.3 C 9.13 g/m*3 25.3 C 0 km/h
323 11-09-2010 16:33:02 26.5 C 8.01 g/m*3 26.5 C 0 km/h
324 11-09-2010 16:45:02 26.4 C 7.72 g/m*3 26.4 C 0 km/h
325 11-09-2010 16:57:02 27.8 C 8.34 g/m*3 27.8 C 0 km/h
Sensor: Nr:Datum:Temp:Abs-Feuchte:Windchill:Wind:
Aussen-T/F 326 11-09-2010 17:09:02 28 C 7.61 g/m*3 28 C 0 km/h
327 11-09-2010 17:21:02 27.3 C 7.85 g/m*3 27.3 C 0 km/h
328 11-09-2010 17:33:02 27.5 C 8.47 g/m*3 27.5 C 0 km/h
329 11-09-2010 17:45:02 27.6 C 8.78 g/m*3 27.6 C 0 km/h
330 11-09-2010 17:57:02 27.7 C 8.83 g/m*3 27.7 C 0 km/h
331 11-09-2010 18:09:02 27.5 C 9.26 g/m*3 27.5 C 0 km/h
332 11-09-2010 18:21:02 26.8 C 9.16 g/m*3 26.8 C 0 km/h
333 11-09-2010 18:33:01 26.3 C 8.91 g/m*3 26.3 C 0 km/h
334 11-09-2010 18:45:02 25.3 C 9.36 g/m*3 25.3 C 0 km/h
335 11-09-2010 18:57:02 24.4 C 9.57 g/m*3 24.4 C 0 km/h
336 11-09-2010 19:09:01 23.7 C 9.63 g/m*3 23.7 C 0 km/h
337 11-09-2010 19:21:02 22.6 C 9.64 g/m*3 22.6 C 0 km/h
338 11-09-2010 19:33:02 21.6 C 10.05 g/m*3 21.6 C 0 km/h
339 11-09-2010 19:45:02 20.7 C 9.72 g/m*3 20.7 C 0 km/h
340 11-09-2010 19:57:02 20.2 C 9.44 g/m*3 20.2 C 0 km/h
341 11-09-2010 20:09:02 20 C 9.33 g/m*3 20 C 0 km/h
342 11-09-2010 20:21:02 19.5 C 9.4 g/m*3 19.5 C 0 km/h
343 11-09-2010 20:33:02 19.3 C 9.45 g/m*3 19.3 C 0 km/h
344 11-09-2010 20:45:01 19.1 C 9.67 g/m*3 19.1 C 0 km/h
345 11-09-2010 20:57:01 18.8 C 9.66 g/m*3 18.8 C 0 km/h
346 11-09-2010 21:09:02 18.6 C 9.71 g/m*3 18.6 C 0 km/h
347 11-09-2010 21:21:01 18.4 C 9.91 g/m*3 18.4 C 0 km/h
348 11-09-2010 21:33:01 18.2 C 10.1 g/m*3 18.2 C 0 km/h
349 11-09-2010 21:45:01 17.7 C 10.11 g/m*3 17.7 C 0 km/h
350 11-09-2010 21:57:01 17.6 C 10.2 g/m*3 17.6 C 0 km/h
Sensor: Nr:Datum:Temp:Abs-Feuchte:Windchill:Wind:
Aussen-T/F 351 11-09-2010 22:09:02 17.6 C 10.2 g/m*3 17.6 C 0 km/h
352 11-09-2010 22:21:01 17.4 C 10.23 g/m*3 17.4 C 0 km/h
353 11-09-2010 22:34:03 17.2 C 10.1 g/m*3 17.2 C 0 km/h
354 11-09-2010 22:46:03 16.9 C 10.36 g/m*3 16.9 C 0 km/h
355 11-09-2010 22:58:03 16.9 C 10.5 g/m*3 16.9 C 0 km/h
356 11-09-2010 23:10:03 17 C 10.42 g/m*3 17 C 0 km/h
357 11-09-2010 23:22:03 16.6 C 10.45 g/m*3 16.6 C 0 km/h
358 11-09-2010 23:34:03 16.5 C 10.39 g/m*3 16.5 C 0 km/h
359 11-09-2010 23:46:03 16.4 C 10.33 g/m*3 16.4 C 0 km/h
360 11-09-2010 23:58:03 16.3 C 10.41 g/m*3 16.3 C 0 km/h
361 12-09-2010 00:10:03 16.2 C 10.48 g/m*3 16.2 C 0 km/h
362 12-09-2010 00:22:03 16.2 C 10.48 g/m*3 16.2 C 0 km/h
363 12-09-2010 00:34:03 16.1 C 10.42 g/m*3 16.1 C 0 km/h
364 12-09-2010 00:46:03 16 C 10.35 g/m*3 16 C 0 km/h
365 12-09-2010 00:58:03 15.8 C 10.36 g/m*3 15.8 C 0 km/h
366 12-09-2010 01:10:03 15.6 C 10.37 g/m*3 15.6 C 0 km/h
367 12-09-2010 01:22:04 15.5 C 10.31 g/m*3 15.5 C 0 km/h
368 12-09-2010 01:34:04 15.2 C 10.25 g/m*3 15.2 C 0 km/h
369 12-09-2010 01:46:04 15.2 C 10.38 g/m*3 15.2 C 0 km/h
370 12-09-2010 01:58:04 15.2 C 10.38 g/m*3 15.2 C 0 km/h
371 12-09-2010 02:10:04 15 C 10.26 g/m*3 15 C 0 km/h
372 12-09-2010 02:22:04 15 C 10.39 g/m*3 15 C 0 km/h
373 12-09-2010 02:34:04 14.9 C 10.45 g/m*3 14.9 C 0 km/h
374 12-09-2010 02:46:04 14.8 C 10.51 g/m*3 14.8 C 0 km/h
375 12-09-2010 02:58:04 14.7 C 10.32 g/m*3 14.7 C 0 km/h
Sensor: Nr:Datum:Temp:Abs-Feuchte:Windchill:Wind:
Aussen-T/F 376 12-09-2010 03:10:04 14.7 C 10.32 g/m*3 14.7 C 0 km/h
377 12-09-2010 03:22:04 14.6 C 10.26 g/m*3 14.6 C 0 km/h
378 12-09-2010 03:34:04 14.4 C 10.14 g/m*3 14.4 C 0 km/h
379 12-09-2010 03:46:04 14.3 C 10.07 g/m*3 14.3 C 0 km/h
380 12-09-2010 03:58:04 14.3 C 10.2 g/m*3 14.3 C 0 km/h
381 12-09-2010 04:10:04 14.2 C 10.14 g/m*3 14.2 C 0 km/h
382 12-09-2010 04:22:04 14.1 C 10.07 g/m*3 14.1 C 0 km/h
383 12-09-2010 04:34:05 14.1 C 10.07 g/m*3 14.1 C 0 km/h
384 12-09-2010 04:46:05 14.1 C 10.07 g/m*3 14.1 C 0 km/h
385 12-09-2010 04:58:05 14 C 10.01 g/m*3 14 C 0 km/h
386 12-09-2010 05:10:05 13.9 C 10.07 g/m*3 13.9 C 0 km/h
387 12-09-2010 05:22:05 13.7 C 9.95 g/m*3 13.7 C 0 km/h
388 12-09-2010 05:34:05 13.8 C 10.01 g/m*3 13.8 C 0 km/h
389 12-09-2010 05:46:05 13.7 C 9.95 g/m*3 13.7 C 0 km/h
390 12-09-2010 05:58:05 13.7 C 9.95 g/m*3 13.7 C 0 km/h
391 12-09-2010 06:10:05 13.7 C 9.95 g/m*3 13.7 C 0 km/h
392 12-09-2010 06:22:05 13.5 C 9.94 g/m*3 13.5 C 0 km/h
393 12-09-2010 06:34:05 13.5 C 9.94 g/m*3 13.5 C 0 km/h
394 12-09-2010 06:46:05 13.5 C 9.94 g/m*3 13.5 C 0 km/h
395 12-09-2010 06:58:05 13.4 C 9.88 g/m*3 13.4 C 0 km/h
396 12-09-2010 07:10:05 13.5 C 9.94 g/m*3 13.5 C 0 km/h
397 12-09-2010 07:22:05 13.5 C 10.06 g/m*3 13.5 C 0 km/h
398 12-09-2010 07:34:05 13.6 C 10.12 g/m*3 13.6 C 0 km/h
399 12-09-2010 07:46:02 13.8 C 10.25 g/m*3 13.8 C 0 km/h
400 12-09-2010 07:58:02 14.1 C 10.32 g/m*3 14.1 C 0 km/h
Sensor: Nr:Datum:Temp:Abs-Feuchte:Windchill:Wind:
Aussen-T/F 401 12-09-2010 08:10:02 14.1 C 10.32 g/m*3 14.1 C 0 km/h
402 12-09-2010 08:22:01 14.4 C 10.38 g/m*3 14.4 C 0 km/h
403 12-09-2010 08:34:02 14.5 C 10.32 g/m*3 14.5 C 0 km/h
404 12-09-2010 08:46:02 14 C 10.13 g/m*3 14 C 0 km/h
405 12-09-2010 08:58:02 14.3 C 10.32 g/m*3 14.3 C 0 km/h
406 12-09-2010 09:10:02 14.8 C 10.64 g/m*3 14.8 C 0 km/h
407 12-09-2010 09:22:02 14.8 C 10.39 g/m*3 14.8 C 0 km/h
408 12-09-2010 09:34:02 14.8 C 10.51 g/m*3 14.8 C 0 km/h
409 12-09-2010 09:46:02 15 C 10.51 g/m*3 15 C 0 km/h
410 12-09-2010 09:58:02 14.8 C 10.51 g/m*3 14.8 C 0 km/h
411 12-09-2010 10:10:02 15.3 C 10.84 g/m*3 15.3 C 0 km/h
412 12-09-2010 10:22:03 15.9 C 11.1 g/m*3 15.9 C 0 km/h
413 12-09-2010 10:34:02 16.8 C 11.29 g/m*3 16.8 C 0 km/h
414 12-09-2010 10:46:02 18 C 11.37 g/m*3 18 C 0 km/h
415 12-09-2010 10:58:02 18.7 C 11.05 g/m*3 18.7 C 0 km/h
416 12-09-2010 11:10:02 19.5 C 10.41 g/m*3 19.5 C 0 km/h
417 12-09-2010 11:22:02 20.2 C 10.67 g/m*3 20.2 C 0 km/h
418 12-09-2010 11:34:02 20.1 C 10.6 g/m*3 20.1 C 0 km/h
419 12-09-2010 11:46:02 20 C 10.89 g/m*3 20 C 0 km/h
420 12-09-2010 11:58:02 20.3 C 10.9 g/m*3 20.3 C 0 km/h
421 12-09-2010 12:10:01 20.5 C 10.85 g/m*3 20.5 C 0 km/h
422 12-09-2010 12:22:02 20.9 C 11.11 g/m*3 20.9 C 0 km/h
423 12-09-2010 12:34:01 21.4 C 11.06 g/m*3 21.4 C 0 km/h
424 12-09-2010 12:46:01 22.4 C 10.33 g/m*3 22.4 C 0 km/h
425 12-09-2010 12:58:02 22.9 C 10.22 g/m*3 22.9 C 0 km/h
Sensor: Nr:Datum:Temp:Abs-Feuchte:Windchill:Wind:
Aussen-T/F 426 12-09-2010 13:10:01 23.1 C 10.34 g/m*3 23.1 C 0 km/h
427 12-09-2010 13:22:01 23.7 C 10.48 g/m*3 23.7 C 0 km/h
428 12-09-2010 13:34:02 24.3 C 9.74 g/m*3 24.3 C 0 km/h
429 12-09-2010 13:46:02 25 C 8.98 g/m*3 25 C 0 km/h
430 12-09-2010 13:58:02 25.9 C 9.44 g/m*3 25.9 C 0 km/h
431 12-09-2010 14:10:02 25.7 C 9.34 g/m*3 25.7 C 0 km/h
432 12-09-2010 14:22:01 25 C 8.06 g/m*3 25 C 0 km/h
433 12-09-2010 14:34:02 24.7 C 8.15 g/m*3 24.7 C 0 km/h
434 12-09-2010 14:46:02 23.1 C 9.72 g/m*3 23.1 C 0 km/h
435 12-09-2010 14:58:02 20.8 C 10.14 g/m*3 20.8 C 0 km/h
436 12-09-2010 15:10:02 19.5 C 9.23 g/m*3 19.5 C 0 km/h
437 12-09-2010 15:22:02 19.1 C 8.69 g/m*3 19.1 C 0 km/h
438 12-09-2010 15:34:02 19.4 C 8.84 g/m*3 19.4 C 0 km/h
439 12-09-2010 15:46:02 19.4 C 8.84 g/m*3 19.4 C 0 km/h
440 12-09-2010 15:58:02 19.2 C 8.74 g/m*3 19.2 C 0 km/h
441 12-09-2010 16:10:02 17.9 C 8.86 g/m*3 17.9 C 0 km/h
442 12-09-2010 16:22:02 18.1 C 9.12 g/m*3 18.1 C 0 km/h
443 12-09-2010 16:34:02 18.1 C 9.27 g/m*3 18.1 C 0 km/h
444 12-09-2010 16:46:02 17.6 C 9.3 g/m*3 17.6 C 0 km/h
445 12-09-2010 16:58:02 17.2 C 9.37 g/m*3 17.2 C 0 km/h
446 12-09-2010 17:10:02 17.2 C 9.52 g/m*3 17.2 C 0 km/h
447 12-09-2010 17:22:02 16.6 C 9.04 g/m*3 16.6 C 0 km/h
448 12-09-2010 17:34:01 16.1 C 9.46 g/m*3 16.1 C 0 km/h
449 12-09-2010 17:46:02 15.6 C 9.97 g/m*3 15.6 C 0 km/h
450 12-09-2010 17:58:02 15.5 C 10.31 g/m*3 15.5 C 0 km/h
Sensor: Nr:Datum:Temp:Abs-Feuchte:Windchill:Wind:
Aussen-T/F 451 12-09-2010 18:10:01 15.2 C 10.25 g/m*3 15.2 C 0 km/h
452 12-09-2010 18:22:02 15.2 C 10.51 g/m*3 15.2 C 0 km/h
453 12-09-2010 18:34:02 14.9 C 10.58 g/m*3 14.9 C 0 km/h
454 12-09-2010 18:46:02 14.7 C 10.7 g/m*3 14.7 C 0 km/h
455 12-09-2010 18:58:02 14.6 C 10.89 g/m*3 14.6 C 0 km/h
456 12-09-2010 19:10:02 14.5 C 10.82 g/m*3 14.5 C 0 km/h
457 12-09-2010 19:22:02 14.3 C 10.69 g/m*3 14.3 C 0 km/h
458 12-09-2010 19:34:02 14.1 C 10.68 g/m*3 14.1 C 0 km/h
459 12-09-2010 19:46:01 14.3 C 10.93 g/m*3 14.3 C 0 km/h
460 12-09-2010 19:58:01 14.1 C 10.8 g/m*3 14.1 C 0 km/h
461 12-09-2010 20:10:02 14 C 10.74 g/m*3 14 C 0 km/h
462 12-09-2010 20:22:01 13.9 C 10.79 g/m*3 13.9 C 0 km/h
463 12-09-2010 20:34:01 13.8 C 10.84 g/m*3 13.8 C 0 km/h
464 12-09-2010 20:46:01 13.7 C 10.78 g/m*3 13.7 C 0 km/h
465 12-09-2010 20:58:01 13.7 C 10.89 g/m*3 13.7 C 0 km/h
466 12-09-2010 21:10:02 13.6 C 10.83 g/m*3 13.6 C 0 km/h
467 12-09-2010 21:22:01 13.7 C 10.89 g/m*3 13.7 C 0 km/h
468 12-09-2010 21:34:01 13.7 C 10.89 g/m*3 13.7 C 0 km/h
469 12-09-2010 21:46:01 13.9 C 11.15 g/m*3 13.9 C 0 km/h
470 12-09-2010 21:58:01 14 C 11.1 g/m*3 14 C 0 km/h
471 12-09-2010 22:10:02 13.9 C 11.15 g/m*3 13.9 C 0 km/h
472 12-09-2010 22:22:01 13.9 C 11.15 g/m*3 13.9 C 0 km/h
473 12-09-2010 22:34:02 13.8 C 11.08 g/m*3 13.8 C 0 km/h
474 12-09-2010 22:46:02 13.7 C 11.01 g/m*3 13.7 C 0 km/h
475 12-09-2010 22:58:02 13.6 C 10.95 g/m*3 13.6 C 0 km/h
Sensor: Nr:Datum:Temp:Abs-Feuchte:Windchill:Wind:
Aussen-T/F 476 12-09-2010 23:10:01 13.5 C 10.88 g/m*3 13.5 C 0 km/h
477 12-09-2010 23:22:02 13.5 C 10.88 g/m*3 13.5 C 0 km/h
478 12-09-2010 23:34:02 13.5 C 10.88 g/m*3 13.5 C 0 km/h
479 12-09-2010 23:46:02 13.7 C 11.01 g/m*3 13.7 C 0 km/h
480 12-09-2010 23:58:02 13.7 C 11.01 g/m*3 13.7 C 0 km/h
481 13-09-2010 00:10:03 13.7 C 11.01 g/m*3 13.7 C 0 km/h
482 13-09-2010 00:22:02 13.6 C 10.95 g/m*3 13.6 C 0 km/h
483 13-09-2010 00:34:02 13.7 C 11.01 g/m*3 13.7 C 0 km/h
484 13-09-2010 00:46:02 13.7 C 11.01 g/m*3 13.7 C 0 km/h
485 13-09-2010 00:58:02 13.7 C 11.01 g/m*3 13.7 C 0 km/h
486 13-09-2010 01:10:02 13.6 C 10.95 g/m*3 13.6 C 0 km/h
487 13-09-2010 01:22:03 13.7 C 11.01 g/m*3 13.7 C 0 km/h
488 13-09-2010 01:34:02 13.8 C 11.08 g/m*3 13.8 C 0 km/h
489 13-09-2010 01:46:02 13.7 C 11.01 g/m*3 13.7 C 0 km/h
490 13-09-2010 01:58:02 13.7 C 11.01 g/m*3 13.7 C 0 km/h
491 13-09-2010 02:10:02 13.7 C 11.01 g/m*3 13.7 C 0 km/h
492 13-09-2010 02:22:02 13.5 C 10.88 g/m*3 13.5 C 0 km/h
493 13-09-2010 02:34:02 13.4 C 10.81 g/m*3 13.4 C 0 km/h
494 13-09-2010 02:46:02 13.4 C 10.81 g/m*3 13.4 C 0 km/h
495 13-09-2010 02:58:02 13.6 C 10.95 g/m*3 13.6 C 0 km/h
496 13-09-2010 03:10:01 13.5 C 10.88 g/m*3 13.5 C 0 km/h
497 13-09-2010 03:22:01 13.3 C 10.63 g/m*3 13.3 C 0 km/h
498 13-09-2010 03:34:02 13.2 C 10.56 g/m*3 13.2 C 0 km/h
499 13-09-2010 03:46:02 13.2 C 10.45 g/m*3 13.2 C 0 km/h
500 13-09-2010 03:58:02 13.1 C 10.38 g/m*3 13.1 C 0 km/h
Sensor: Nr:Datum:Temp:Abs-Feuchte:Windchill:Wind:
Aussen-T/F 501 13-09-2010 04:10:01 13 C 10.21 g/m*3 13 C 0 km/h
502 13-09-2010 04:22:02 12.8 C 10.19 g/m*3 12.8 C 0 km/h
503 13-09-2010 04:34:01 12.9 C 10.26 g/m*3 12.9 C 0 km/h
504 13-09-2010 04:46:01 13.1 C 10.16 g/m*3 13.1 C 0 km/h
505 13-09-2010 04:58:02 13.2 C 10.22 g/m*3 13.2 C 0 km/h
506 13-09-2010 05:10:01 13.3 C 10.05 g/m*3 13.3 C 0 km/h
507 13-09-2010 05:22:01 13.3 C 9.82 g/m*3 13.3 C 0 km/h
508 13-09-2010 05:34:02 13.2 C 9.64 g/m*3 13.2 C 0 km/h
509 13-09-2010 05:46:01 13.2 C 9.64 g/m*3 13.2 C 0 km/h
510 13-09-2010 05:58:01 13.3 C 9.7 g/m*3 13.3 C 0 km/h
511 13-09-2010 06:10:02 13.4 C 9.76 g/m*3 13.4 C 0 km/h
512 13-09-2010 06:22:01 13.4 C 9.65 g/m*3 13.4 C 0 km/h
513 13-09-2010 06:34:01 13.3 C 9.59 g/m*3 13.3 C 0 km/h
514 13-09-2010 06:46:01 13.2 C 9.42 g/m*3 13.2 C 0 km/h
515 13-09-2010 06:58:01 13.2 C 9.42 g/m*3 13.2 C 0 km/h
516 13-09-2010 07:10:02 13 C 9.19 g/m*3 13 C 0 km/h
517 13-09-2010 07:22:01 13 C 9.3 g/m*3 13 C 0 km/h
518 13-09-2010 07:34:01 12.7 C 9.13 g/m*3 12.7 C 0 km/h
519 13-09-2010 07:46:01 12.5 C 9.13 g/m*3 12.5 C 0 km/h
520 13-09-2010 07:58:01 12.4 C 9.18 g/m*3 12.4 C 0 km/h
521 13-09-2010 08:10:01 12.5 C 9.35 g/m*3 12.5 C 0 km/h
522 13-09-2010 08:22:01 13 C 9.64 g/m*3 13 C 0 km/h
523 13-09-2010 08:34:01 13.1 C 9.7 g/m*3 13.1 C 0 km/h
524 13-09-2010 08:46:02 13.2 C 9.64 g/m*3 13.2 C 0 km/h
525 13-09-2010 08:58:02 13.4 C 9.76 g/m*3 13.4 C 0 km/h
Sensor: Nr:Datum:Temp:Abs-Feuchte:Windchill:Wind:
Aussen-T/F 526 13-09-2010 09:10:01 13.5 C 9.71 g/m*3 13.5 C 0 km/h
527 13-09-2010 09:22:02 13.7 C 9.71 g/m*3 13.7 C 0 km/h
528 13-09-2010 09:34:01 14 C 9.41 g/m*3 14 C 0 km/h
529 13-09-2010 09:46:02 14.2 C 9.28 g/m*3 14.2 C 0 km/h
530 13-09-2010 09:58:02 14.5 C 9.2 g/m*3 14.5 C 0 km/h
531 13-09-2010 10:10:01 14.8 C 9.25 g/m*3 14.8 C 0 km/h
532 13-09-2010 10:22:01 15 C 9.1 g/m*3 15 C 0 km/h
533 13-09-2010 10:34:02 15.3 C 9.14 g/m*3 15.3 C 0 km/h
534 13-09-2010 10:46:01 15.6 C 8.91 g/m*3 15.6 C 0 km/h
535 13-09-2010 10:58:01 15.9 C 8.8 g/m*3 15.9 C 0 km/h
536 13-09-2010 11:10:01 16 C 8.58 g/m*3 16 C 0 km/h
537 13-09-2010 11:22:01 16.4 C 8.65 g/m*3 16.4 C 0 km/h
538 13-09-2010 11:34:02 16.3 C 8.74 g/m*3 16.3 C 0 km/h
539 13-09-2010 11:46:01 17.1 C 8.59 g/m*3 17.1 C 0 km/h
540 13-09-2010 11:58:01 16.7 C 8.24 g/m*3 16.7 C 0 km/h
541 13-09-2010 12:10:02 16.4 C 8.23 g/m*3 16.4 C 0 km/h
542 13-09-2010 12:22:01 16.9 C 8.2 g/m*3 16.9 C 0 km/h
543 13-09-2010 12:34:01 17.6 C 7.8 g/m*3 17.6 C 0 km/h
544 13-09-2010 12:46:01 17.6 C 7.5 g/m*3 17.6 C 0 km/h
545 13-09-2010 12:58:01 17.7 C 7.85 g/m*3 17.7 C 0 km/h
546 13-09-2010 13:10:01 18 C 7.37 g/m*3 18 C 0 km/h
547 13-09-2010 13:22:01 18.9 C 7.78 g/m*3 18.9 C 0 km/h
548 13-09-2010 13:34:01 18.9 C 7.45 g/m*3 18.9 C 0 km/h
549 13-09-2010 13:46:01 18.7 C 7.2 g/m*3 18.7 C 0 km/h
550 13-09-2010 13:58:01 20.2 C 7.87 g/m*3 20.2 C 0 km/h
Sensor: Nr:Datum:Temp:Abs-Feuchte:Windchill:Wind:
Aussen-T/F 551 13-09-2010 14:10:01 19.9 C 7.22 g/m*3 19.9 C 0 km/h
552 13-09-2010 14:22:02 19.5 C 6.55 g/m*3 19.5 C 0 km/h
553 13-09-2010 14:34:01 19.6 C 6.75 g/m*3 19.6 C 0 km/h
554 13-09-2010 14:46:02 20.6 C 7.34 g/m*3 20.6 C 0 km/h
555 13-09-2010 14:58:02 21.3 C 6.9 g/m*3 21.3 C 0 km/h
556 13-09-2010 15:10:01 20.9 C 6.74 g/m*3 20.9 C 0 km/h
557 13-09-2010 15:22:01 21.3 C 6.9 g/m*3 21.3 C 0 km/h
558 13-09-2010 15:34:01 21.2 C 6.67 g/m*3 21.2 C 0 km/h
559 13-09-2010 15:46:01 20.6 C 7.16 g/m*3 20.6 C 0 km/h
560 13-09-2010 15:58:01 20 C 7.95 g/m*3 20 C 0 km/h
561 13-09-2010 16:10:01 20.8 C 7.97 g/m*3 20.8 C 0 km/h
562 13-09-2010 16:22:02 21.4 C 6.37 g/m*3 21.4 C 0 km/h
563 13-09-2010 16:34:01 21.4 C 7.5 g/m*3 21.4 C 0 km/h
564 13-09-2010 16:46:02 21.8 C 6.52 g/m*3 21.8 C 0 km/h
565 13-09-2010 16:58:02 22.4 C 6.16 g/m*3 22.4 C 0 km/h
566 13-09-2010 17:10:01 22.3 C 7.11 g/m*3 22.3 C 0 km/h
567 13-09-2010 17:22:01 20.5 C 7.65 g/m*3 20.5 C 0 km/h
568 13-09-2010 17:34:01 20.2 C 7.87 g/m*3 20.2 C 0 km/h
569 13-09-2010 17:46:01 19.8 C 8.37 g/m*3 19.8 C 0 km/h
570 13-09-2010 17:58:02 19.6 C 8.61 g/m*3 19.6 C 0 km/h
571 13-09-2010 18:10:02 18.9 C 8.75 g/m*3 18.9 C 0 km/h
572 13-09-2010 18:22:02 18.4 C 8.65 g/m*3 18.4 C 0 km/h
573 13-09-2010 18:34:01 18.2 C 8.55 g/m*3 18.2 C 0 km/h
574 13-09-2010 18:46:02 17.9 C 8.55 g/m*3 17.9 C 0 km/h
575 13-09-2010 18:58:02 17.7 C 8.6 g/m*3 17.7 C 0 km/h
Sensor: Nr:Datum:Temp:Abs-Feuchte:Windchill:Wind:
Aussen-T/F 576 13-09-2010 19:10:01 17.7 C 8.6 g/m*3 17.7 C 0 km/h
577 13-09-2010 19:22:02 17.5 C 8.5 g/m*3 17.5 C 0 km/h
578 13-09-2010 19:34:01 17 C 8.68 g/m*3 17 C 0 km/h
579 13-09-2010 19:46:02 16.4 C 8.51 g/m*3 16.4 C 0 km/h
580 13-09-2010 19:58:02 16 C 8.45 g/m*3 16 C 0 km/h
581 13-09-2010 20:10:01 15.6 C 8.64 g/m*3 15.6 C 0 km/h
582 13-09-2010 20:22:01 15.4 C 8.8 g/m*3 15.4 C 0 km/h
583 13-09-2010 20:34:01 15.2 C 8.96 g/m*3 15.2 C 0 km/h
584 13-09-2010 20:46:01 15.1 C 9.03 g/m*3 15.1 C 0 km/h
585 13-09-2010 20:58:02 14.9 C 9.05 g/m*3 14.9 C 0 km/h
586 13-09-2010 21:10:01 14.7 C 8.94 g/m*3 14.7 C 0 km/h
587 13-09-2010 21:22:01 14.6 C 9.01 g/m*3 14.6 C 0 km/h
588 13-09-2010 21:34:02 14.5 C 8.95 g/m*3 14.5 C 0 km/h
589 13-09-2010 21:46:01 14.4 C 8.9 g/m*3 14.4 C 0 km/h
590 13-09-2010 21:58:01 14.4 C 9.02 g/m*3 14.4 C 0 km/h
591 13-09-2010 22:10:01 14.1 C 8.86 g/m*3 14.1 C 0 km/h
592 13-09-2010 22:23:05 13.8 C 8.82 g/m*3 13.8 C 0 km/h
593 13-09-2010 22:35:05 13.7 C 8.88 g/m*3 13.7 C 0 km/h
594 13-09-2010 22:47:05 13.5 C 8.89 g/m*3 13.5 C 0 km/h
595 13-09-2010 22:59:05 13.4 C 8.83 g/m*3 13.4 C 0 km/h
596 13-09-2010 23:11:05 13.3 C 8.78 g/m*3 13.3 C 0 km/h
597 13-09-2010 23:23:05 13.3 C 9.01 g/m*3 13.3 C 0 km/h
598 13-09-2010 23:35:05 13.1 C 8.9 g/m*3 13.1 C 0 km/h
599 13-09-2010 23:47:05 13 C 8.73 g/m*3 13 C 0 km/h
600 13-09-2010 23:59:05 13 C 8.85 g/m*3 13 C 0 km/h
Sensor: Nr:Datum:Temp:Abs-Feuchte:Windchill:Wind:
Aussen-T/F 601 14-09-2010 00:11:05 13 C 8.96 g/m*3 13 C 0 km/h
602 14-09-2010 00:23:05 12.8 C 9.18 g/m*3 12.8 C 0 km/h
603 14-09-2010 00:35:05 12.8 C 9.3 g/m*3 12.8 C 0 km/h
604 14-09-2010 00:47:05 12.8 C 9.3 g/m*3 12.8 C 0 km/h
605 14-09-2010 00:59:05 12.7 C 9.24 g/m*3 12.7 C 0 km/h
606 14-09-2010 01:11:05 12.6 C 9.18 g/m*3 12.6 C 0 km/h
607 14-09-2010 01:23:05 12.7 C 9.24 g/m*3 12.7 C 0 km/h
608 14-09-2010 01:35:05 12.8 C 9.3 g/m*3 12.8 C 0 km/h
609 14-09-2010 01:47:05 12.9 C 9.35 g/m*3 12.9 C 0 km/h
610 14-09-2010 01:59:05 13 C 9.3 g/m*3 13 C 0 km/h
611 14-09-2010 02:11:05 13 C 9.3 g/m*3 13 C 0 km/h
612 14-09-2010 02:23:05 13 C 9.3 g/m*3 13 C 0 km/h
613 14-09-2010 02:35:06 13.1 C 9.36 g/m*3 13.1 C 0 km/h
614 14-09-2010 02:47:06 13.2 C 9.42 g/m*3 13.2 C 0 km/h
615 14-09-2010 02:59:06 13.2 C 9.3 g/m*3 13.2 C 0 km/h
616 14-09-2010 03:11:06 13.4 C 9.18 g/m*3 13.4 C 0 km/h
617 14-09-2010 03:23:06 13.4 C 9.18 g/m*3 13.4 C 0 km/h
618 14-09-2010 03:35:06 13.3 C 9.24 g/m*3 13.3 C 0 km/h
619 14-09-2010 03:47:06 13.3 C 9.24 g/m*3 13.3 C 0 km/h
620 14-09-2010 03:59:06 13.4 C 9.3 g/m*3 13.4 C 0 km/h
621 14-09-2010 04:11:06 13.2 C 9.19 g/m*3 13.2 C 0 km/h
622 14-09-2010 04:23:06 13 C 9.3 g/m*3 13 C 0 km/h
623 14-09-2010 04:35:06 12.8 C 9.41 g/m*3 12.8 C 0 km/h
624 14-09-2010 04:47:06 12.9 C 9.58 g/m*3 12.9 C 0 km/h
625 14-09-2010 04:59:06 12.8 C 9.63 g/m*3 12.8 C 0 km/h
Sensor: Nr:Datum:Temp:Abs-Feuchte:Windchill:Wind:
Aussen-T/F 626 14-09-2010 05:11:06 12.9 C 9.81 g/m*3 12.9 C 0 km/h
627 14-09-2010 05:23:06 12.9 C 9.81 g/m*3 12.9 C 0 km/h
628 14-09-2010 05:35:06 13 C 9.87 g/m*3 13 C 0 km/h
629 14-09-2010 05:47:06 13 C 9.87 g/m*3 13 C 0 km/h
630 14-09-2010 05:59:06 13 C 9.87 g/m*3 13 C 0 km/h
631 14-09-2010 06:11:06 13.3 C 10.05 g/m*3 13.3 C 0 km/h
632 14-09-2010 06:23:06 13.5 C 9.83 g/m*3 13.5 C 0 km/h
633 14-09-2010 06:35:06 13.8 C 9.06 g/m*3 13.8 C 0 km/h
634 14-09-2010 06:47:06 14.5 C 8.83 g/m*3 14.5 C 0 km/h
635 14-09-2010 06:59:07 14.4 C 8.53 g/m*3 14.4 C 0 km/h
636 14-09-2010 07:11:07 14.4 C 8.53 g/m*3 14.4 C 0 km/h
637 14-09-2010 07:23:07 14.4 C 8.65 g/m*3 14.4 C 0 km/h
638 14-09-2010 07:35:04 14.3 C 8.85 g/m*3 14.3 C 0 km/h
639 14-09-2010 07:47:02 13.6 C 9.18 g/m*3 13.6 C 0 km/h
640 14-09-2010 07:59:02 13.6 C 9.42 g/m*3 13.6 C 0 km/h
641 14-09-2010 08:11:01 13.7 C 9.47 g/m*3 13.7 C 0 km/h
642 14-09-2010 08:23:02 13.7 C 9.47 g/m*3 13.7 C 0 km/h
643 14-09-2010 08:35:02 14.1 C 9.34 g/m*3 14.1 C 0 km/h
644 14-09-2010 08:47:02 14.4 C 9.15 g/m*3 14.4 C 0 km/h
645 14-09-2010 08:59:02 14.6 C 9.13 g/m*3 14.6 C 0 km/h
646 14-09-2010 09:11:01 14.7 C 9.07 g/m*3 14.7 C 0 km/h
647 14-09-2010 09:23:02 14.8 C 9.12 g/m*3 14.8 C 0 km/h
648 14-09-2010 09:35:02 15.1 C 9.03 g/m*3 15.1 C 0 km/h
649 14-09-2010 09:47:01 15.6 C 9.04 g/m*3 15.6 C 0 km/h
650 14-09-2010 09:59:01 15.6 C 9.04 g/m*3 15.6 C 0 km/h
Sensor: Nr:Datum:Temp:Abs-Feuchte:Windchill:Wind:
Aussen-T/F 651 14-09-2010 10:11:02 15.6 C 9.04 g/m*3 15.6 C 0 km/h
652 14-09-2010 10:23:01 15.7 C 9.1 g/m*3 15.7 C 0 km/h
653 14-09-2010 10:35:01 16 C 8.99 g/m*3 16 C 0 km/h
654 14-09-2010 10:47:01 16.4 C 8.93 g/m*3 16.4 C 0 km/h
655 14-09-2010 10:59:01 16.8 C 9.29 g/m*3 16.8 C 0 km/h
656 14-09-2010 11:11:02 17 C 8.97 g/m*3 17 C 0 km/h
657 14-09-2010 11:23:01 17.1 C 9.03 g/m*3 17.1 C 0 km/h
658 14-09-2010 11:35:01 17 C 9.12 g/m*3 17 C 0 km/h
659 14-09-2010 11:47:01 16.7 C 9.24 g/m*3 16.7 C 0 km/h
660 14-09-2010 11:59:01 17.5 C 9.39 g/m*3 17.5 C 0 km/h
661 14-09-2010 12:11:02 17.8 C 9.26 g/m*3 17.8 C 0 km/h
662 14-09-2010 12:23:02 18.2 C 9.01 g/m*3 18.2 C 0 km/h
663 14-09-2010 12:35:01 18.5 C 9.18 g/m*3 18.5 C 0 km/h
664 14-09-2010 12:47:02 18.8 C 9.18 g/m*3 18.8 C 0 km/h
665 14-09-2010 12:59:02 18.9 C 9.23 g/m*3 18.9 C 0 km/h
666 14-09-2010 13:11:01 19.6 C 9.28 g/m*3 19.6 C 0 km/h
667 14-09-2010 13:23:01 19.7 C 9.34 g/m*3 19.7 C 0 km/h
668 14-09-2010 13:35:01 20.2 C 9.44 g/m*3 20.2 C 0 km/h
669 14-09-2010 13:47:02 20.4 C 9.02 g/m*3 20.4 C 0 km/h
670 14-09-2010 13:59:02 20 C 8.99 g/m*3 20 C 0 km/h
671 14-09-2010 14:11:02 19.7 C 8.83 g/m*3 19.7 C 0 km/h
672 14-09-2010 14:23:02 19.7 C 9 g/m*3 19.7 C 0 km/h
673 14-09-2010 14:35:02 19.8 C 8.71 g/m*3 19.8 C 0 km/h
674 14-09-2010 14:47:01 19.6 C 8.78 g/m*3 19.6 C 0 km/h
675 14-09-2010 14:59:01 19.5 C 8.89 g/m*3 19.5 C 0 km/h
Sensor: Nr:Datum:Temp:Abs-Feuchte:Windchill:Wind:
Aussen-T/F 676 14-09-2010 15:11:02 20 C 8.81 g/m*3 20 C 0 km/h
677 14-09-2010 15:23:01 20 C 8.64 g/m*3 20 C 0 km/h
678 14-09-2010 15:35:02 20.4 C 8.67 g/m*3 20.4 C 0 km/h
679 14-09-2010 15:47:01 20.7 C 8.46 g/m*3 20.7 C 0 km/h
680 14-09-2010 15:59:01 20.9 C 8.56 g/m*3 20.9 C 0 km/h
681 14-09-2010 16:11:02 20.8 C 8.15 g/m*3 20.8 C 0 km/h
682 14-09-2010 16:23:01 20.9 C 8.2 g/m*3 20.9 C 0 km/h
683 14-09-2010 16:35:02 20.6 C 7.7 g/m*3 20.6 C 0 km/h
684 14-09-2010 16:47:01 20.6 C 7.7 g/m*3 20.6 C 0 km/h
685 14-09-2010 16:59:01 20.5 C 7.65 g/m*3 20.5 C 0 km/h
686 14-09-2010 17:11:02 20.5 C 7.47 g/m*3 20.5 C 0 km/h
687 14-09-2010 17:23:01 20.4 C 7.43 g/m*3 20.4 C 0 km/h
688 14-09-2010 17:35:01 20 C 7.26 g/m*3 20 C 0 km/h
689 14-09-2010 17:47:01 20 C 7.43 g/m*3 20 C 0 km/h
690 14-09-2010 17:59:01 19.8 C 7.69 g/m*3 19.8 C 0 km/h
691 14-09-2010 18:11:01 19.6 C 7.77 g/m*3 19.6 C 0 km/h
692 14-09-2010 18:23:02 19.4 C 7.84 g/m*3 19.4 C 0 km/h
693 14-09-2010 18:35:01 19.3 C 7.8 g/m*3 19.3 C 0 km/h
694 14-09-2010 18:47:02 19.3 C 7.8 g/m*3 19.3 C 0 km/h
695 14-09-2010 18:59:02 19.1 C 7.87 g/m*3 19.1 C 0 km/h
696 14-09-2010 19:11:01 19 C 7.82 g/m*3 19 C 0 km/h
697 14-09-2010 19:23:01 18.9 C 7.78 g/m*3 18.9 C 0 km/h
698 14-09-2010 19:35:01 18.7 C 7.68 g/m*3 18.7 C 0 km/h
699 14-09-2010 19:47:02 18.7 C 7.68 g/m*3 18.7 C 0 km/h
700 14-09-2010 19:59:03 18.7 C 7.68 g/m*3 18.7 C 0 km/h
Sensor: Nr:Datum:Temp:Abs-Feuchte:Windchill:Wind:
Aussen-T/F 701 14-09-2010 20:11:01 18.7 C 7.68 g/m*3 18.7 C 0 km/h
702 14-09-2010 20:23:02 18.6 C 7.64 g/m*3 18.6 C 0 km/h
703 14-09-2010 20:35:02 18.7 C 7.68 g/m*3 18.7 C 0 km/h
704 14-09-2010 20:47:02 18.5 C 7.75 g/m*3 18.5 C 0 km/h
705 14-09-2010 20:59:02 18.5 C 7.75 g/m*3 18.5 C 0 km/h
706 14-09-2010 21:11:03 18.5 C 7.75 g/m*3 18.5 C 0 km/h
707 14-09-2010 21:23:02 18.5 C 7.75 g/m*3 18.5 C 0 km/h
708 14-09-2010 21:35:02 18.6 C 7.96 g/m*3 18.6 C 0 km/h
709 14-09-2010 21:47:01 18.5 C 7.75 g/m*3 18.5 C 0 km/h
710 14-09-2010 21:59:01 18.6 C 7.64 g/m*3 18.6 C 0 km/h
711 14-09-2010 22:12:03 18.6 C 7.8 g/m*3 18.6 C 0 km/h
712 14-09-2010 22:24:03 18.5 C 7.75 g/m*3 18.5 C 0 km/h
713 14-09-2010 22:36:03 18.4 C 7.86 g/m*3 18.4 C 0 km/h
714 14-09-2010 22:48:03 18.5 C 7.91 g/m*3 18.5 C 0 km/h
715 14-09-2010 23:00:03 18.5 C 7.91 g/m*3 18.5 C 0 km/h
716 14-09-2010 23:12:03 18.4 C 7.86 g/m*3 18.4 C 0 km/h
717 14-09-2010 23:24:03 18.2 C 7.77 g/m*3 18.2 C 0 km/h
718 14-09-2010 23:36:04 18 C 7.99 g/m*3 18 C 0 km/h
719 14-09-2010 23:48:04 18 C 7.99 g/m*3 18 C 0 km/h
720 15-09-2010 00:00:04 18 C 7.99 g/m*3 18 C 0 km/h
721 15-09-2010 00:12:04 18 C 7.83 g/m*3 18 C 0 km/h
722 15-09-2010 00:24:04 18 C 7.83 g/m*3 18 C 0 km/h
723 15-09-2010 00:36:04 18 C 7.83 g/m*3 18 C 0 km/h
724 15-09-2010 00:48:04 18.1 C 7.88 g/m*3 18.1 C 0 km/h
725 15-09-2010 01:00:04 18.1 C 7.73 g/m*3 18.1 C 0 km/h
Sensor: Nr:Datum:Temp:Abs-Feuchte:Windchill:Wind:
Aussen-T/F 726 15-09-2010 01:12:04 18.1 C 7.73 g/m*3 18.1 C 0 km/h
727 15-09-2010 01:24:04 18.2 C 7.62 g/m*3 18.2 C 0 km/h
728 15-09-2010 01:36:04 18.3 C 7.66 g/m*3 18.3 C 0 km/h
729 15-09-2010 01:48:04 18.2 C 7.62 g/m*3 18.2 C 0 km/h
730 15-09-2010 02:00:04 18.3 C 7.66 g/m*3 18.3 C 0 km/h
731 15-09-2010 02:12:04 18.4 C 7.55 g/m*3 18.4 C 0 km/h
732 15-09-2010 02:24:04 18.4 C 7.55 g/m*3 18.4 C 0 km/h
733 15-09-2010 02:36:05 18.3 C 7.66 g/m*3 18.3 C 0 km/h
734 15-09-2010 02:48:05 18.2 C 7.77 g/m*3 18.2 C 0 km/h
735 15-09-2010 03:00:05 18.2 C 7.93 g/m*3 18.2 C 0 km/h
736 15-09-2010 03:12:05 18.1 C 8.03 g/m*3 18.1 C 0 km/h
737 15-09-2010 03:24:05 18 C 8.29 g/m*3 18 C 0 km/h
738 15-09-2010 03:36:05 18 C 8.45 g/m*3 18 C 0 km/h
739 15-09-2010 03:48:05 18 C 8.45 g/m*3 18 C 0 km/h
740 15-09-2010 04:00:05 17.9 C 8.7 g/m*3 17.9 C 0 km/h
741 15-09-2010 04:12:05 17.9 C 9.01 g/m*3 17.9 C 0 km/h
742 15-09-2010 04:24:05 17.7 C 9.05 g/m*3 17.7 C 0 km/h
743 15-09-2010 04:36:05 17.6 C 9.3 g/m*3 17.6 C 0 km/h
744 15-09-2010 04:48:05 17.4 C 9.48 g/m*3 17.4 C 0 km/h
745 15-09-2010 05:00:05 17.4 C 9.48 g/m*3 17.4 C 0 km/h
746 15-09-2010 05:12:05 16.9 C 10.07 g/m*3 16.9 C 0 km/h
747 15-09-2010 05:24:05 14.4 C 9.27 g/m*3 14.4 C 0 km/h
748 15-09-2010 05:36:05 13.3 C 9.7 g/m*3 13.3 C 0 km/h
749 15-09-2010 05:48:05 13 C 9.87 g/m*3 13 C 0 km/h
750 15-09-2010 06:00:05 12.9 C 10.03 g/m*3 12.9 C 0 km/h
Sensor: Nr:Datum:Temp:Abs-Feuchte:Windchill:Wind:
Aussen-T/F 751 15-09-2010 06:12:05 12.8 C 10.08 g/m*3 12.8 C 0 km/h
752 15-09-2010 06:24:05 12.7 C 10.02 g/m*3 12.7 C 0 km/h
753 15-09-2010 06:36:05 12.7 C 10.13 g/m*3 12.7 C 0 km/h
754 15-09-2010 06:48:05 12.8 C 10.19 g/m*3 12.8 C 0 km/h
755 15-09-2010 07:00:06 12.8 C 10.3 g/m*3 12.8 C 0 km/h
756 15-09-2010 07:12:06 12.7 C 10.24 g/m*3 12.7 C 0 km/h
757 15-09-2010 07:24:06 12.7 C 10.24 g/m*3 12.7 C 0 km/h
758 15-09-2010 07:36:03 12.8 C 10.3 g/m*3 12.8 C 0 km/h
759 15-09-2010 07:48:02 12.7 C 10.35 g/m*3 12.7 C 0 km/h
760 15-09-2010 08:00:02 12.6 C 10.29 g/m*3 12.6 C 0 km/h
761 15-09-2010 08:12:02 12.7 C 10.35 g/m*3 12.7 C 0 km/h
762 15-09-2010 08:24:02 12.7 C 10.35 g/m*3 12.7 C 0 km/h
763 15-09-2010 08:36:01 12.8 C 10.42 g/m*3 12.8 C 0 km/h
764 15-09-2010 08:48:02 12.7 C 10.35 g/m*3 12.7 C 0 km/h
765 15-09-2010 09:00:02 12.5 C 10.22 g/m*3 12.5 C 0 km/h
766 15-09-2010 09:12:01 12.7 C 10.35 g/m*3 12.7 C 0 km/h
767 15-09-2010 09:24:01 12.7 C 10.24 g/m*3 12.7 C 0 km/h
768 15-09-2010 09:36:02 13.1 C 10.38 g/m*3 13.1 C 0 km/h
769 15-09-2010 09:48:02 13.6 C 10.59 g/m*3 13.6 C 0 km/h
770 15-09-2010 10:00:02 14 C 10.49 g/m*3 14 C 0 km/h
771 15-09-2010 10:12:02 14 C 10.01 g/m*3 14 C 0 km/h
772 15-09-2010 10:24:02 14.1 C 9.95 g/m*3 14.1 C 0 km/h
773 15-09-2010 10:36:02 14.1 C 9.71 g/m*3 14.1 C 0 km/h
774 15-09-2010 10:48:02 14.1 C 9.59 g/m*3 14.1 C 0 km/h
775 15-09-2010 11:00:02 14.2 C 9.52 g/m*3 14.2 C 0 km/h
Sensor: Nr:Datum:Temp:Abs-Feuchte:Windchill:Wind:
Aussen-T/F 776 15-09-2010 11:12:02 14.6 C 9.01 g/m*3 14.6 C 0 km/h
777 15-09-2010 11:24:02 15 C 8.72 g/m*3 15 C 0 km/h
778 15-09-2010 11:36:02 15.6 C 8.51 g/m*3 15.6 C 0 km/h
779 15-09-2010 11:48:01 15.7 C 8.43 g/m*3 15.7 C 0 km/h
780 15-09-2010 12:00:01 16.2 C 7.31 g/m*3 16.2 C 0 km/h
781 15-09-2010 12:12:01 16.4 C 7.4 g/m*3 16.4 C 0 km/h
782 15-09-2010 12:24:01 17.2 C 7.18 g/m*3 17.2 C 0 km/h
783 15-09-2010 12:36:01 16.6 C 7.06 g/m*3 16.6 C 0 km/h
784 15-09-2010 12:48:02 16.1 C 6.17 g/m*3 16.1 C 0 km/h
785 15-09-2010 13:00:02 16.1 C 6.44 g/m*3 16.1 C 0 km/h
786 15-09-2010 13:12:02 16.4 C 6.7 g/m*3 16.4 C 0 km/h
787 15-09-2010 13:24:02 17.4 C 6.52 g/m*3 17.4 C 0 km/h
788 15-09-2010 13:36:02 17.9 C 5.95 g/m*3 17.9 C 0 km/h
789 15-09-2010 13:48:02 18.4 C 5.82 g/m*3 18.4 C 0 km/h
790 15-09-2010 14:00:02 18.5 C 5.7 g/m*3 18.5 C 0 km/h
791 15-09-2010 14:12:02 18.1 C 5.87 g/m*3 18.1 C 0 km/h
792 15-09-2010 14:24:02 18.5 C 5.54 g/m*3 18.5 C 0 km/h
793 15-09-2010 14:36:02 18.3 C 5.47 g/m*3 18.3 C 0 km/h
794 15-09-2010 14:48:02 18.5 C 5.7 g/m*3 18.5 C 0 km/h
795 15-09-2010 15:00:03 19.5 C 5.87 g/m*3 19.5 C 0 km/h
796 15-09-2010 15:12:01 19.6 C 5.4 g/m*3 19.6 C 0 km/h
797 15-09-2010 15:24:01 19.3 C 5.64 g/m*3 19.3 C 0 km/h
798 15-09-2010 15:36:02 19.2 C 5.94 g/m*3 19.2 C 0 km/h
799 15-09-2010 15:48:02 20 C 5.88 g/m*3 20 C 0 km/h
800 15-09-2010 16:00:02 19.6 C 5.91 g/m*3 19.6 C 0 km/h
Sensor: Nr:Datum:Temp:Abs-Feuchte:Windchill:Wind:
Aussen-T/F 801 15-09-2010 16:12:02 19.6 C 5.91 g/m*3 19.6 C 0 km/h
802 15-09-2010 16:24:02 19.3 C 5.97 g/m*3 19.3 C 0 km/h
803 15-09-2010 16:36:02 19.6 C 6.08 g/m*3 19.6 C 0 km/h
804 15-09-2010 16:48:02 19.5 C 6.04 g/m*3 19.5 C 0 km/h
805 15-09-2010 17:00:02 20.4 C 5.84 g/m*3 20.4 C 0 km/h
806 15-09-2010 17:12:02 19 C 5.7 g/m*3 19 C 0 km/h
807 15-09-2010 17:24:02 19.4 C 6.01 g/m*3 19.4 C 0 km/h
808 15-09-2010 17:36:02 19.9 C 5.84 g/m*3 19.9 C 0 km/h
809 15-09-2010 17:48:02 19.7 C 5.6 g/m*3 19.7 C 0 km/h
810 15-09-2010 18:00:02 18.7 C 5.44 g/m*3 18.7 C 0 km/h
811 15-09-2010 18:12:02 18.2 C 5.28 g/m*3 18.2 C 0 km/h
812 15-09-2010 18:24:03 17.5 C 5.22 g/m*3 17.5 C 0 km/h
813 15-09-2010 18:36:02 17.7 C 5.28 g/m*3 17.7 C 0 km/h
814 15-09-2010 18:48:02 17.1 C 5.39 g/m*3 17.1 C 0 km/h
815 15-09-2010 19:00:02 16.9 C 5.61 g/m*3 16.9 C 0 km/h
816 15-09-2010 19:12:02 16.7 C 5.4 g/m*3 16.7 C 0 km/h
817 15-09-2010 19:24:02 16.6 C 5.65 g/m*3 16.6 C 0 km/h
818 15-09-2010 19:36:02 16.4 C 5.72 g/m*3 16.4 C 0 km/h
819 15-09-2010 19:48:02 16.4 C 5.86 g/m*3 16.4 C 0 km/h
820 15-09-2010 20:00:02 16.2 C 6.07 g/m*3 16.2 C 0 km/h
821 15-09-2010 20:12:02 16 C 6.27 g/m*3 16 C 0 km/h
822 15-09-2010 20:24:02 15.8 C 6.46 g/m*3 15.8 C 0 km/h
823 15-09-2010 20:36:01 15.7 C 6.15 g/m*3 15.7 C 0 km/h
824 15-09-2010 20:48:02 15.5 C 6.34 g/m*3 15.5 C 0 km/h
825 15-09-2010 21:00:03 15.4 C 6.31 g/m*3 15.4 C 0 km/h
Sensor: Nr:Datum:Temp:Abs-Feuchte:Windchill:Wind:
Aussen-T/F 826 15-09-2010 21:12:01 15.2 C 6.49 g/m*3 15.2 C 0 km/h
827 15-09-2010 21:24:01 15 C 6.41 g/m*3 15 C 0 km/h
828 15-09-2010 21:37:02 15.1 C 6.32 g/m*3 15.1 C 0 km/h
829 15-09-2010 21:49:02 15.2 C 6.36 g/m*3 15.2 C 0 km/h
830 15-09-2010 22:01:02 15.1 C 6.32 g/m*3 15.1 C 0 km/h
831 15-09-2010 22:13:02 15.1 C 6.06 g/m*3 15.1 C 0 km/h
832 15-09-2010 22:25:02 14.9 C 5.86 g/m*3 14.9 C 0 km/h
833 15-09-2010 22:37:02 14.8 C 5.83 g/m*3 14.8 C 0 km/h
834 15-09-2010 22:49:02 14.9 C 5.74 g/m*3 14.9 C 0 km/h
835 15-09-2010 23:01:02 15 C 5.51 g/m*3 15 C 0 km/h
836 15-09-2010 23:13:02 15 C 5.51 g/m*3 15 C 0 km/h
837 15-09-2010 23:25:02 14.9 C 5.74 g/m*3 14.9 C 0 km/h
838 15-09-2010 23:37:02 14.8 C 5.7 g/m*3 14.8 C 0 km/h
839 15-09-2010 23:49:02 14.6 C 5.76 g/m*3 14.6 C 0 km/h
840 16-09-2010 00:01:02 14.5 C 5.97 g/m*3 14.5 C 0 km/h
841 16-09-2010 00:13:02 14.4 C 5.93 g/m*3 14.4 C 0 km/h
842 16-09-2010 00:25:02 14.2 C 5.86 g/m*3 14.2 C 0 km/h
843 16-09-2010 00:37:02 13.8 C 5.96 g/m*3 13.8 C 0 km/h
844 16-09-2010 00:49:02 14 C 5.79 g/m*3 14 C 0 km/h
845 16-09-2010 01:01:02 14.1 C 5.58 g/m*3 14.1 C 0 km/h
846 16-09-2010 01:13:03 14.2 C 5.49 g/m*3 14.2 C 0 km/h
847 16-09-2010 01:25:03 14.1 C 5.34 g/m*3 14.1 C 0 km/h
848 16-09-2010 01:37:03 14.1 C 5.34 g/m*3 14.1 C 0 km/h
849 16-09-2010 01:49:03 14 C 5.31 g/m*3 14 C 0 km/h
850 16-09-2010 02:01:03 13.9 C 5.51 g/m*3 13.9 C 0 km/h
Sensor: Nr:Datum:Temp:Abs-Feuchte:Windchill:Wind:
Aussen-T/F 851 16-09-2010 02:13:03 14.1 C 5.58 g/m*3 14.1 C 0 km/h
852 16-09-2010 02:25:03 14 C 5.79 g/m*3 14 C 0 km/h
853 16-09-2010 02:37:03 13.7 C 5.92 g/m*3 13.7 C 0 km/h
854 16-09-2010 02:49:03 14 C 6.15 g/m*3 14 C 0 km/h
855 16-09-2010 03:01:03 13.9 C 6.35 g/m*3 13.9 C 0 km/h
856 16-09-2010 03:13:03 13.9 C 6.59 g/m*3 13.9 C 0 km/h
857 16-09-2010 03:25:03 13.9 C 6.71 g/m*3 13.9 C 0 km/h
858 16-09-2010 03:37:03 13.8 C 6.79 g/m*3 13.8 C 0 km/h
859 16-09-2010 03:49:03 13.7 C 7.1 g/m*3 13.7 C 0 km/h
860 16-09-2010 04:01:03 13.2 C 7.12 g/m*3 13.2 C 0 km/h
861 16-09-2010 04:13:03 13.6 C 6.94 g/m*3 13.6 C 0 km/h
862 16-09-2010 04:25:03 13.7 C 6.87 g/m*3 13.7 C 0 km/h
863 16-09-2010 04:37:03 13.7 C 6.99 g/m*3 13.7 C 0 km/h
864 16-09-2010 04:49:03 13.7 C 6.99 g/m*3 13.7 C 0 km/h
865 16-09-2010 05:01:03 13.7 C 6.99 g/m*3 13.7 C 0 km/h
866 16-09-2010 05:13:03 13.6 C 7.06 g/m*3 13.6 C 0 km/h
867 16-09-2010 05:25:04 13.2 C 7.35 g/m*3 13.2 C 0 km/h
868 16-09-2010 05:37:04 13.1 C 7.42 g/m*3 13.1 C 0 km/h
869 16-09-2010 05:49:04 13.2 C 7.46 g/m*3 13.2 C 0 km/h
870 16-09-2010 06:01:04 13.1 C 7.65 g/m*3 13.1 C 0 km/h
871 16-09-2010 06:13:04 12.6 C 7.97 g/m*3 12.6 C 0 km/h
872 16-09-2010 06:25:04 12.5 C 8.03 g/m*3 12.5 C 0 km/h
873 16-09-2010 06:37:04 12.1 C 8.26 g/m*3 12.1 C 0 km/h
874 16-09-2010 06:49:04 11.9 C 8.47 g/m*3 11.9 C 0 km/h
875 16-09-2010 07:01:04 11.9 C 8.47 g/m*3 11.9 C 0 km/h
Sensor: Nr:Datum:Temp:Abs-Feuchte:Windchill:Wind:
Aussen-T/F 876 16-09-2010 07:13:04 11.9 C 8.58 g/m*3 11.9 C 0 km/h
877 16-09-2010 07:25:04 11.9 C 8.79 g/m*3 11.9 C 0 km/h
878 16-09-2010 07:37:04 11.6 C 8.73 g/m*3 11.6 C 0 km/h
879 16-09-2010 07:49:04 11.6 C 8.83 g/m*3 11.6 C 0 km/h
880 16-09-2010 08:01:02 11.6 C 8.83 g/m*3 11.6 C 0 km/h
881 16-09-2010 08:13:02 11.7 C 8.79 g/m*3 11.7 C 0 km/h
882 16-09-2010 08:25:02 12 C 8.85 g/m*3 12 C 0 km/h
883 16-09-2010 08:37:02 12 C 8.85 g/m*3 12 C 0 km/h
884 16-09-2010 08:49:02 12 C 8.85 g/m*3 12 C 0 km/h
885 16-09-2010 09:01:02 12 C 8.95 g/m*3 12 C 0 km/h
886 16-09-2010 09:13:02 12.1 C 9.01 g/m*3 12.1 C 0 km/h
887 16-09-2010 09:25:01 12.6 C 9.29 g/m*3 12.6 C 0 km/h
888 16-09-2010 09:37:02 13 C 9.41 g/m*3 13 C 0 km/h
889 16-09-2010 09:49:02 13.5 C 9.59 g/m*3 13.5 C 0 km/h
890 16-09-2010 10:01:02 13.7 C 9.12 g/m*3 13.7 C 0 km/h
891 16-09-2010 10:13:02 14 C 8.68 g/m*3 14 C 0 km/h
892 16-09-2010 10:25:02 14 C 8.56 g/m*3 14 C 0 km/h
893 16-09-2010 10:37:02 14.3 C 8.35 g/m*3 14.3 C 0 km/h
894 16-09-2010 10:49:02 14.6 C 8.51 g/m*3 14.6 C 0 km/h
895 16-09-2010 11:01:02 15.2 C 8.18 g/m*3 15.2 C 0 km/h
896 16-09-2010 11:13:02 15 C 8.08 g/m*3 15 C 0 km/h
897 16-09-2010 11:25:02 15.2 C 8.44 g/m*3 15.2 C 0 km/h
898 16-09-2010 11:37:02 15.1 C 8.26 g/m*3 15.1 C 0 km/h
899 16-09-2010 11:49:01 15.8 C 8.21 g/m*3 15.8 C 0 km/h
900 16-09-2010 12:01:02 16.4 C 7.82 g/m*3 16.4 C 0 km/h
Sensor: Nr:Datum:Temp:Abs-Feuchte:Windchill:Wind:
Aussen-T/F 901 16-09-2010 12:13:02 16.7 C 7.82 g/m*3 16.7 C 0 km/h
902 16-09-2010 12:25:02 17.2 C 7.61 g/m*3 17.2 C 0 km/h
903 16-09-2010 12:37:02 17.1 C 7.42 g/m*3 17.1 C 0 km/h
904 16-09-2010 12:49:02 17.7 C 7.69 g/m*3 17.7 C 0 km/h
905 16-09-2010 13:01:01 17.7 C 7.09 g/m*3 17.7 C 0 km/h
906 16-09-2010 13:13:01 17.9 C 7.02 g/m*3 17.9 C 0 km/h
907 16-09-2010 13:25:02 17.4 C 6.97 g/m*3 17.4 C 0 km/h
908 16-09-2010 13:37:01 16.9 C 7.34 g/m*3 16.9 C 0 km/h
909 16-09-2010 13:49:01 16.7 C 7.39 g/m*3 16.7 C 0 km/h
910 16-09-2010 14:01:01 17 C 7.23 g/m*3 17 C 0 km/h
911 16-09-2010 14:13:01 16 C 7.36 g/m*3 16 C 0 km/h
912 16-09-2010 14:25:01 14 C 8.81 g/m*3 14 C 0 km/h
913 16-09-2010 14:37:02 14.2 C 9.52 g/m*3 14.2 C 0 km/h
914 16-09-2010 14:49:02 15.2 C 10.25 g/m*3 15.2 C 0 km/h
915 16-09-2010 15:01:02 15.9 C 10.29 g/m*3 15.9 C 0 km/h
916 16-09-2010 15:13:02 16.8 C 9.44 g/m*3 16.8 C 0 km/h
917 16-09-2010 15:25:01 17 C 8.97 g/m*3 17 C 0 km/h
918 16-09-2010 15:37:02 18.5 C 9.02 g/m*3 18.5 C 0 km/h
919 16-09-2010 15:49:02 17.9 C 7.79 g/m*3 17.9 C 0 km/h
920 16-09-2010 16:01:02 18.3 C 7.82 g/m*3 18.3 C 0 km/h
921 16-09-2010 16:13:03 17.4 C 7.56 g/m*3 17.4 C 0 km/h
922 16-09-2010 16:25:01 16.6 C 8.05 g/m*3 16.6 C 0 km/h
923 16-09-2010 16:37:02 15 C 8.85 g/m*3 15 C 0 km/h
924 16-09-2010 16:49:02 14.5 C 9.7 g/m*3 14.5 C 0 km/h
925 16-09-2010 17:01:02 14.5 C 9.83 g/m*3 14.5 C 0 km/h
Sensor: Nr:Datum:Temp:Abs-Feuchte:Windchill:Wind:
Aussen-T/F 926 16-09-2010 17:13:02 15.1 C 10.06 g/m*3 15.1 C 0 km/h
927 16-09-2010 17:25:02 15.5 C 9.65 g/m*3 15.5 C 0 km/h
928 16-09-2010 17:37:02 15.2 C 9.22 g/m*3 15.2 C 0 km/h
929 16-09-2010 17:49:02 16.2 C 8.69 g/m*3 16.2 C 0 km/h
930 16-09-2010 18:01:02 15.3 C 8.88 g/m*3 15.3 C 0 km/h
931 16-09-2010 18:13:02 15 C 8.72 g/m*3 15 C 0 km/h
932 16-09-2010 18:25:02 15 C 8.85 g/m*3 15 C 0 km/h
933 16-09-2010 18:37:01 14.8 C 8.99 g/m*3 14.8 C 0 km/h
934 16-09-2010 18:49:02 14.4 C 9.27 g/m*3 14.4 C 0 km/h
935 16-09-2010 19:01:01 13.8 C 9.41 g/m*3 13.8 C 0 km/h
936 16-09-2010 19:13:01 13.5 C 9.59 g/m*3 13.5 C 0 km/h
937 16-09-2010 19:25:02 13.4 C 9.76 g/m*3 13.4 C 0 km/h
938 16-09-2010 19:37:02 13.3 C 9.82 g/m*3 13.3 C 0 km/h
939 16-09-2010 19:49:02 13.1 C 9.81 g/m*3 13.1 C 0 km/h
940 16-09-2010 20:01:02 13 C 9.87 g/m*3 13 C 0 km/h
941 16-09-2010 20:13:02 13 C 9.98 g/m*3 13 C 0 km/h
942 16-09-2010 20:25:02 12.8 C 10.08 g/m*3 12.8 C 0 km/h
943 16-09-2010 20:37:02 12.7 C 10.02 g/m*3 12.7 C 0 km/h
944 16-09-2010 20:49:02 12.7 C 10.13 g/m*3 12.7 C 0 km/h
945 16-09-2010 21:01:02 12.6 C 10.07 g/m*3 12.6 C 0 km/h
946 16-09-2010 21:13:02 12.7 C 10.13 g/m*3 12.7 C 0 km/h
947 16-09-2010 21:25:01 12.7 C 10.13 g/m*3 12.7 C 0 km/h
948 16-09-2010 21:37:02 12.6 C 10.07 g/m*3 12.6 C 0 km/h
949 16-09-2010 21:49:02 12.5 C 10 g/m*3 12.5 C 0 km/h
950 16-09-2010 22:01:02 12.2 C 9.71 g/m*3 12.2 C 0 km/h
Sensor: Nr:Datum:Temp:Abs-Feuchte:Windchill:Wind:
Aussen-T/F 951 16-09-2010 22:13:02 12.2 C 9.6 g/m*3 12.2 C 0 km/h
952 16-09-2010 22:25:02 12.2 C 9.6 g/m*3 12.2 C 0 km/h
953 16-09-2010 22:38:02 12.2 C 9.5 g/m*3 12.2 C 0 km/h
954 16-09-2010 22:50:02 12.2 C 9.5 g/m*3 12.2 C 0 km/h
955 16-09-2010 23:02:02 12.2 C 9.5 g/m*3 12.2 C 0 km/h
956 16-09-2010 23:14:02 12.1 C 9.33 g/m*3 12.1 C 0 km/h
957 16-09-2010 23:26:02 12.1 C 9.22 g/m*3 12.1 C 0 km/h
958 16-09-2010 23:38:02 12.1 C 9.22 g/m*3 12.1 C 0 km/h
959 16-09-2010 23:50:02 12 C 9.17 g/m*3 12 C 0 km/h
960 17-09-2010 00:02:02 12.1 C 9.12 g/m*3 12.1 C 0 km/h
961 17-09-2010 00:14:02 12.1 C 9.22 g/m*3 12.1 C 0 km/h
962 17-09-2010 00:26:02 12.2 C 9.28 g/m*3 12.2 C 0 km/h
963 17-09-2010 00:38:02 12.2 C 9.28 g/m*3 12.2 C 0 km/h
964 17-09-2010 00:50:02 12.2 C 9.28 g/m*3 12.2 C 0 km/h
965 17-09-2010 01:02:02 12.1 C 9.22 g/m*3 12.1 C 0 km/h
966 17-09-2010 01:14:03 12.1 C 9.22 g/m*3 12.1 C 0 km/h
967 17-09-2010 01:26:03 12.1 C 9.33 g/m*3 12.1 C 0 km/h
968 17-09-2010 01:38:03 12 C 9.27 g/m*3 12 C 0 km/h
969 17-09-2010 01:50:03 12 C 9.27 g/m*3 12 C 0 km/h
970 17-09-2010 02:02:03 11.9 C 9.32 g/m*3 11.9 C 0 km/h
971 17-09-2010 02:14:03 11.9 C 9.32 g/m*3 11.9 C 0 km/h
972 17-09-2010 02:26:03 12 C 9.38 g/m*3 12 C 0 km/h
973 17-09-2010 02:38:03 12 C 9.27 g/m*3 12 C 0 km/h
974 17-09-2010 02:50:03 12 C 9.17 g/m*3 12 C 0 km/h
975 17-09-2010 03:02:03 12.1 C 9.01 g/m*3 12.1 C 0 km/h
Sensor: Nr:Datum:Temp:Abs-Feuchte:Windchill:Wind:
Aussen-T/F 976 17-09-2010 03:14:03 12.1 C 8.9 g/m*3 12.1 C 0 km/h
977 17-09-2010 03:26:03 12.1 C 8.9 g/m*3 12.1 C 0 km/h
978 17-09-2010 03:38:03 12 C 8.95 g/m*3 12 C 0 km/h
979 17-09-2010 03:50:03 12 C 8.95 g/m*3 12 C 0 km/h
980 17-09-2010 04:02:03 12 C 9.06 g/m*3 12 C 0 km/h
981 17-09-2010 04:14:03 11.9 C 8.9 g/m*3 11.9 C 0 km/h
982 17-09-2010 04:26:03 12 C 8.85 g/m*3 12 C 0 km/h
983 17-09-2010 04:38:03 11.8 C 8.63 g/m*3 11.8 C 0 km/h
984 17-09-2010 04:50:03 12 C 8.21 g/m*3 12 C 0 km/h
985 17-09-2010 05:02:03 11.9 C 8.15 g/m*3 11.9 C 0 km/h
986 17-09-2010 05:14:03 11.5 C 8.16 g/m*3 11.5 C 0 km/h
987 17-09-2010 05:26:04 11.1 C 8.16 g/m*3 11.1 C 0 km/h
988 17-09-2010 05:38:04 10.8 C 8.3 g/m*3 10.8 C 0 km/h
989 17-09-2010 05:50:04 10.7 C 8.35 g/m*3 10.7 C 0 km/h
990 17-09-2010 06:02:04 10.5 C 8.34 g/m*3 10.5 C 0 km/h
991 17-09-2010 06:14:04 10.5 C 8.44 g/m*3 10.5 C 0 km/h
992 17-09-2010 06:26:04 10.7 C 8.74 g/m*3 10.7 C 0 km/h
993 17-09-2010 06:38:04 10.8 C 8.8 g/m*3 10.8 C 0 km/h
994 17-09-2010 06:50:04 10.5 C 8.63 g/m*3 10.5 C 0 km/h
995 17-09-2010 07:02:02 10.2 C 8.37 g/m*3 10.2 C 0 km/h
996 17-09-2010 07:14:02 10 C 8.27 g/m*3 10 C 0 km/h
997 17-09-2010 07:26:02 9.9 C 8.31 g/m*3 9.9 C 0 km/h
998 17-09-2010 07:38:01 10 C 7.99 g/m*3 10 C 0 km/h
999 17-09-2010 07:50:02 10 C 7.8 g/m*3 10 C 0 km/h
1000 17-09-2010 08:02:01 9.9 C 7.84 g/m*3 9.9 C 0 km/h
Sensor: Nr:Datum:Temp:Abs-Feuchte:Windchill:Wind:
Aussen-T/F 1001 17-09-2010 08:14:01 10 C 7.8 g/m*3 10 C 0 km/h
1002 17-09-2010 08:26:01 10.1 C 7.66 g/m*3 10.1 C 0 km/h
1003 17-09-2010 08:38:01 10.3 C 7.57 g/m*3 10.3 C 0 km/h
1004 17-09-2010 08:50:01 10.8 C 7.41 g/m*3 10.8 C 0 km/h
1005 17-09-2010 09:02:01 10.8 C 7.31 g/m*3 10.8 C 0 km/h
1006 17-09-2010 09:14:01 10.7 C 7.27 g/m*3 10.7 C 0 km/h
1007 17-09-2010 09:26:02 10.8 C 7.31 g/m*3 10.8 C 0 km/h
1008 17-09-2010 09:38:01 10.9 C 7.26 g/m*3 10.9 C 0 km/h
1009 17-09-2010 09:50:02 11.1 C 7.25 g/m*3 11.1 C 0 km/h
1010 17-09-2010 10:02:02 11.4 C 7.39 g/m*3 11.4 C 0 km/h
1011 17-09-2010 10:14:02 11.7 C 7.53 g/m*3 11.7 C 0 km/h
1012 17-09-2010 10:26:02 12.1 C 7.61 g/m*3 12.1 C 0 km/h
1013 17-09-2010 10:38:01 12.4 C 7.54 g/m*3 12.4 C 0 km/h
1014 17-09-2010 10:50:02 12.7 C 7.68 g/m*3 12.7 C 0 km/h
1015 17-09-2010 11:02:01 13.1 C 7.65 g/m*3 13.1 C 0 km/h
1016 17-09-2010 11:14:01 13.3 C 7.63 g/m*3 13.3 C 0 km/h
1017 17-09-2010 11:26:01 13.8 C 7.74 g/m*3 13.8 C 0 km/h
1018 17-09-2010 11:38:02 14.1 C 7.4 g/m*3 14.1 C 0 km/h
1019 17-09-2010 11:50:02 14.3 C 7.37 g/m*3 14.3 C 0 km/h
1020 17-09-2010 12:02:02 15.2 C 7.01 g/m*3 15.2 C 0 km/h
1021 17-09-2010 12:14:02 15.2 C 6.62 g/m*3 15.2 C 0 km/h
1022 17-09-2010 12:26:02 15.7 C 6.42 g/m*3 15.7 C 0 km/h
1023 17-09-2010 12:38:02 16.2 C 6.62 g/m*3 16.2 C 0 km/h
1024 17-09-2010 12:50:02 16.2 C 6.21 g/m*3 16.2 C 0 km/h
1025 17-09-2010 13:02:02 15.9 C 6.23 g/m*3 15.9 C 0 km/h
Sensor: Nr:Datum:Temp:Abs-Feuchte:Windchill:Wind:
Aussen-T/F 1026 17-09-2010 13:14:02 16.2 C 5.93 g/m*3 16.2 C 0 km/h
1027 17-09-2010 13:26:02 16.3 C 5.83 g/m*3 16.3 C 0 km/h
1028 17-09-2010 13:38:02 17 C 5.79 g/m*3 17 C 0 km/h
1029 17-09-2010 13:50:02 17.9 C 5.65 g/m*3 17.9 C 0 km/h
1030 17-09-2010 14:02:02 18.5 C 5.54 g/m*3 18.5 C 0 km/h
1031 17-09-2010 14:14:02 17.1 C 5.24 g/m*3 17.1 C 0 km/h
1032 17-09-2010 14:26:02 16.8 C 5.29 g/m*3 16.8 C 0 km/h
1033 17-09-2010 14:38:02 17.4 C 5.34 g/m*3 17.4 C 0 km/h
1034 17-09-2010 14:50:02 18.3 C 5 g/m*3 18.3 C 0 km/h
1035 17-09-2010 15:02:02 18.6 C 4.93 g/m*3 18.6 C 0 km/h
1036 17-09-2010 15:14:02 18.2 C 4.97 g/m*3 18.2 C 0 km/h
1037 17-09-2010 15:26:02 17.2 C 5.13 g/m*3 17.2 C 0 km/h
1038 17-09-2010 15:38:02 16.6 C 5.09 g/m*3 16.6 C 0 km/h
1039 17-09-2010 15:50:02 16.8 C 5.15 g/m*3 16.8 C 0 km/h
1040 17-09-2010 16:02:02 18.4 C 5.19 g/m*3 18.4 C 0 km/h
1041 17-09-2010 16:14:02 18.9 C 5.02 g/m*3 18.9 C 0 km/h
1042 17-09-2010 16:26:02 19.3 C 4.81 g/m*3 19.3 C 0 km/h
1043 17-09-2010 16:38:01 18.9 C 4.86 g/m*3 18.9 C 0 km/h
1044 17-09-2010 16:50:02 19.8 C 4.78 g/m*3 19.8 C 0 km/h
1045 17-09-2010 17:02:01 20.1 C 4.69 g/m*3 20.1 C 0 km/h
1046 17-09-2010 17:14:01 19.7 C 4.25 g/m*3 19.7 C 0 km/h
1047 17-09-2010 17:26:01 18.8 C 4.35 g/m*3 18.8 C 0 km/h
1048 17-09-2010 17:38:02 19.3 C 4.31 g/m*3 19.3 C 0 km/h
1049 17-09-2010 17:50:02 19.4 C 4.67 g/m*3 19.4 C 0 km/h
1050 17-09-2010 18:02:02 17.5 C 5.22 g/m*3 17.5 C 0 km/h
Sensor: Nr:Datum:Temp:Abs-Feuchte:Windchill:Wind:
Aussen-T/F 1051 17-09-2010 18:14:02 16 C 5.99 g/m*3 16 C 0 km/h
1052 17-09-2010 18:26:02 17.2 C 6.3 g/m*3 17.2 C 0 km/h
1053 17-09-2010 18:38:02 16.3 C 6.24 g/m*3 16.3 C 0 km/h
1054 17-09-2010 18:50:01 16.3 C 6.66 g/m*3 16.3 C 0 km/h
1055 17-09-2010 19:02:01 16.3 C 6.66 g/m*3 16.3 C 0 km/h
1056 17-09-2010 19:14:02 15.7 C 6.56 g/m*3 15.7 C 0 km/h
1057 17-09-2010 19:26:01 15 C 6.54 g/m*3 15 C 0 km/h
1058 17-09-2010 19:38:01 14.7 C 6.8 g/m*3 14.7 C 0 km/h
1059 17-09-2010 19:50:02 14.5 C 6.84 g/m*3 14.5 C 0 km/h
1060 17-09-2010 20:02:02 14.5 C 6.96 g/m*3 14.5 C 0 km/h
1061 17-09-2010 20:14:02 14.5 C 6.96 g/m*3 14.5 C 0 km/h
1062 17-09-2010 20:26:02 14.5 C 7.09 g/m*3 14.5 C 0 km/h
1063 17-09-2010 20:38:02 14.1 C 7.28 g/m*3 14.1 C 0 km/h
1064 17-09-2010 20:50:01 13.7 C 6.99 g/m*3 13.7 C 0 km/h
1065 17-09-2010 21:02:02 13.7 C 7.22 g/m*3 13.7 C 0 km/h
1066 17-09-2010 21:14:02 13.5 C 7.13 g/m*3 13.5 C 0 km/h
1067 17-09-2010 21:26:01 13.4 C 7.09 g/m*3 13.4 C 0 km/h
1068 17-09-2010 21:38:01 13.4 C 7.09 g/m*3 13.4 C 0 km/h
1069 17-09-2010 21:50:01 13.4 C 7.21 g/m*3 13.4 C 0 km/h
1070 17-09-2010 22:02:01 13.6 C 6.94 g/m*3 13.6 C 0 km/h
1071 17-09-2010 22:14:01 13.6 C 6.71 g/m*3 13.6 C 0 km/h
1072 17-09-2010 22:26:02 13.4 C 6.63 g/m*3 13.4 C 0 km/h
1073 17-09-2010 22:39:36 13.1 C 6.62 g/m*3 13.1 C 0 km/h
1074 17-09-2010 22:51:37 13 C 6.69 g/m*3 13 C 0 km/h
1075 17-09-2010 23:03:37 12.8 C 6.72 g/m*3 12.8 C 0 km/h
Sensor: Nr:Datum:Temp:Abs-Feuchte:Windchill:Wind:
Aussen-T/F 1076 17-09-2010 23:15:37 12.6 C 6.75 g/m*3 12.6 C 0 km/h
1077 17-09-2010 23:27:37 12.6 C 6.86 g/m*3 12.6 C 0 km/h
1078 17-09-2010 23:39:37 12.5 C 6.82 g/m*3 12.5 C 0 km/h
1079 17-09-2010 23:51:37 12.4 C 6.88 g/m*3 12.4 C 0 km/h
1080 18-09-2010 00:03:37 12.2 C 6.8 g/m*3 12.2 C 0 km/h
1081 18-09-2010 00:15:37 12.3 C 6.95 g/m*3 12.3 C 0 km/h
1082 18-09-2010 00:27:37 12 C 6.82 g/m*3 12 C 0 km/h
1083 18-09-2010 00:39:37 12 C 7.03 g/m*3 12 C 0 km/h
1084 18-09-2010 00:51:37 12.1 C 7.08 g/m*3 12.1 C 0 km/h
1085 18-09-2010 01:03:37 11.9 C 7.2 g/m*3 11.9 C 0 km/h
1086 18-09-2010 01:15:37 11.2 C 6.99 g/m*3 11.2 C 0 km/h
1087 18-09-2010 01:27:37 10.8 C 7.02 g/m*3 10.8 C 0 km/h
1088 18-09-2010 01:39:37 10.4 C 6.94 g/m*3 10.4 C 0 km/h
1089 18-09-2010 01:51:37 10.2 C 6.85 g/m*3 10.2 C 0 km/h
1090 18-09-2010 02:03:37 10.2 C 6.95 g/m*3 10.2 C 0 km/h
1091 18-09-2010 02:15:37 10 C 7.05 g/m*3 10 C 0 km/h
1092 18-09-2010 02:27:37 10 C 7.24 g/m*3 10 C 0 km/h
1093 18-09-2010 02:39:37 9.8 C 7.33 g/m*3 9.8 C 0 km/h
1094 18-09-2010 02:51:37 10 C 7.42 g/m*3 10 C 0 km/h
1095 18-09-2010 03:03:38 9.9 C 7.47 g/m*3 9.9 C 0 km/h
1096 18-09-2010 03:15:38 9.5 C 7.28 g/m*3 9.5 C 0 km/h
1097 18-09-2010 03:27:38 9.4 C 7.33 g/m*3 9.4 C 0 km/h
1098 18-09-2010 03:39:38 9.1 C 7.19 g/m*3 9.1 C 0 km/h
1099 18-09-2010 03:51:38 9 C 7.23 g/m*3 9 C 0 km/h
1100 18-09-2010 04:03:38 8.9 C 7.36 g/m*3 8.9 C 0 km/h
Sensor: Nr:Datum:Temp:Abs-Feuchte:Windchill:Wind:
Aussen-T/F 1101 18-09-2010 04:15:38 8.7 C 7.26 g/m*3 8.7 C 0 km/h
1102 18-09-2010 04:27:38 8.5 C 7.17 g/m*3 8.5 C 0 km/h
1103 18-09-2010 04:39:38 8.4 C 7.13 g/m*3 8.4 C 0 km/h
1104 18-09-2010 04:51:38 8.2 C 7.03 g/m*3 8.2 C 0 km/h
1105 18-09-2010 05:03:38 8.2 C 7.12 g/m*3 8.2 C 0 km/h
1106 18-09-2010 05:15:38 8.1 C 7.16 g/m*3 8.1 C 0 km/h
1107 18-09-2010 05:27:38 7.9 C 7.23 g/m*3 7.9 C 0 km/h
1108 18-09-2010 05:39:38 7.7 C 7.14 g/m*3 7.7 C 0 km/h
1109 18-09-2010 05:51:38 7.8 C 7.26 g/m*3 7.8 C 0 km/h
1110 18-09-2010 06:03:38 7.8 C 7.35 g/m*3 7.8 C 0 km/h
1111 18-09-2010 06:15:38 7.5 C 7.28 g/m*3 7.5 C 0 km/h
1112 18-09-2010 06:27:38 7.5 C 7.28 g/m*3 7.5 C 0 km/h
1113 18-09-2010 06:39:38 7.6 C 7.41 g/m*3 7.6 C 0 km/h
1114 18-09-2010 06:51:38 7.7 C 7.46 g/m*3 7.7 C 0 km/h
1115 18-09-2010 07:03:39 7.7 C 7.46 g/m*3 7.7 C 0 km/h
1116 18-09-2010 07:15:39 7.6 C 7.33 g/m*3 7.6 C 0 km/h
1117 18-09-2010 07:27:39 7.5 C 7.28 g/m*3 7.5 C 0 km/h
1118 18-09-2010 07:39:39 7.3 C 7.19 g/m*3 7.3 C 0 km/h
1119 18-09-2010 07:51:39 7.4 C 7.24 g/m*3 7.4 C 0 km/h
1120 18-09-2010 08:03:02 7.3 C 7.11 g/m*3 7.3 C 0 km/h
1121 18-09-2010 08:15:03 7.4 C 7.16 g/m*3 7.4 C 0 km/h
1122 18-09-2010 08:27:03 7.5 C 7.28 g/m*3 7.5 C 0 km/h
1123 18-09-2010 08:39:02 7.5 C 7.28 g/m*3 7.5 C 0 km/h
1124 18-09-2010 08:51:02 7.6 C 7.33 g/m*3 7.6 C 0 km/h
1125 18-09-2010 09:03:02 7.7 C 7.38 g/m*3 7.7 C 0 km/h
Sensor: Nr:Datum:Temp:Abs-Feuchte:Windchill:Wind:
Aussen-T/F 1126 18-09-2010 09:15:02 7.8 C 7.43 g/m*3 7.8 C 0 km/h
1127 18-09-2010 09:27:02 8 C 7.44 g/m*3 8 C 0 km/h
1128 18-09-2010 09:39:02 8.2 C 7.54 g/m*3 8.2 C 0 km/h
1129 18-09-2010 09:51:02 8.9 C 7.97 g/m*3 8.9 C 0 km/h
1130 18-09-2010 10:03:02 9.3 C 8.09 g/m*3 9.3 C 0 km/h
1131 18-09-2010 10:15:02 9.5 C 8.1 g/m*3 9.5 C 0 km/h
1132 18-09-2010 10:27:03 9.8 C 8.07 g/m*3 9.8 C 0 km/h
1133 18-09-2010 10:39:01 10.7 C 8.25 g/m*3 10.7 C 0 km/h
1134 18-09-2010 10:51:02 11.7 C 8.37 g/m*3 11.7 C 0 km/h
1135 18-09-2010 11:03:02 12.2 C 6.91 g/m*3 12.2 C 0 km/h
1136 18-09-2010 11:15:02 13 C 6.8 g/m*3 13 C 0 km/h
1137 18-09-2010 11:27:02 13.6 C 6.59 g/m*3 13.6 C 0 km/h
1138 18-09-2010 11:39:02 14 C 6.39 g/m*3 14 C 0 km/h
1139 18-09-2010 11:51:01 14.5 C 6.47 g/m*3 14.5 C 0 km/h
1140 18-09-2010 12:03:02 14.6 C 6.13 g/m*3 14.6 C 0 km/h
1141 18-09-2010 12:15:01 15.7 C 6.15 g/m*3 15.7 C 0 km/h
1142 18-09-2010 12:27:01 15.1 C 5.42 g/m*3 15.1 C 0 km/h
1143 18-09-2010 12:39:01 15.4 C 6.04 g/m*3 15.4 C 0 km/h
1144 18-09-2010 12:51:01 14.9 C 5.86 g/m*3 14.9 C 0 km/h
1145 18-09-2010 13:03:02 14.9 C 5.86 g/m*3 14.9 C 0 km/h
1146 18-09-2010 13:15:01 15.3 C 5.48 g/m*3 15.3 C 0 km/h
1147 18-09-2010 13:27:01 15.6 C 5.32 g/m*3 15.6 C 0 km/h
1148 18-09-2010 13:39:01 15.8 C 5.25 g/m*3 15.8 C 0 km/h
1149 18-09-2010 13:51:01 16.4 C 5.16 g/m*3 16.4 C 0 km/h
1150 18-09-2010 14:03:01 16.2 C 4.96 g/m*3 16.2 C 0 km/h
Sensor: Nr:Datum:Temp:Abs-Feuchte:Windchill:Wind:
Aussen-T/F 1151 18-09-2010 14:15:02 15.4 C 4.73 g/m*3 15.4 C 0 km/h
1152 18-09-2010 14:27:02 14.7 C 4.66 g/m*3 14.7 C 0 km/h
1153 18-09-2010 14:39:01 14.9 C 4.72 g/m*3 14.9 C 0 km/h
1154 18-09-2010 14:51:02 15.1 C 4.77 g/m*3 15.1 C 0 km/h
1155 18-09-2010 15:03:02 15.4 C 4.6 g/m*3 15.4 C 0 km/h
1156 18-09-2010 15:15:02 16.1 C 4.52 g/m*3 16.1 C 0 km/h
1157 18-09-2010 15:27:02 15.9 C 4.74 g/m*3 15.9 C 0 km/h
1158 18-09-2010 15:39:02 17.3 C 4.57 g/m*3 17.3 C 0 km/h
1159 18-09-2010 15:51:02 16.8 C 4.43 g/m*3 16.8 C 0 km/h
1160 18-09-2010 16:03:01 16.4 C 4.75 g/m*3 16.4 C 0 km/h
1161 18-09-2010 16:15:02 16.2 C 4.55 g/m*3 16.2 C 0 km/h
1162 18-09-2010 16:27:03 16.1 C 4.66 g/m*3 16.1 C 0 km/h
1163 18-09-2010 16:39:01 16.1 C 4.8 g/m*3 16.1 C 0 km/h
1164 18-09-2010 16:51:02 16.3 C 5.55 g/m*3 16.3 C 0 km/h
1165 18-09-2010 17:03:02 16.3 C 4.99 g/m*3 16.3 C 0 km/h
1166 18-09-2010 17:15:02 16.4 C 6.14 g/m*3 16.4 C 0 km/h
1167 18-09-2010 17:27:02 16.3 C 5.41 g/m*3 16.3 C 0 km/h
1168 18-09-2010 17:39:02 15.6 C 6.12 g/m*3 15.6 C 0 km/h
1169 18-09-2010 17:51:01 14.7 C 5.92 g/m*3 14.7 C 0 km/h
1170 18-09-2010 18:03:02 14.5 C 6.09 g/m*3 14.5 C 0 km/h
1171 18-09-2010 18:15:01 15.6 C 5.98 g/m*3 15.6 C 0 km/h
1172 18-09-2010 18:27:01 16.2 C 5.93 g/m*3 16.2 C 0 km/h
1173 18-09-2010 18:39:01 16.2 C 6.07 g/m*3 16.2 C 0 km/h
1174 18-09-2010 18:51:01 15.8 C 6.19 g/m*3 15.8 C 0 km/h
1175 18-09-2010 19:03:02 15.2 C 6.1 g/m*3 15.2 C 0 km/h
Sensor: Nr:Datum:Temp:Abs-Feuchte:Windchill:Wind:
Aussen-T/F 1176 18-09-2010 19:15:01 14 C 5.91 g/m*3 14 C 0 km/h
1177 18-09-2010 19:27:01 13 C 6.12 g/m*3 13 C 0 km/h
1178 18-09-2010 19:39:01 12.2 C 6.04 g/m*3 12.2 C 0 km/h
1179 18-09-2010 19:51:01 11.9 C 6.14 g/m*3 11.9 C 0 km/h
1180 18-09-2010 20:03:02 11.4 C 6.36 g/m*3 11.4 C 0 km/h
1181 18-09-2010 20:15:02 11.2 C 6.39 g/m*3 11.2 C 0 km/h
1182 18-09-2010 20:27:02 11.1 C 6.75 g/m*3 11.1 C 0 km/h
1183 18-09-2010 20:39:01 10.9 C 6.76 g/m*3 10.9 C 0 km/h
1184 18-09-2010 20:51:01 10.8 C 6.72 g/m*3 10.8 C 0 km/h
1185 18-09-2010 21:03:01 10.6 C 6.73 g/m*3 10.6 C 0 km/h
1186 18-09-2010 21:15:02 10.2 C 6.66 g/m*3 10.2 C 0 km/h
1187 18-09-2010 21:27:02 10 C 6.48 g/m*3 10 C 0 km/h
1188 18-09-2010 21:39:01 9.7 C 6.64 g/m*3 9.7 C 0 km/h
1189 18-09-2010 21:51:02 9.6 C 6.6 g/m*3 9.6 C 0 km/h
1190 18-09-2010 22:03:02 9.3 C 6.56 g/m*3 9.3 C 0 km/h
1191 18-09-2010 22:15:02 9.2 C 6.61 g/m*3 9.2 C 0 km/h
1192 18-09-2010 22:27:02 9 C 6.7 g/m*3 9 C 0 km/h
1193 18-09-2010 22:40:03 8.8 C 6.79 g/m*3 8.8 C 0 km/h
1194 18-09-2010 22:52:03 8.6 C 6.79 g/m*3 8.6 C 0 km/h
1195 18-09-2010 23:04:03 8.5 C 6.74 g/m*3 8.5 C 0 km/h
1196 18-09-2010 23:16:03 8.4 C 6.87 g/m*3 8.4 C 0 km/h
1197 18-09-2010 23:28:03 8.2 C 6.78 g/m*3 8.2 C 0 km/h
1198 18-09-2010 23:40:03 8 C 6.7 g/m*3 8 C 0 km/h
1199 18-09-2010 23:52:03 7.9 C 6.74 g/m*3 7.9 C 0 km/h
1200 19-09-2010 00:04:03 7.8 C 6.77 g/m*3 7.8 C 0 km/h
Sensor: Nr:Datum:Temp:Abs-Feuchte:Windchill:Wind:
Aussen-T/F 1201 19-09-2010 00:16:03 7.7 C 6.73 g/m*3 7.7 C 0 km/h
1202 19-09-2010 00:28:03 7.6 C 6.77 g/m*3 7.6 C 0 km/h
1203 19-09-2010 00:40:03 7.4 C 6.68 g/m*3 7.4 C 0 km/h
1204 19-09-2010 00:52:03 7.3 C 6.64 g/m*3 7.3 C 0 km/h
1205 19-09-2010 01:04:04 7.1 C 6.47 g/m*3 7.1 C 0 km/h
1206 19-09-2010 01:16:04 7.1 C 6.55 g/m*3 7.1 C 0 km/h
1207 19-09-2010 01:28:04 6.9 C 6.54 g/m*3 6.9 C 0 km/h
1208 19-09-2010 01:40:04 6.8 C 6.58 g/m*3 6.8 C 0 km/h
1209 19-09-2010 01:52:04 6.7 C 6.53 g/m*3 6.7 C 0 km/h
1210 19-09-2010 02:04:04 6.6 C 6.57 g/m*3 6.6 C 0 km/h
1211 19-09-2010 02:16:04 6.4 C 6.48 g/m*3 6.4 C 0 km/h
1212 19-09-2010 02:28:04 6.4 C 6.48 g/m*3 6.4 C 0 km/h
1213 19-09-2010 02:40:04 6.4 C 6.56 g/m*3 6.4 C 0 km/h
1214 19-09-2010 02:52:04 6.4 C 6.56 g/m*3 6.4 C 0 km/h
1215 19-09-2010 03:04:04 6.4 C 6.56 g/m*3 6.4 C 0 km/h
1216 19-09-2010 03:16:04 6.4 C 6.56 g/m*3 6.4 C 0 km/h
1217 19-09-2010 03:28:04 6.4 C 6.56 g/m*3 6.4 C 0 km/h
1218 19-09-2010 03:40:04 6.5 C 6.6 g/m*3 6.5 C 0 km/h
1219 19-09-2010 03:52:04 6.4 C 6.56 g/m*3 6.4 C 0 km/h
1220 19-09-2010 04:04:04 6.3 C 6.51 g/m*3 6.3 C 0 km/h
1221 19-09-2010 04:16:04 6.1 C 6.43 g/m*3 6.1 C 0 km/h
1222 19-09-2010 04:28:04 5.9 C 6.42 g/m*3 5.9 C 0 km/h
1223 19-09-2010 04:40:04 6.2 C 6.47 g/m*3 6.2 C 0 km/h
1224 19-09-2010 04:52:04 6.5 C 6.67 g/m*3 6.5 C 0 km/h
1225 19-09-2010 05:04:05 6.6 C 6.72 g/m*3 6.6 C 0 km/h
Sensor: Nr:Datum:Temp:Abs-Feuchte:Windchill:Wind:
Aussen-T/F 1226 19-09-2010 05:16:05 6.2 C 6.47 g/m*3 6.2 C 0 km/h
1227 19-09-2010 05:28:05 6 C 6.39 g/m*3 6 C 0 km/h
1228 19-09-2010 05:40:05 5.8 C 6.3 g/m*3 5.8 C 0 km/h
1229 19-09-2010 05:52:05 5.6 C 6.22 g/m*3 5.6 C 0 km/h
1230 19-09-2010 06:04:05 5.5 C 6.18 g/m*3 5.5 C 0 km/h
1231 19-09-2010 06:16:05 5.5 C 6.18 g/m*3 5.5 C 0 km/h
1232 19-09-2010 06:28:05 5.7 C 6.33 g/m*3 5.7 C 0 km/h
1233 19-09-2010 06:40:05 6 C 6.46 g/m*3 6 C 0 km/h
1234 19-09-2010 06:52:05 6.1 C 6.5 g/m*3 6.1 C 0 km/h
1235 19-09-2010 07:04:05 6.3 C 6.59 g/m*3 6.3 C 0 km/h
1236 19-09-2010 07:16:05 6.1 C 6.5 g/m*3 6.1 C 0 km/h
1237 19-09-2010 07:28:05 5.8 C 6.38 g/m*3 5.8 C 0 km/h
1238 19-09-2010 07:40:05 5.9 C 6.42 g/m*3 5.9 C 0 km/h
1239 19-09-2010 07:52:05 5.9 C 6.42 g/m*3 5.9 C 0 km/h
1240 19-09-2010 08:04:05 6.2 C 6.47 g/m*3 6.2 C 0 km/h
1241 19-09-2010 08:16:05 6.7 C 6.76 g/m*3 6.7 C 0 km/h
1242 19-09-2010 08:28:05 7.3 C 6.95 g/m*3 7.3 C 0 km/h
1243 19-09-2010 08:40:05 7.4 C 7 g/m*3 7.4 C 0 km/h
1244 19-09-2010 08:52:02 7.2 C 6.75 g/m*3 7.2 C 0 km/h
1245 19-09-2010 09:04:02 7.2 C 6.67 g/m*3 7.2 C 0 km/h
1246 19-09-2010 09:16:02 7.3 C 6.79 g/m*3 7.3 C 0 km/h
1247 19-09-2010 09:28:02 7.7 C 6.97 g/m*3 7.7 C 0 km/h
1248 19-09-2010 09:40:02 8.8 C 7.31 g/m*3 8.8 C 0 km/h
1249 19-09-2010 09:52:01 9.6 C 7.15 g/m*3 9.6 C 0 km/h
1250 19-09-2010 10:04:01 10.2 C 6.76 g/m*3 10.2 C 0 km/h
Sensor: Nr:Datum:Temp:Abs-Feuchte:Windchill:Wind:
Aussen-T/F 1251 19-09-2010 10:16:01 10.9 C 6.86 g/m*3 10.9 C 0 km/h
1252 19-09-2010 10:28:01 10.8 C 6.62 g/m*3 10.8 C 0 km/h
1253 19-09-2010 10:40:01 10.7 C 6.58 g/m*3 10.7 C 0 km/h
1254 19-09-2010 10:52:01 11 C 6.61 g/m*3 11 C 0 km/h
1255 19-09-2010 11:04:01 11.5 C 6.51 g/m*3 11.5 C 0 km/h
1256 19-09-2010 11:16:02 12.2 C 6.58 g/m*3 12.2 C 0 km/h
1257 19-09-2010 11:28:02 13.3 C 6.47 g/m*3 13.3 C 0 km/h
1258 19-09-2010 11:40:01 13.8 C 5.96 g/m*3 13.8 C 0 km/h
1259 19-09-2010 11:52:03 13.8 C 5.72 g/m*3 13.8 C 0 km/h
1260 19-09-2010 12:04:02 13.8 C 5.84 g/m*3 13.8 C 0 km/h
1261 19-09-2010 12:16:02 14.3 C 5.9 g/m*3 14.3 C 0 km/h
1262 19-09-2010 12:28:02 15.2 C 5.84 g/m*3 15.2 C 0 km/h
1263 19-09-2010 12:40:02 15.7 C 5.35 g/m*3 15.7 C 0 km/h
1264 19-09-2010 12:52:02 15.7 C 5.35 g/m*3 15.7 C 0 km/h
1265 19-09-2010 13:04:01 16.2 C 5.52 g/m*3 16.2 C 0 km/h
1266 19-09-2010 13:16:02 16.4 C 5.58 g/m*3 16.4 C 0 km/h
1267 19-09-2010 13:28:02 16.1 C 5.48 g/m*3 16.1 C 0 km/h
1268 19-09-2010 13:40:02 16 C 5.59 g/m*3 16 C 0 km/h
1269 19-09-2010 13:52:01 15.9 C 5.55 g/m*3 15.9 C 0 km/h
1270 19-09-2010 14:04:02 16.5 C 5.62 g/m*3 16.5 C 0 km/h
1271 19-09-2010 14:16:01 17.5 C 5.67 g/m*3 17.5 C 0 km/h
1272 19-09-2010 14:28:01 17.5 C 5.67 g/m*3 17.5 C 0 km/h
1273 19-09-2010 14:40:01 17.5 C 5.67 g/m*3 17.5 C 0 km/h
1274 19-09-2010 14:52:01 17.9 C 5.8 g/m*3 17.9 C 0 km/h
1275 19-09-2010 15:04:02 17.8 C 5.46 g/m*3 17.8 C 0 km/h
Sensor: Nr:Datum:Temp:Abs-Feuchte:Windchill:Wind:
Aussen-T/F 1276 19-09-2010 15:16:01 18.6 C 5.73 g/m*3 18.6 C 0 km/h
1277 19-09-2010 15:28:01 18.4 C 5.66 g/m*3 18.4 C 0 km/h
1278 19-09-2010 15:40:02 19 C 5.38 g/m*3 19 C 0 km/h
1279 19-09-2010 15:52:01 19.3 C 4.98 g/m*3 19.3 C 0 km/h
1280 19-09-2010 16:04:02 18.8 C 5.31 g/m*3 18.8 C 0 km/h
1281 19-09-2010 16:16:01 18.6 C 5.41 g/m*3 18.6 C 0 km/h
1282 19-09-2010 16:28:01 18.8 C 5.31 g/m*3 18.8 C 0 km/h
1283 19-09-2010 16:40:02 19.6 C 5.4 g/m*3 19.6 C 0 km/h
1284 19-09-2010 16:52:01 19.4 C 5.01 g/m*3 19.4 C 0 km/h
1285 19-09-2010 17:04:02 19.8 C 5.3 g/m*3 19.8 C 0 km/h
1286 19-09-2010 17:16:02 19.1 C 5.25 g/m*3 19.1 C 0 km/h
1287 19-09-2010 17:28:02 18.6 C 5.57 g/m*3 18.6 C 0 km/h
1288 19-09-2010 17:40:01 18.4 C 6.29 g/m*3 18.4 C 0 km/h
1289 19-09-2010 17:52:02 18 C 5.99 g/m*3 18 C 0 km/h
1290 19-09-2010 18:04:01 17.6 C 6 g/m*3 17.6 C 0 km/h
1291 19-09-2010 18:16:02 17.2 C 6.3 g/m*3 17.2 C 0 km/h
1292 19-09-2010 18:28:03 17.1 C 5.82 g/m*3 17.1 C 0 km/h
1293 19-09-2010 18:40:01 17 C 6.08 g/m*3 17 C 0 km/h
1294 19-09-2010 18:52:02 16.5 C 5.76 g/m*3 16.5 C 0 km/h
1295 19-09-2010 19:04:02 16.2 C 5.79 g/m*3 16.2 C 0 km/h
1296 19-09-2010 19:16:02 16 C 5.99 g/m*3 16 C 0 km/h
1297 19-09-2010 19:28:02 15.8 C 5.92 g/m*3 15.8 C 0 km/h
1298 19-09-2010 19:40:03 15.6 C 5.98 g/m*3 15.6 C 0 km/h
1299 19-09-2010 19:52:02 15.3 C 6.14 g/m*3 15.3 C 0 km/h
1300 19-09-2010 20:04:02 14.8 C 6.33 g/m*3 14.8 C 0 km/h
Sensor: Nr:Datum:Temp:Abs-Feuchte:Windchill:Wind:
Aussen-T/F 1301 19-09-2010 20:16:02 14.5 C 6.34 g/m*3 14.5 C 0 km/h
1302 19-09-2010 20:28:02 14.3 C 6.27 g/m*3 14.3 C 0 km/h
1303 19-09-2010 20:40:02 14.3 C 6.39 g/m*3 14.3 C 0 km/h
1304 19-09-2010 20:52:02 14.4 C 6.18 g/m*3 14.4 C 0 km/h
1305 19-09-2010 21:04:02 14.4 C 6.43 g/m*3 14.4 C 0 km/h
1306 19-09-2010 21:16:02 14.2 C 6.47 g/m*3 14.2 C 0 km/h
1307 19-09-2010 21:28:02 14 C 6.51 g/m*3 14 C 0 km/h
1308 19-09-2010 21:40:02 13.7 C 6.87 g/m*3 13.7 C 0 km/h
1309 19-09-2010 21:52:03 13.5 C 6.78 g/m*3 13.5 C 0 km/h
1310 19-09-2010 22:04:03 13.4 C 6.74 g/m*3 13.4 C 0 km/h
1311 19-09-2010 22:17:01 13.3 C 6.7 g/m*3 13.3 C 0 km/h
1312 19-09-2010 22:29:01 13.4 C 6.86 g/m*3 13.4 C 0 km/h
1313 19-09-2010 22:41:01 13.3 C 6.82 g/m*3 13.3 C 0 km/h
1314 19-09-2010 22:53:01 13.2 C 6.77 g/m*3 13.2 C 0 km/h
1315 19-09-2010 23:05:01 13 C 6.8 g/m*3 13 C 0 km/h
1316 19-09-2010 23:17:01 12.5 C 6.82 g/m*3 12.5 C 0 km/h
1317 19-09-2010 23:29:01 12.2 C 6.8 g/m*3 12.2 C 0 km/h
1318 19-09-2010 23:41:01 11.9 C 6.67 g/m*3 11.9 C 0 km/h
1319 19-09-2010 23:53:01 11.8 C 6.74 g/m*3 11.8 C 0 km/h
1320 20-09-2010 00:05:01 11.9 C 6.88 g/m*3 11.9 C 0 km/h
1321 20-09-2010 00:17:01 11.9 C 6.99 g/m*3 11.9 C 0 km/h
1322 20-09-2010 00:29:02 11.9 C 6.88 g/m*3 11.9 C 0 km/h
1323 20-09-2010 00:41:02 11.4 C 6.77 g/m*3 11.4 C 0 km/h
1324 20-09-2010 00:53:02 11.3 C 6.83 g/m*3 11.3 C 0 km/h
1325 20-09-2010 01:05:02 10.8 C 6.72 g/m*3 10.8 C 0 km/h
Sensor: Nr:Datum:Temp:Abs-Feuchte:Windchill:Wind:
Aussen-T/F 1326 20-09-2010 01:17:02 10.5 C 6.69 g/m*3 10.5 C 0 km/h
1327 20-09-2010 01:29:02 10.4 C 6.75 g/m*3 10.4 C 0 km/h
1328 20-09-2010 01:41:02 10.2 C 6.85 g/m*3 10.2 C 0 km/h
1329 20-09-2010 01:53:02 10.3 C 6.9 g/m*3 10.3 C 0 km/h
1330 20-09-2010 02:05:02 10.1 C 6.81 g/m*3 10.1 C 0 km/h
1331 20-09-2010 02:17:02 10 C 6.77 g/m*3 10 C 0 km/h
1332 20-09-2010 02:29:02 9.8 C 6.96 g/m*3 9.8 C 0 km/h
1333 20-09-2010 02:41:02 9.6 C 6.87 g/m*3 9.6 C 0 km/h
1334 20-09-2010 02:53:02 9.7 C 7.01 g/m*3 9.7 C 0 km/h
1335 20-09-2010 03:05:02 9.8 C 6.96 g/m*3 9.8 C 0 km/h
1336 20-09-2010 03:17:02 9.6 C 6.96 g/m*3 9.6 C 0 km/h
1337 20-09-2010 03:29:02 9.7 C 7.1 g/m*3 9.7 C 0 km/h
1338 20-09-2010 03:41:02 9.7 C 7.1 g/m*3 9.7 C 0 km/h
1339 20-09-2010 03:53:02 9.4 C 6.96 g/m*3 9.4 C 0 km/h
1340 20-09-2010 04:05:02 9.3 C 6.92 g/m*3 9.3 C 0 km/h
1341 20-09-2010 04:17:02 9.2 C 6.88 g/m*3 9.2 C 0 km/h
1342 20-09-2010 04:29:02 9 C 6.88 g/m*3 9 C 0 km/h
1343 20-09-2010 04:41:03 8.8 C 6.88 g/m*3 8.8 C 0 km/h
1344 20-09-2010 04:53:03 8.6 C 6.87 g/m*3 8.6 C 0 km/h
1345 20-09-2010 05:05:03 8.4 C 6.87 g/m*3 8.4 C 0 km/h
1346 20-09-2010 05:17:03 8.4 C 6.87 g/m*3 8.4 C 0 km/h
1347 20-09-2010 05:29:03 8.3 C 6.91 g/m*3 8.3 C 0 km/h
1348 20-09-2010 05:41:03 8.2 C 6.87 g/m*3 8.2 C 0 km/h
1349 20-09-2010 05:53:03 8.3 C 6.91 g/m*3 8.3 C 0 km/h
1350 20-09-2010 06:05:03 8.3 C 6.91 g/m*3 8.3 C 0 km/h
Sensor: Nr:Datum:Temp:Abs-Feuchte:Windchill:Wind:
Aussen-T/F 1351 20-09-2010 06:17:03 8.4 C 7.04 g/m*3 8.4 C 0 km/h
1352 20-09-2010 06:29:03 8.5 C 7 g/m*3 8.5 C 0 km/h
1353 20-09-2010 06:41:03 8.5 C 7 g/m*3 8.5 C 0 km/h
1354 20-09-2010 06:53:03 8.7 C 7.18 g/m*3 8.7 C 0 km/h
1355 20-09-2010 07:05:01 8.6 C 7.13 g/m*3 8.6 C 0 km/h
1356 20-09-2010 07:17:02 8.4 C 7.04 g/m*3 8.4 C 0 km/h
1357 20-09-2010 07:29:02 8.5 C 7.09 g/m*3 8.5 C 0 km/h
1358 20-09-2010 07:41:01 8.5 C 7.09 g/m*3 8.5 C 0 km/h
1359 20-09-2010 07:53:02 8.6 C 7.13 g/m*3 8.6 C 0 km/h
1360 20-09-2010 08:05:02 9 C 7.14 g/m*3 9 C 0 km/h
1361 20-09-2010 08:17:02 9.2 C 6.97 g/m*3 9.2 C 0 km/h
1362 20-09-2010 08:29:02 9.2 C 6.79 g/m*3 9.2 C 0 km/h
1363 20-09-2010 08:41:02 9.3 C 6.74 g/m*3 9.3 C 0 km/h
1364 20-09-2010 08:53:01 9.2 C 6.7 g/m*3 9.2 C 0 km/h
1365 20-09-2010 09:05:02 9.3 C 6.83 g/m*3 9.3 C 0 km/h
1366 20-09-2010 09:17:01 9.6 C 6.87 g/m*3 9.6 C 0 km/h
1367 20-09-2010 09:29:01 9.7 C 6.82 g/m*3 9.7 C 0 km/h
1368 20-09-2010 09:41:01 10 C 6.95 g/m*3 10 C 0 km/h
1369 20-09-2010 09:53:01 10.6 C 7.12 g/m*3 10.6 C 0 km/h
1370 20-09-2010 10:05:02 11.4 C 7.29 g/m*3 11.4 C 0 km/h
1371 20-09-2010 10:17:02 12.1 C 7.18 g/m*3 12.1 C 0 km/h
1372 20-09-2010 10:29:02 12.4 C 7.1 g/m*3 12.4 C 0 km/h
1373 20-09-2010 10:41:01 12.9 C 7.33 g/m*3 12.9 C 0 km/h
1374 20-09-2010 10:53:01 13.2 C 7.12 g/m*3 13.2 C 0 km/h
1375 20-09-2010 11:05:01 13.3 C 7.39 g/m*3 13.3 C 0 km/h
Sensor: Nr:Datum:Temp:Abs-Feuchte:Windchill:Wind:
Aussen-T/F 1376 20-09-2010 11:17:02 13.8 C 7.15 g/m*3 13.8 C 0 km/h
1377 20-09-2010 11:29:02 14.8 C 6.84 g/m*3 14.8 C 0 km/h
1378 20-09-2010 11:41:01 15.3 C 6.66 g/m*3 15.3 C 0 km/h
1379 20-09-2010 11:53:02 15.9 C 6.77 g/m*3 15.9 C 0 km/h
1380 20-09-2010 12:05:02 16.1 C 6.31 g/m*3 16.1 C 0 km/h
1381 20-09-2010 12:17:02 15.9 C 6.5 g/m*3 15.9 C 0 km/h
1382 20-09-2010 12:29:03 16.1 C 6.31 g/m*3 16.1 C 0 km/h
1383 20-09-2010 12:41:02 16.4 C 6.42 g/m*3 16.4 C 0 km/h
1384 20-09-2010 12:53:02 16.8 C 6.15 g/m*3 16.8 C 0 km/h
1385 20-09-2010 13:05:01 17.1 C 6.11 g/m*3 17.1 C 0 km/h
1386 20-09-2010 13:17:02 17.5 C 6.26 g/m*3 17.5 C 0 km/h
1387 20-09-2010 13:29:02 18.1 C 6.33 g/m*3 18.1 C 0 km/h
1388 20-09-2010 13:41:02 18.5 C 6.01 g/m*3 18.5 C 0 km/h
1389 20-09-2010 13:53:02 18.9 C 5.83 g/m*3 18.9 C 0 km/h
1390 20-09-2010 14:05:03 19.5 C 6.04 g/m*3 19.5 C 0 km/h
1391 20-09-2010 14:17:02 19.7 C 5.94 g/m*3 19.7 C 0 km/h
1392 20-09-2010 14:29:02 20.1 C 5.91 g/m*3 20.1 C 0 km/h
1393 20-09-2010 14:41:02 20.5 C 5.69 g/m*3 20.5 C 0 km/h
1394 20-09-2010 14:53:01 20.3 C 5.45 g/m*3 20.3 C 0 km/h
1395 20-09-2010 15:05:02 20.8 C 5.79 g/m*3 20.8 C 0 km/h
1396 20-09-2010 15:17:01 21.4 C 5.81 g/m*3 21.4 C 0 km/h
1397 20-09-2010 15:29:01 21.5 C 5.85 g/m*3 21.5 C 0 km/h
1398 20-09-2010 15:41:01 21.6 C 5.88 g/m*3 21.6 C 0 km/h
1399 20-09-2010 15:53:01 21.8 C 5.95 g/m*3 21.8 C 0 km/h
1400 20-09-2010 16:05:01 22.2 C 6.48 g/m*3 22.2 C 0 km/h
Sensor: Nr:Datum:Temp:Abs-Feuchte:Windchill:Wind:
Aussen-T/F 1401 20-09-2010 16:17:02 22.6 C 6.23 g/m*3 22.6 C 0 km/h
1402 20-09-2010 16:29:02 22.8 C 6.1 g/m*3 22.8 C 0 km/h
1403 20-09-2010 16:41:01 22.6 C 6.23 g/m*3 22.6 C 0 km/h
1404 20-09-2010 16:53:01 22.1 C 6.05 g/m*3 22.1 C 0 km/h
1405 20-09-2010 17:05:01 22.2 C 6.28 g/m*3 22.2 C 0 km/h
1406 20-09-2010 17:17:02 22.1 C 5.86 g/m*3 22.1 C 0 km/h
1407 20-09-2010 17:29:02 22.3 C 6.32 g/m*3 22.3 C 0 km/h
1408 20-09-2010 17:41:01 22.1 C 5.86 g/m*3 22.1 C 0 km/h
1409 20-09-2010 17:53:02 22.7 C 6.26 g/m*3 22.7 C 0 km/h
1410 20-09-2010 18:05:02 22.7 C 6.47 g/m*3 22.7 C 0 km/h
1411 20-09-2010 18:17:02 22.2 C 6.28 g/m*3 22.2 C 0 km/h
1412 20-09-2010 18:29:02 21.6 C 6.64 g/m*3 21.6 C 0 km/h
1413 20-09-2010 18:41:02 20.6 C 6.8 g/m*3 20.6 C 0 km/h
1414 20-09-2010 18:53:02 19.4 C 7.01 g/m*3 19.4 C 0 km/h
1415 20-09-2010 19:05:01 18.9 C 6.97 g/m*3 18.9 C 0 km/h
1416 20-09-2010 19:17:01 18.1 C 7.11 g/m*3 18.1 C 0 km/h
1417 20-09-2010 19:29:01 17.5 C 7.31 g/m*3 17.5 C 0 km/h
1418 20-09-2010 19:41:02 16.8 C 7.29 g/m*3 16.8 C 0 km/h
1419 20-09-2010 19:53:02 16.2 C 7.17 g/m*3 16.2 C 0 km/h
1420 20-09-2010 20:05:02 15.9 C 7.31 g/m*3 15.9 C 0 km/h
1421 20-09-2010 20:17:02 15.6 C 7.45 g/m*3 15.6 C 0 km/h
1422 20-09-2010 20:29:02 15.3 C 7.57 g/m*3 15.3 C 0 km/h
1423 20-09-2010 20:41:02 15.1 C 7.74 g/m*3 15.1 C 0 km/h
1424 20-09-2010 20:53:02 14.8 C 7.6 g/m*3 14.8 C 0 km/h
1425 20-09-2010 21:05:02 14.7 C 7.68 g/m*3 14.7 C 0 km/h
Sensor: Nr:Datum:Temp:Abs-Feuchte:Windchill:Wind:
Aussen-T/F 1426 20-09-2010 21:17:02 14.4 C 7.66 g/m*3 14.4 C 0 km/h
1427 20-09-2010 21:29:02 14.2 C 7.69 g/m*3 14.2 C 0 km/h
1428 20-09-2010 21:41:02 14 C 7.72 g/m*3 14 C 0 km/h
1429 20-09-2010 21:53:02 13.7 C 7.82 g/m*3 13.7 C 0 km/h
1430 20-09-2010 22:06:02 13.6 C 8 g/m*3 13.6 C 0 km/h
1431 20-09-2010 22:18:02 13.5 C 7.95 g/m*3 13.5 C 0 km/h
1432 20-09-2010 22:30:02 13.5 C 8.07 g/m*3 13.5 C 0 km/h
1433 20-09-2010 22:42:02 12.9 C 8.11 g/m*3 12.9 C 0 km/h
1434 20-09-2010 22:54:02 12.6 C 8.19 g/m*3 12.6 C 0 km/h
1435 20-09-2010 23:06:02 12.6 C 8.19 g/m*3 12.6 C 0 km/h
1436 20-09-2010 23:18:02 12.5 C 8.14 g/m*3 12.5 C 0 km/h
1437 20-09-2010 23:30:02 12.3 C 8.04 g/m*3 12.3 C 0 km/h
1438 20-09-2010 23:42:02 12.1 C 7.94 g/m*3 12.1 C 0 km/h
1439 20-09-2010 23:54:02 11.9 C 7.94 g/m*3 11.9 C 0 km/h
1440 21-09-2010 00:06:03 11.8 C 7.89 g/m*3 11.8 C 0 km/h
1441 21-09-2010 00:18:03 11.6 C 7.9 g/m*3 11.6 C 0 km/h
1442 21-09-2010 00:30:03 11.5 C 7.85 g/m*3 11.5 C 0 km/h
1443 21-09-2010 00:42:03 11.4 C 7.9 g/m*3 11.4 C 0 km/h
1444 21-09-2010 00:54:03 11.3 C 7.85 g/m*3 11.3 C 0 km/h
1445 21-09-2010 01:06:03 11.2 C 7.8 g/m*3 11.2 C 0 km/h
1446 21-09-2010 01:18:03 11.1 C 7.86 g/m*3 11.1 C 0 km/h
1447 21-09-2010 01:30:03 10.9 C 7.86 g/m*3 10.9 C 0 km/h
1448 21-09-2010 01:42:03 10.8 C 7.81 g/m*3 10.8 C 0 km/h
1449 21-09-2010 01:54:03 10.5 C 7.66 g/m*3 10.5 C 0 km/h
1450 21-09-2010 02:06:03 10.4 C 7.71 g/m*3 10.4 C 0 km/h
Sensor: Nr:Datum:Temp:Abs-Feuchte:Windchill:Wind:
Aussen-T/F 1451 21-09-2010 02:18:03 10.4 C 7.71 g/m*3 10.4 C 0 km/h
1452 21-09-2010 02:30:03 10.3 C 7.76 g/m*3 10.3 C 0 km/h
1453 21-09-2010 02:42:03 10.1 C 7.66 g/m*3 10.1 C 0 km/h
1454 21-09-2010 02:54:03 10 C 7.61 g/m*3 10 C 0 km/h
1455 21-09-2010 03:06:03 10 C 7.71 g/m*3 10 C 0 km/h
1456 21-09-2010 03:18:03 9.9 C 7.75 g/m*3 9.9 C 0 km/h
1457 21-09-2010 03:30:03 9.8 C 7.79 g/m*3 9.8 C 0 km/h
1458 21-09-2010 03:42:03 9.5 C 7.65 g/m*3 9.5 C 0 km/h
1459 21-09-2010 03:54:03 9.5 C 7.65 g/m*3 9.5 C 0 km/h
1460 21-09-2010 04:06:04 9.4 C 7.6 g/m*3 9.4 C 0 km/h
1461 21-09-2010 04:18:04 9.3 C 7.55 g/m*3 9.3 C 0 km/h
1462 21-09-2010 04:30:04 9.2 C 7.5 g/m*3 9.2 C 0 km/h
1463 21-09-2010 04:42:04 9.2 C 7.5 g/m*3 9.2 C 0 km/h
1464 21-09-2010 04:54:04 9 C 7.41 g/m*3 9 C 0 km/h
1465 21-09-2010 05:06:04 9 C 7.49 g/m*3 9 C 0 km/h
1466 21-09-2010 05:18:04 8.8 C 7.49 g/m*3 8.8 C 0 km/h
1467 21-09-2010 05:30:04 8.8 C 7.49 g/m*3 8.8 C 0 km/h
1468 21-09-2010 05:42:04 8.7 C 7.44 g/m*3 8.7 C 0 km/h
1469 21-09-2010 05:54:04 8.6 C 7.39 g/m*3 8.6 C 0 km/h
1470 21-09-2010 06:06:04 8.5 C 7.43 g/m*3 8.5 C 0 km/h
1471 21-09-2010 06:18:04 8.4 C 7.38 g/m*3 8.4 C 0 km/h
1472 21-09-2010 06:30:04 8.3 C 7.33 g/m*3 8.3 C 0 km/h
1473 21-09-2010 06:42:04 8.2 C 7.29 g/m*3 8.2 C 0 km/h
1474 21-09-2010 06:54:04 8.3 C 7.42 g/m*3 8.3 C 0 km/h
1475 21-09-2010 07:06:02 8.2 C 7.37 g/m*3 8.2 C 0 km/h
Sensor: Nr:Datum:Temp:Abs-Feuchte:Windchill:Wind:
Aussen-T/F 1476 21-09-2010 07:18:02 8.2 C 7.37 g/m*3 8.2 C 0 km/h
1477 21-09-2010 07:30:02 8.1 C 7.32 g/m*3 8.1 C 0 km/h
1478 21-09-2010 07:42:03 8.1 C 7.32 g/m*3 8.1 C 0 km/h
1479 21-09-2010 07:54:02 8.1 C 7.32 g/m*3 8.1 C 0 km/h
1480 21-09-2010 08:06:01 8 C 7.36 g/m*3 8 C 0 km/h
1481 21-09-2010 08:18:02 8.1 C 7.41 g/m*3 8.1 C 0 km/h
1482 21-09-2010 08:30:02 8.2 C 7.54 g/m*3 8.2 C 0 km/h
1483 21-09-2010 08:42:02 8.4 C 7.63 g/m*3 8.4 C 0 km/h
1484 21-09-2010 08:54:02 8.6 C 7.73 g/m*3 8.6 C 0 km/h
1485 21-09-2010 09:06:02 8.7 C 7.78 g/m*3 8.7 C 0 km/h
1486 21-09-2010 09:18:02 8.9 C 7.88 g/m*3 8.9 C 0 km/h
1487 21-09-2010 09:30:02 9.3 C 8 g/m*3 9.3 C 0 km/h
1488 21-09-2010 09:42:02 9.5 C 8.1 g/m*3 9.5 C 0 km/h
1489 21-09-2010 09:54:01 9.5 C 8.1 g/m*3 9.5 C 0 km/h
1490 21-09-2010 10:06:02 9.9 C 8.31 g/m*3 9.9 C 0 km/h
1491 21-09-2010 10:18:01 10.5 C 8.53 g/m*3 10.5 C 0 km/h
1492 21-09-2010 10:30:01 11.1 C 8.76 g/m*3 11.1 C 0 km/h
1493 21-09-2010 10:42:01 11.7 C 8.99 g/m*3 11.7 C 0 km/h
1494 21-09-2010 10:54:01 12.4 C 8.96 g/m*3 12.4 C 0 km/h
1495 21-09-2010 11:06:01 13 C 8.51 g/m*3 13 C 0 km/h
1496 21-09-2010 11:18:02 13.6 C 8.59 g/m*3 13.6 C 0 km/h
1497 21-09-2010 11:30:02 14 C 8.56 g/m*3 14 C 0 km/h
1498 21-09-2010 11:42:01 14.7 C 8.81 g/m*3 14.7 C 0 km/h
1499 21-09-2010 11:54:03 15.3 C 8.75 g/m*3 15.3 C 0 km/h
1500 21-09-2010 12:06:02 15.8 C 8.75 g/m*3 15.8 C 0 km/h
Sensor: Nr:Datum:Temp:Abs-Feuchte:Windchill:Wind:
Aussen-T/F 1501 21-09-2010 12:18:02 16.5 C 8.85 g/m*3 16.5 C 0 km/h
1502 21-09-2010 12:30:03 16.5 C 9.13 g/m*3 16.5 C 0 km/h
1503 21-09-2010 12:42:02 16 C 8.86 g/m*3 16 C 0 km/h
1504 21-09-2010 12:54:02 15.9 C 9.34 g/m*3 15.9 C 0 km/h
1505 21-09-2010 13:06:02 16.4 C 9.77 g/m*3 16.4 C 0 km/h
1506 21-09-2010 13:18:02 16.6 C 9.46 g/m*3 16.6 C 0 km/h
1507 21-09-2010 13:30:02 16.8 C 9.72 g/m*3 16.8 C 0 km/h
1508 21-09-2010 13:42:02 17.3 C 9.87 g/m*3 17.3 C 0 km/h
1509 21-09-2010 13:54:02 18 C 9.37 g/m*3 18 C 0 km/h
1510 21-09-2010 14:06:02 17.5 C 9.54 g/m*3 17.5 C 0 km/h
1511 21-09-2010 14:18:01 17.4 C 9.63 g/m*3 17.4 C 0 km/h
1512 21-09-2010 14:30:01 17.2 C 9.52 g/m*3 17.2 C 0 km/h
1513 21-09-2010 14:42:02 17.5 C 9.54 g/m*3 17.5 C 0 km/h
1514 21-09-2010 14:54:02 19.5 C 9.06 g/m*3 19.5 C 0 km/h
1515 21-09-2010 15:06:02 21.3 C 8.76 g/m*3 21.3 C 0 km/h
1516 21-09-2010 15:18:02 22.6 C 8.44 g/m*3 22.6 C 0 km/h
1517 21-09-2010 15:30:02 23.3 C 7.95 g/m*3 23.3 C 0 km/h
1518 21-09-2010 15:42:02 23.9 C 7.79 g/m*3 23.9 C 0 km/h
1519 21-09-2010 15:54:02 24.5 C 7.83 g/m*3 24.5 C 0 km/h
1520 21-09-2010 16:06:02 25 C 7.6 g/m*3 25 C 0 km/h
1521 21-09-2010 16:18:02 25.2 C 7.45 g/m*3 25.2 C 0 km/h
1522 21-09-2010 16:30:02 25.2 C 7.68 g/m*3 25.2 C 0 km/h
1523 21-09-2010 16:42:02 25.1 C 7.87 g/m*3 25.1 C 0 km/h
1524 21-09-2010 16:54:02 25.3 C 7.49 g/m*3 25.3 C 0 km/h
1525 21-09-2010 17:06:02 25.4 C 7.53 g/m*3 25.4 C 0 km/h
Sensor: Nr:Datum:Temp:Abs-Feuchte:Windchill:Wind:
Aussen-T/F 1526 21-09-2010 17:18:02 25.5 C 7.81 g/m*3 25.5 C 0 km/h
1527 21-09-2010 17:30:02 24.5 C 7.39 g/m*3 24.5 C 0 km/h
1528 21-09-2010 17:42:02 24.1 C 7.44 g/m*3 24.1 C 0 km/h
1529 21-09-2010 17:54:02 23.5 C 7.61 g/m*3 23.5 C 0 km/h
1530 21-09-2010 18:06:02 23.2 C 7.69 g/m*3 23.2 C 0 km/h
1531 21-09-2010 18:18:02 22.7 C 7.88 g/m*3 22.7 C 0 km/h
1532 21-09-2010 18:30:02 22.2 C 7.85 g/m*3 22.2 C 0 km/h
1533 21-09-2010 18:42:02 21.7 C 8.01 g/m*3 21.7 C 0 km/h
1534 21-09-2010 18:54:02 21.1 C 7.92 g/m*3 21.1 C 0 km/h
1535 21-09-2010 19:06:01 20.2 C 8.04 g/m*3 20.2 C 0 km/h
1536 21-09-2010 19:18:02 19.5 C 8.22 g/m*3 19.5 C 0 km/h
1537 21-09-2010 19:30:02 18.5 C 8.39 g/m*3 18.5 C 0 km/h
1538 21-09-2010 19:42:02 17.8 C 8.5 g/m*3 17.8 C 0 km/h
1539 21-09-2010 19:54:02 17.2 C 8.49 g/m*3 17.2 C 0 km/h
1540 21-09-2010 20:06:03 16.8 C 8.58 g/m*3 16.8 C 0 km/h
1541 21-09-2010 20:18:02 16.5 C 8.43 g/m*3 16.5 C 0 km/h
1542 21-09-2010 20:30:02 16.3 C 8.46 g/m*3 16.3 C 0 km/h
1543 21-09-2010 20:42:02 16.1 C 8.5 g/m*3 16.1 C 0 km/h
1544 21-09-2010 20:54:02 15.8 C 8.62 g/m*3 15.8 C 0 km/h
1545 21-09-2010 21:06:02 15.6 C 8.51 g/m*3 15.6 C 0 km/h
1546 21-09-2010 21:18:01 15.4 C 8.41 g/m*3 15.4 C 0 km/h
1547 21-09-2010 21:30:01 15.1 C 8.51 g/m*3 15.1 C 0 km/h
1548 21-09-2010 21:42:02 14.7 C 8.56 g/m*3 14.7 C 0 km/h
1549 21-09-2010 21:54:02 14.5 C 8.46 g/m*3 14.5 C 0 km/h
1550 21-09-2010 22:06:02 14.4 C 8.53 g/m*3 14.4 C 0 km/h
Sensor: Nr:Datum:Temp:Abs-Feuchte:Windchill:Wind:
Aussen-T/F 1551 21-09-2010 22:18:01 14.1 C 8.5 g/m*3 14.1 C 0 km/h
1552 21-09-2010 22:30:01 13.9 C 8.51 g/m*3 13.9 C 0 km/h
1553 21-09-2010 22:42:01 13.6 C 8.47 g/m*3 13.6 C 0 km/h
1554 21-09-2010 22:54:01 13.5 C 8.54 g/m*3 13.5 C 0 km/h
1555 21-09-2010 23:06:01 13.2 C 8.38 g/m*3 13.2 C 0 km/h
1556 21-09-2010 23:18:01 13.1 C 8.44 g/m*3 13.1 C 0 km/h
1557 21-09-2010 23:30:01 13 C 8.51 g/m*3 13 C 0 km/h
1558 21-09-2010 23:42:01 12.9 C 8.68 g/m*3 12.9 C 0 km/h
1559 21-09-2010 23:54:01 12.7 C 8.68 g/m*3 12.7 C 0 km/h
1560 22-09-2010 00:06:01 12.5 C 8.69 g/m*3 12.5 C 0 km/h
1561 22-09-2010 00:18:01 12.3 C 8.58 g/m*3 12.3 C 0 km/h
1562 22-09-2010 00:30:01 12.2 C 8.52 g/m*3 12.2 C 0 km/h
1563 22-09-2010 00:42:01 12.1 C 8.47 g/m*3 12.1 C 0 km/h
1564 22-09-2010 00:54:01 11.9 C 8.47 g/m*3 11.9 C 0 km/h
1565 22-09-2010 01:06:02 11.8 C 8.53 g/m*3 11.8 C 0 km/h
1566 22-09-2010 01:18:02 11.6 C 8.42 g/m*3 11.6 C 0 km/h
1567 22-09-2010 01:30:02 11.5 C 8.47 g/m*3 11.5 C 0 km/h
1568 22-09-2010 01:42:02 11.3 C 8.26 g/m*3 11.3 C 0 km/h
1569 22-09-2010 01:54:02 11.3 C 8.36 g/m*3 11.3 C 0 km/h
1570 22-09-2010 02:06:02 11 C 8.21 g/m*3 11 C 0 km/h
1571 22-09-2010 02:18:02 10.9 C 8.16 g/m*3 10.9 C 0 km/h
1572 22-09-2010 02:30:02 10.8 C 8.2 g/m*3 10.8 C 0 km/h
1573 22-09-2010 02:42:02 10.7 C 8.15 g/m*3 10.7 C 0 km/h
1574 22-09-2010 02:54:02 10.5 C 8.05 g/m*3 10.5 C 0 km/h
1575 22-09-2010 03:06:02 10.4 C 8 g/m*3 10.4 C 0 km/h
Sensor: Nr:Datum:Temp:Abs-Feuchte:Windchill:Wind:
Aussen-T/F 1576 22-09-2010 03:18:02 10.4 C 8 g/m*3 10.4 C 0 km/h
1577 22-09-2010 03:30:02 10.3 C 8.04 g/m*3 10.3 C 0 km/h
1578 22-09-2010 03:42:02 10.1 C 7.94 g/m*3 10.1 C 0 km/h
1579 22-09-2010 03:54:02 9.9 C 8.03 g/m*3 9.9 C 0 km/h
1580 22-09-2010 04:06:02 9.9 C 8.03 g/m*3 9.9 C 0 km/h
1581 22-09-2010 04:18:02 9.7 C 7.93 g/m*3 9.7 C 0 km/h
1582 22-09-2010 04:30:02 9.6 C 7.79 g/m*3 9.6 C 0 km/h
1583 22-09-2010 04:42:02 9.6 C 7.88 g/m*3 9.6 C 0 km/h
1584 22-09-2010 04:54:02 9.8 C 8.07 g/m*3 9.8 C 0 km/h
1585 22-09-2010 05:06:02 9.8 C 8.07 g/m*3 9.8 C 0 km/h
1586 22-09-2010 05:18:02 9.9 C 8.22 g/m*3 9.9 C 0 km/h
1587 22-09-2010 05:30:03 9.9 C 8.22 g/m*3 9.9 C 0 km/h
1588 22-09-2010 05:42:03 9.9 C 8.22 g/m*3 9.9 C 0 km/h
1589 22-09-2010 05:54:03 9.7 C 8.02 g/m*3 9.7 C 0 km/h
1590 22-09-2010 06:06:03 9.8 C 8.16 g/m*3 9.8 C 0 km/h
1591 22-09-2010 06:18:03 9.8 C 8.16 g/m*3 9.8 C 0 km/h
1592 22-09-2010 06:30:03 9.8 C 8.16 g/m*3 9.8 C 0 km/h
1593 22-09-2010 06:42:03 9.7 C 8.11 g/m*3 9.7 C 0 km/h
1594 22-09-2010 06:54:03 9.8 C 8.16 g/m*3 9.8 C 0 km/h
1595 22-09-2010 07:06:01 9.8 C 8.16 g/m*3 9.8 C 0 km/h
1596 22-09-2010 07:18:02 9.8 C 8.16 g/m*3 9.8 C 0 km/h
1597 22-09-2010 07:30:02 9.6 C 8.06 g/m*3 9.6 C 0 km/h
1598 22-09-2010 07:42:01 9.3 C 7.91 g/m*3 9.3 C 0 km/h
1599 22-09-2010 07:54:01 9.3 C 7.91 g/m*3 9.3 C 0 km/h
1600 22-09-2010 08:06:01 9.3 C 7.91 g/m*3 9.3 C 0 km/h
Sensor: Nr:Datum:Temp:Abs-Feuchte:Windchill:Wind:
Aussen-T/F 1601 22-09-2010 08:18:02 9.3 C 7.91 g/m*3 9.3 C 0 km/h
1602 22-09-2010 08:30:02 9.6 C 8.15 g/m*3 9.6 C 0 km/h
1603 22-09-2010 08:42:01 9.3 C 7.91 g/m*3 9.3 C 0 km/h
1604 22-09-2010 08:54:02 9.3 C 7.91 g/m*3 9.3 C 0 km/h
1605 22-09-2010 09:06:01 9.6 C 8.06 g/m*3 9.6 C 0 km/h
1606 22-09-2010 09:18:02 9.8 C 8.16 g/m*3 9.8 C 0 km/h
1607 22-09-2010 09:30:02 10.2 C 8.09 g/m*3 10.2 C 0 km/h
1608 22-09-2010 09:42:01 10.3 C 8.04 g/m*3 10.3 C 0 km/h
1609 22-09-2010 09:54:02 11 C 8.41 g/m*3 11 C 0 km/h
1610 22-09-2010 10:06:01 11.8 C 8.63 g/m*3 11.8 C 0 km/h
1611 22-09-2010 10:18:01 12.4 C 8.74 g/m*3 12.4 C 0 km/h
1612 22-09-2010 10:30:01 12 C 8.31 g/m*3 12 C 0 km/h
1613 22-09-2010 10:42:02 12.7 C 8.79 g/m*3 12.7 C 0 km/h
1614 22-09-2010 10:54:01 13.2 C 8.73 g/m*3 13.2 C 0 km/h
1615 22-09-2010 11:06:02 12.9 C 8.68 g/m*3 12.9 C 0 km/h
1616 22-09-2010 11:18:01 13.1 C 8.9 g/m*3 13.1 C 0 km/h
1617 22-09-2010 11:30:01 13.6 C 9.3 g/m*3 13.6 C 0 km/h
1618 22-09-2010 11:42:02 14.2 C 9.52 g/m*3 14.2 C 0 km/h
1619 22-09-2010 11:54:01 15.1 C 9.55 g/m*3 15.1 C 0 km/h
1620 22-09-2010 12:06:02 15.6 C 9.71 g/m*3 15.6 C 0 km/h
1621 22-09-2010 12:18:01 16 C 9.67 g/m*3 16 C 0 km/h
1622 22-09-2010 12:30:01 16.5 C 9.97 g/m*3 16.5 C 0 km/h
1623 22-09-2010 12:42:01 17.1 C 10.19 g/m*3 17.1 C 0 km/h
1624 22-09-2010 12:54:01 17.5 C 10.29 g/m*3 17.5 C 0 km/h
1625 22-09-2010 13:06:01 18.4 C 9.91 g/m*3 18.4 C 0 km/h
Sensor: Nr:Datum:Temp:Abs-Feuchte:Windchill:Wind:
Aussen-T/F 1626 22-09-2010 13:18:02 19.1 C 9.84 g/m*3 19.1 C 0 km/h
1627 22-09-2010 13:30:02 19.7 C 10.19 g/m*3 19.7 C 0 km/h
1628 22-09-2010 13:42:01 20.4 C 10.26 g/m*3 20.4 C 0 km/h
1629 22-09-2010 13:54:01 21.2 C 10.19 g/m*3 21.2 C 0 km/h
1630 22-09-2010 14:06:01 21.8 C 10.36 g/m*3 21.8 C 0 km/h
1631 22-09-2010 14:18:02 22.2 C 10.01 g/m*3 22.2 C 0 km/h
1632 22-09-2010 14:30:02 22.9 C 10.22 g/m*3 22.9 C 0 km/h
1633 22-09-2010 14:42:01 23.4 C 9.88 g/m*3 23.4 C 0 km/h
1634 22-09-2010 14:54:02 24 C 9.79 g/m*3 24 C 0 km/h
1635 22-09-2010 15:06:01 24.2 C 9.9 g/m*3 24.2 C 0 km/h
1636 22-09-2010 15:18:01 24.1 C 9.63 g/m*3 24.1 C 0 km/h
1637 22-09-2010 15:30:01 24.9 C 9.61 g/m*3 24.9 C 0 km/h
1638 22-09-2010 15:42:01 25.6 C 8.81 g/m*3 25.6 C 0 km/h
1639 22-09-2010 15:54:01 26.5 C 8.26 g/m*3 26.5 C 0 km/h
1640 22-09-2010 16:06:01 26.9 C 8.7 g/m*3 26.9 C 0 km/h
1641 22-09-2010 16:18:01 27.1 C 8.8 g/m*3 27.1 C 0 km/h
1642 22-09-2010 16:30:01 27.4 C 8.68 g/m*3 27.4 C 0 km/h
1643 22-09-2010 16:42:02 27.6 C 8.51 g/m*3 27.6 C 0 km/h
1644 22-09-2010 16:54:01 27.6 C 8.25 g/m*3 27.6 C 0 km/h
1645 22-09-2010 17:06:02 27.3 C 7.85 g/m*3 27.3 C 0 km/h
1646 22-09-2010 17:18:01 27.4 C 8.16 g/m*3 27.4 C 0 km/h
1647 22-09-2010 17:30:01 27.2 C 8.07 g/m*3 27.2 C 0 km/h
1648 22-09-2010 17:42:01 26.9 C 7.93 g/m*3 26.9 C 0 km/h
1649 22-09-2010 17:54:01 26.5 C 8.76 g/m*3 26.5 C 0 km/h
1650 22-09-2010 18:06:02 26.1 C 8.81 g/m*3 26.1 C 0 km/h
Sensor: Nr:Datum:Temp:Abs-Feuchte:Windchill:Wind:
Aussen-T/F 1651 22-09-2010 18:18:01 25.6 C 9.05 g/m*3 25.6 C 0 km/h
1652 22-09-2010 18:30:01 25.3 C 9.36 g/m*3 25.3 C 0 km/h
1653 22-09-2010 18:42:01 24.1 C 8.97 g/m*3 24.1 C 0 km/h
1654 22-09-2010 18:54:01 23.3 C 9.2 g/m*3 23.3 C 0 km/h
1655 22-09-2010 19:06:01 22.5 C 9.19 g/m*3 22.5 C 0 km/h
1656 22-09-2010 19:18:02 21.8 C 9.4 g/m*3 21.8 C 0 km/h
1657 22-09-2010 19:30:02 20.6 C 9.31 g/m*3 20.6 C 0 km/h
1658 22-09-2010 19:42:01 20 C 8.99 g/m*3 20 C 0 km/h
1659 22-09-2010 19:54:01 19.5 C 9.06 g/m*3 19.5 C 0 km/h
1660 22-09-2010 20:06:01 19 C 9.13 g/m*3 19 C 0 km/h
1661 22-09-2010 20:18:02 18.7 C 9.13 g/m*3 18.7 C 0 km/h
1662 22-09-2010 20:30:02 18.5 C 9.02 g/m*3 18.5 C 0 km/h
1663 22-09-2010 20:42:01 18.4 C 9.12 g/m*3 18.4 C 0 km/h
1664 22-09-2010 20:54:02 18.1 C 9.12 g/m*3 18.1 C 0 km/h
1665 22-09-2010 21:06:01 17.9 C 9.31 g/m*3 17.9 C 0 km/h
1666 22-09-2010 21:18:01 17.6 C 9.45 g/m*3 17.6 C 0 km/h
1667 22-09-2010 21:30:01 17.5 C 9.24 g/m*3 17.5 C 0 km/h
1668 22-09-2010 21:42:01 17.3 C 9.28 g/m*3 17.3 C 0 km/h
1669 22-09-2010 21:54:01 17 C 9.26 g/m*3 17 C 0 km/h
1670 22-09-2010 22:08:02 16.8 C 9.29 g/m*3 16.8 C 0 km/h
1671 22-09-2010 22:20:02 16.4 C 9.35 g/m*3 16.4 C 0 km/h
1672 22-09-2010 22:32:02 16.1 C 9.32 g/m*3 16.1 C 0 km/h
1673 22-09-2010 22:44:02 15.9 C 9.21 g/m*3 15.9 C 0 km/h
1674 22-09-2010 22:56:02 15.7 C 9.1 g/m*3 15.7 C 0 km/h
1675 22-09-2010 23:08:02 15.4 C 8.8 g/m*3 15.4 C 0 km/h
Sensor: Nr:Datum:Temp:Abs-Feuchte:Windchill:Wind:
Aussen-T/F 1676 22-09-2010 23:20:02 15.1 C 8.77 g/m*3 15.1 C 0 km/h
1677 22-09-2010 23:32:02 14.9 C 8.79 g/m*3 14.9 C 0 km/h
1678 22-09-2010 23:44:02 14.7 C 8.81 g/m*3 14.7 C 0 km/h
1679 22-09-2010 23:56:02 14.5 C 8.71 g/m*3 14.5 C 0 km/h
1680 23-09-2010 00:08:02 14.4 C 8.53 g/m*3 14.4 C 0 km/h
1681 23-09-2010 00:20:02 14.2 C 8.67 g/m*3 14.2 C 0 km/h
1682 23-09-2010 00:32:02 14 C 8.56 g/m*3 14 C 0 km/h
1683 23-09-2010 00:44:02 13.8 C 8.7 g/m*3 13.8 C 0 km/h
1684 23-09-2010 00:56:02 13.7 C 8.76 g/m*3 13.7 C 0 km/h
1685 23-09-2010 01:08:02 13.5 C 8.77 g/m*3 13.5 C 0 km/h
1686 23-09-2010 01:20:02 13.4 C 8.72 g/m*3 13.4 C 0 km/h
1687 23-09-2010 01:32:02 13.2 C 8.73 g/m*3 13.2 C 0 km/h
1688 23-09-2010 01:44:02 13.1 C 8.67 g/m*3 13.1 C 0 km/h
1689 23-09-2010 01:56:03 12.9 C 8.68 g/m*3 12.9 C 0 km/h
1690 23-09-2010 02:08:03 12.8 C 8.74 g/m*3 12.8 C 0 km/h
1691 23-09-2010 02:20:03 12.6 C 8.74 g/m*3 12.6 C 0 km/h
1692 23-09-2010 02:32:03 12.4 C 8.74 g/m*3 12.4 C 0 km/h
1693 23-09-2010 02:44:03 12.3 C 8.69 g/m*3 12.3 C 0 km/h
1694 23-09-2010 02:56:03 12.1 C 8.58 g/m*3 12.1 C 0 km/h
1695 23-09-2010 03:08:03 12 C 8.53 g/m*3 12 C 0 km/h
1696 23-09-2010 03:20:03 11.8 C 8.53 g/m*3 11.8 C 0 km/h
1697 23-09-2010 03:32:03 11.8 C 8.53 g/m*3 11.8 C 0 km/h
1698 23-09-2010 03:44:03 11.8 C 8.63 g/m*3 11.8 C 0 km/h
1699 23-09-2010 03:56:03 11.6 C 8.63 g/m*3 11.6 C 0 km/h
1700 23-09-2010 04:08:03 11.4 C 8.52 g/m*3 11.4 C 0 km/h
Sensor: Nr:Datum:Temp:Abs-Feuchte:Windchill:Wind:
Aussen-T/F 1701 23-09-2010 04:20:03 11.2 C 8.41 g/m*3 11.2 C 0 km/h
1702 23-09-2010 04:32:03 11.2 C 8.41 g/m*3 11.2 C 0 km/h
1703 23-09-2010 04:44:03 11 C 8.31 g/m*3 11 C 0 km/h
1704 23-09-2010 04:56:03 11 C 8.31 g/m*3 11 C 0 km/h
1705 23-09-2010 05:08:03 10.9 C 8.36 g/m*3 10.9 C 0 km/h
1706 23-09-2010 05:20:03 10.7 C 8.25 g/m*3 10.7 C 0 km/h
1707 23-09-2010 05:32:03 10.6 C 8.2 g/m*3 10.6 C 0 km/h
1708 23-09-2010 05:44:03 10.5 C 8.15 g/m*3 10.5 C 0 km/h
1709 23-09-2010 05:56:03 10.5 C 8.15 g/m*3 10.5 C 0 km/h
1710 23-09-2010 06:08:03 10.4 C 8.1 g/m*3 10.4 C 0 km/h
1711 23-09-2010 06:20:04 10.5 C 8.24 g/m*3 10.5 C 0 km/h
1712 23-09-2010 06:32:04 10.6 C 8.3 g/m*3 10.6 C 0 km/h
1713 23-09-2010 06:44:04 10.4 C 8.19 g/m*3 10.4 C 0 km/h
1714 23-09-2010 06:56:04 10.4 C 8.19 g/m*3 10.4 C 0 km/h
1715 23-09-2010 07:08:02 10.5 C 8.24 g/m*3 10.5 C 0 km/h
1716 23-09-2010 07:20:01 10.4 C 8.19 g/m*3 10.4 C 0 km/h
1717 23-09-2010 07:32:02 10.5 C 8.24 g/m*3 10.5 C 0 km/h
1718 23-09-2010 07:44:02 10.6 C 8.3 g/m*3 10.6 C 0 km/h
1719 23-09-2010 07:56:02 10.6 C 8.3 g/m*3 10.6 C 0 km/h
1720 23-09-2010 08:08:02 10.6 C 8.3 g/m*3 10.6 C 0 km/h
1721 23-09-2010 08:20:01 10.7 C 8.35 g/m*3 10.7 C 0 km/h
1722 23-09-2010 08:32:02 10.8 C 8.4 g/m*3 10.8 C 0 km/h
1723 23-09-2010 08:44:02 11 C 8.51 g/m*3 11 C 0 km/h
1724 23-09-2010 08:56:02 11.3 C 8.57 g/m*3 11.3 C 0 km/h
1725 23-09-2010 09:08:01 11.4 C 8.52 g/m*3 11.4 C 0 km/h
Sensor: Nr:Datum:Temp:Abs-Feuchte:Windchill:Wind:
Aussen-T/F 1726 23-09-2010 09:20:01 11.4 C 8.52 g/m*3 11.4 C 0 km/h
1727 23-09-2010 09:32:02 11.4 C 8.52 g/m*3 11.4 C 0 km/h
1728 23-09-2010 09:44:02 11.7 C 8.79 g/m*3 11.7 C 0 km/h
1729 23-09-2010 09:56:02 12.3 C 8.9 g/m*3 12.3 C 0 km/h
1730 23-09-2010 10:08:02 12.4 C 8.96 g/m*3 12.4 C 0 km/h
1731 23-09-2010 10:20:02 12.5 C 9.02 g/m*3 12.5 C 0 km/h
1732 23-09-2010 10:32:02 12.9 C 9.24 g/m*3 12.9 C 0 km/h
1733 23-09-2010 10:44:02 13.3 C 9.36 g/m*3 13.3 C 0 km/h
1734 23-09-2010 10:56:02 13.8 C 9.65 g/m*3 13.8 C 0 km/h
1735 23-09-2010 11:08:02 14.1 C 9.71 g/m*3 14.1 C 0 km/h
1736 23-09-2010 11:20:02 15 C 10 g/m*3 15 C 0 km/h
1737 23-09-2010 11:32:02 15.8 C 10.23 g/m*3 15.8 C 0 km/h
1738 23-09-2010 11:44:02 16.3 C 10.13 g/m*3 16.3 C 0 km/h
1739 23-09-2010 11:56:02 17 C 10.27 g/m*3 17 C 0 km/h
1740 23-09-2010 12:08:02 17.5 C 10.44 g/m*3 17.5 C 0 km/h
1741 23-09-2010 12:20:02 18 C 10.44 g/m*3 18 C 0 km/h
1742 23-09-2010 12:32:02 18.7 C 10.73 g/m*3 18.7 C 0 km/h
1743 23-09-2010 12:44:02 19.2 C 10.55 g/m*3 19.2 C 0 km/h
1744 23-09-2010 12:56:02 19.9 C 10.82 g/m*3 19.9 C 0 km/h
1745 23-09-2010 13:08:02 20.5 C 11.03 g/m*3 20.5 C 0 km/h
1746 23-09-2010 13:20:02 21.4 C 11.06 g/m*3 21.4 C 0 km/h
1747 23-09-2010 13:32:01 22.3 C 11.26 g/m*3 22.3 C 0 km/h
1748 23-09-2010 13:44:01 23.3 C 10.66 g/m*3 23.3 C 0 km/h
1749 23-09-2010 13:56:02 24 C 9.14 g/m*3 24 C 0 km/h
1750 23-09-2010 14:08:01 24.5 C 9.62 g/m*3 24.5 C 0 km/h
Sensor: Nr:Datum:Temp:Abs-Feuchte:Windchill:Wind:
Aussen-T/F 1751 23-09-2010 14:20:02 23.8 C 10.11 g/m*3 23.8 C 0 km/h
1752 23-09-2010 14:32:02 23.7 C 10.48 g/m*3 23.7 C 0 km/h
1753 23-09-2010 14:44:02 23.8 C 10.54 g/m*3 23.8 C 0 km/h
1754 23-09-2010 14:56:02 24.5 C 10.3 g/m*3 24.5 C 0 km/h
1755 23-09-2010 15:08:02 25.2 C 8.85 g/m*3 25.2 C 0 km/h
1756 23-09-2010 15:20:02 25.2 C 9.78 g/m*3 25.2 C 0 km/h
1757 23-09-2010 15:32:02 24.8 C 9.33 g/m*3 24.8 C 0 km/h
1758 23-09-2010 15:44:03 25.1 C 9.26 g/m*3 25.1 C 0 km/h
1759 23-09-2010 15:56:01 24.9 C 9.61 g/m*3 24.9 C 0 km/h
1760 23-09-2010 16:08:02 25.1 C 10.19 g/m*3 25.1 C 0 km/h
1761 23-09-2010 16:20:01 26 C 9.74 g/m*3 26 C 0 km/h
1762 23-09-2010 16:32:01 25.6 C 9.05 g/m*3 25.6 C 0 km/h
1763 23-09-2010 16:44:01 24.9 C 10.07 g/m*3 24.9 C 0 km/h
1764 23-09-2010 16:56:01 24.1 C 10.28 g/m*3 24.1 C 0 km/h
1765 23-09-2010 17:08:01 23.7 C 10.91 g/m*3 23.7 C 0 km/h
1766 23-09-2010 17:20:02 23.4 C 10.72 g/m*3 23.4 C 0 km/h
1767 23-09-2010 17:32:01 23.2 C 10.81 g/m*3 23.2 C 0 km/h
1768 23-09-2010 17:44:01 23.3 C 10.45 g/m*3 23.3 C 0 km/h
1769 23-09-2010 17:56:02 23.8 C 10.76 g/m*3 23.8 C 0 km/h
1770 23-09-2010 18:08:01 23.3 C 10.45 g/m*3 23.3 C 0 km/h
1771 23-09-2010 18:20:02 22.6 C 10.25 g/m*3 22.6 C 0 km/h
1772 23-09-2010 18:32:01 21.7 C 10.68 g/m*3 21.7 C 0 km/h
1773 23-09-2010 18:44:01 21.6 C 10.81 g/m*3 21.6 C 0 km/h
1774 23-09-2010 18:56:02 21.4 C 10.87 g/m*3 21.4 C 0 km/h
1775 23-09-2010 19:08:02 20.9 C 10.93 g/m*3 20.9 C 0 km/h
Sensor: Nr:Datum:Temp:Abs-Feuchte:Windchill:Wind:
Aussen-T/F 1776 23-09-2010 19:20:02 20.4 C 10.97 g/m*3 20.4 C 0 km/h
1777 23-09-2010 19:32:02 19.8 C 11.1 g/m*3 19.8 C 0 km/h
1778 23-09-2010 19:44:02 19.4 C 11.18 g/m*3 19.4 C 0 km/h
1779 23-09-2010 19:56:02 19 C 11.08 g/m*3 19 C 0 km/h
1780 23-09-2010 20:08:01 18.8 C 11.43 g/m*3 18.8 C 0 km/h
1781 23-09-2010 20:20:02 18.6 C 11.3 g/m*3 18.6 C 0 km/h
1782 23-09-2010 20:32:02 18.6 C 11.3 g/m*3 18.6 C 0 km/h
1783 23-09-2010 20:44:02 18.4 C 11.32 g/m*3 18.4 C 0 km/h
1784 23-09-2010 20:56:02 18.1 C 11.12 g/m*3 18.1 C 0 km/h
1785 23-09-2010 21:08:02 18.4 C 11.48 g/m*3 18.4 C 0 km/h
1786 23-09-2010 21:20:01 18.3 C 11.41 g/m*3 18.3 C 0 km/h
1787 23-09-2010 21:32:02 18.4 C 11.64 g/m*3 18.4 C 0 km/h
1788 23-09-2010 21:44:02 18.7 C 11.53 g/m*3 18.7 C 0 km/h
1789 23-09-2010 21:57:02 18.7 C 11.37 g/m*3 18.7 C 0 km/h
1790 23-09-2010 22:09:02 18.5 C 11.23 g/m*3 18.5 C 0 km/h
1791 23-09-2010 22:21:02 18.5 C 11.39 g/m*3 18.5 C 0 km/h
1792 23-09-2010 22:33:02 17.9 C 11.6 g/m*3 17.9 C 0 km/h
1793 23-09-2010 22:45:02 17.7 C 12.52 g/m*3 17.7 C 0 km/h
1794 23-09-2010 22:57:02 17.1 C 12.23 g/m*3 17.1 C 0 km/h
1795 23-09-2010 23:09:02 16.9 C 12.37 g/m*3 16.9 C 0 km/h
1796 23-09-2010 23:21:02 16.5 C 12.22 g/m*3 16.5 C 0 km/h
1797 23-09-2010 23:33:02 16.4 C 12.28 g/m*3 16.4 C 0 km/h
1798 23-09-2010 23:45:02 16.2 C 12.14 g/m*3 16.2 C 0 km/h
1799 23-09-2010 23:57:02 16.2 C 12.27 g/m*3 16.2 C 0 km/h
1800 24-09-2010 00:09:02 16 C 12.13 g/m*3 16 C 0 km/h
Sensor: Nr:Datum:Temp:Abs-Feuchte:Windchill:Wind:
Aussen-T/F 1801 24-09-2010 00:21:02 15.9 C 12.32 g/m*3 15.9 C 0 km/h
1802 24-09-2010 00:33:02 15.6 C 12.1 g/m*3 15.6 C 0 km/h
1803 24-09-2010 00:45:02 15.5 C 12.16 g/m*3 15.5 C 0 km/h
1804 24-09-2010 00:57:02 15.5 C 12.16 g/m*3 15.5 C 0 km/h
1805 24-09-2010 01:09:02 15.5 C 12.16 g/m*3 15.5 C 0 km/h
1806 24-09-2010 01:21:02 15.5 C 12.29 g/m*3 15.5 C 0 km/h
1807 24-09-2010 01:33:02 15.6 C 12.37 g/m*3 15.6 C 0 km/h
1808 24-09-2010 01:45:02 15.6 C 12.37 g/m*3 15.6 C 0 km/h
1809 24-09-2010 01:57:03 15.5 C 12.29 g/m*3 15.5 C 0 km/h
1810 24-09-2010 02:09:03 15.5 C 12.29 g/m*3 15.5 C 0 km/h
1811 24-09-2010 02:21:03 15.5 C 12.29 g/m*3 15.5 C 0 km/h
1812 24-09-2010 02:33:03 15.4 C 12.22 g/m*3 15.4 C 0 km/h
1813 24-09-2010 02:45:03 15.3 C 12.01 g/m*3 15.3 C 0 km/h
1814 24-09-2010 02:57:03 15.2 C 11.94 g/m*3 15.2 C 0 km/h
1815 24-09-2010 03:09:03 15.1 C 11.87 g/m*3 15.1 C 0 km/h
1816 24-09-2010 03:21:03 14.9 C 11.85 g/m*3 14.9 C 0 km/h
1817 24-09-2010 03:33:03 14.9 C 11.85 g/m*3 14.9 C 0 km/h
1818 24-09-2010 03:45:03 14.9 C 11.98 g/m*3 14.9 C 0 km/h
1819 24-09-2010 03:57:03 14.9 C 11.98 g/m*3 14.9 C 0 km/h
1820 24-09-2010 04:09:03 14.8 C 11.91 g/m*3 14.8 C 0 km/h
1821 24-09-2010 04:21:03 14.8 C 11.91 g/m*3 14.8 C 0 km/h
1822 24-09-2010 04:33:03 14.8 C 11.91 g/m*3 14.8 C 0 km/h
1823 24-09-2010 04:45:03 14.8 C 11.91 g/m*3 14.8 C 0 km/h
1824 24-09-2010 04:57:03 14.7 C 11.83 g/m*3 14.7 C 0 km/h
1825 24-09-2010 05:09:03 14.5 C 11.69 g/m*3 14.5 C 0 km/h
Sensor: Nr:Datum:Temp:Abs-Feuchte:Windchill:Wind:
Aussen-T/F 1826 24-09-2010 05:21:03 14.5 C 11.69 g/m*3 14.5 C 0 km/h
1827 24-09-2010 05:33:03 14.5 C 11.69 g/m*3 14.5 C 0 km/h
1828 24-09-2010 05:45:03 14.6 C 11.76 g/m*3 14.6 C 0 km/h
1829 24-09-2010 05:57:03 14.6 C 11.76 g/m*3 14.6 C 0 km/h
1830 24-09-2010 06:09:03 14.7 C 11.83 g/m*3 14.7 C 0 km/h
1831 24-09-2010 06:21:04 14.7 C 11.83 g/m*3 14.7 C 0 km/h
1832 24-09-2010 06:33:04 14.7 C 11.83 g/m*3 14.7 C 0 km/h
1833 24-09-2010 06:45:04 14.7 C 11.83 g/m*3 14.7 C 0 km/h
1834 24-09-2010 06:57:04 14.7 C 11.83 g/m*3 14.7 C 0 km/h
1835 24-09-2010 07:09:04 14.5 C 11.69 g/m*3 14.5 C 0 km/h
1836 24-09-2010 07:21:04 14.4 C 11.62 g/m*3 14.4 C 0 km/h
1837 24-09-2010 07:33:02 14.3 C 11.55 g/m*3 14.3 C 0 km/h
1838 24-09-2010 07:45:02 14.4 C 11.62 g/m*3 14.4 C 0 km/h
1839 24-09-2010 07:57:02 14.4 C 11.62 g/m*3 14.4 C 0 km/h
1840 24-09-2010 08:09:02 14.4 C 11.62 g/m*3 14.4 C 0 km/h
1841 24-09-2010 08:21:01 14.3 C 11.55 g/m*3 14.3 C 0 km/h
1842 24-09-2010 08:33:02 14.6 C 11.89 g/m*3 14.6 C 0 km/h
1843 24-09-2010 08:45:02 14.8 C 12.03 g/m*3 14.8 C 0 km/h
1844 24-09-2010 08:57:02 14.8 C 12.03 g/m*3 14.8 C 0 km/h
1845 24-09-2010 09:09:01 14.8 C 12.03 g/m*3 14.8 C 0 km/h
1846 24-09-2010 09:21:02 14.8 C 12.03 g/m*3 14.8 C 0 km/h
1847 24-09-2010 09:33:01 14.9 C 12.11 g/m*3 14.9 C 0 km/h
1848 24-09-2010 09:45:02 14.9 C 12.11 g/m*3 14.9 C 0 km/h
1849 24-09-2010 09:57:02 15 C 12.05 g/m*3 15 C 0 km/h
1850 24-09-2010 10:09:02 15 C 12.05 g/m*3 15 C 0 km/h
Sensor: Nr:Datum:Temp:Abs-Feuchte:Windchill:Wind:
Aussen-T/F 1851 24-09-2010 10:21:02 14.9 C 12.11 g/m*3 14.9 C 0 km/h
1852 24-09-2010 10:33:02 15 C 12.05 g/m*3 15 C 0 km/h
1853 24-09-2010 10:45:01 15 C 12.05 g/m*3 15 C 0 km/h
1854 24-09-2010 10:57:01 15 C 12.05 g/m*3 15 C 0 km/h
1855 24-09-2010 11:09:02 15.1 C 12.13 g/m*3 15.1 C 0 km/h
1856 24-09-2010 11:21:01 15.1 C 12.13 g/m*3 15.1 C 0 km/h
1857 24-09-2010 11:33:01 15.4 C 12.35 g/m*3 15.4 C 0 km/h
1858 24-09-2010 11:45:02 15.4 C 12.35 g/m*3 15.4 C 0 km/h
1859 24-09-2010 11:57:02 15.1 C 12.13 g/m*3 15.1 C 0 km/h
1860 24-09-2010 12:09:02 15.1 C 12.13 g/m*3 15.1 C 0 km/h
1861 24-09-2010 12:21:02 15.1 C 12.13 g/m*3 15.1 C 0 km/h
1862 24-09-2010 12:33:03 15.4 C 12.48 g/m*3 15.4 C 0 km/h
1863 24-09-2010 12:45:02 15.1 C 12.13 g/m*3 15.1 C 0 km/h
1864 24-09-2010 12:57:03 15 C 12.05 g/m*3 15 C 0 km/h
1865 24-09-2010 13:09:02 14.8 C 11.91 g/m*3 14.8 C 0 km/h
1866 24-09-2010 13:21:02 14.6 C 11.76 g/m*3 14.6 C 0 km/h
1867 24-09-2010 13:33:02 14.5 C 11.69 g/m*3 14.5 C 0 km/h
1868 24-09-2010 13:45:02 14.5 C 11.69 g/m*3 14.5 C 0 km/h
1869 24-09-2010 13:57:02 14.4 C 11.62 g/m*3 14.4 C 0 km/h
1870 24-09-2010 14:09:03 14.1 C 11.41 g/m*3 14.1 C 0 km/h
1871 24-09-2010 14:21:02 13.8 C 11.2 g/m*3 13.8 C 0 km/h
1872 24-09-2010 14:33:03 13.5 C 10.99 g/m*3 13.5 C 0 km/h
1873 24-09-2010 14:45:02 13.2 C 10.79 g/m*3 13.2 C 0 km/h
1874 24-09-2010 14:57:02 13.1 C 10.73 g/m*3 13.1 C 0 km/h
1875 24-09-2010 15:09:02 12.9 C 10.71 g/m*3 12.9 C 0 km/h
Sensor: Nr:Datum:Temp:Abs-Feuchte:Windchill:Wind:
Aussen-T/F 1876 24-09-2010 15:21:03 13.1 C 10.73 g/m*3 13.1 C 0 km/h
1877 24-09-2010 15:33:02 13 C 10.77 g/m*3 13 C 0 km/h
1878 24-09-2010 15:45:03 13.2 C 10.91 g/m*3 13.2 C 0 km/h
1879 24-09-2010 15:57:03 13.2 C 10.91 g/m*3 13.2 C 0 km/h
1880 24-09-2010 16:09:02 13.3 C 10.98 g/m*3 13.3 C 0 km/h
1881 24-09-2010 16:21:02 13.7 C 11.25 g/m*3 13.7 C 0 km/h
1882 24-09-2010 16:33:02 14 C 11.46 g/m*3 14 C 0 km/h
1883 24-09-2010 16:45:02 14.1 C 11.53 g/m*3 14.1 C 0 km/h
1884 24-09-2010 16:57:02 13.9 C 11.39 g/m*3 13.9 C 0 km/h
1885 24-09-2010 17:09:02 13.9 C 11.39 g/m*3 13.9 C 0 km/h
1886 24-09-2010 17:21:02 13.9 C 11.39 g/m*3 13.9 C 0 km/h
1887 24-09-2010 17:33:02 13.4 C 10.93 g/m*3 13.4 C 0 km/h
1888 24-09-2010 17:45:02 13.2 C 10.79 g/m*3 13.2 C 0 km/h
1889 24-09-2010 17:57:02 13 C 10.66 g/m*3 13 C 0 km/h
1890 24-09-2010 18:09:01 13.2 C 10.79 g/m*3 13.2 C 0 km/h
1891 24-09-2010 18:21:01 13.3 C 10.86 g/m*3 13.3 C 0 km/h
1892 24-09-2010 18:33:02 13.3 C 10.86 g/m*3 13.3 C 0 km/h
1893 24-09-2010 18:45:02 13.3 C 10.86 g/m*3 13.3 C 0 km/h
1894 24-09-2010 18:57:02 13.2 C 10.79 g/m*3 13.2 C 0 km/h
1895 24-09-2010 19:09:02 13.1 C 10.73 g/m*3 13.1 C 0 km/h
1896 24-09-2010 19:21:01 12.9 C 10.71 g/m*3 12.9 C 0 km/h
1897 24-09-2010 19:33:02 12.8 C 10.64 g/m*3 12.8 C 0 km/h
1898 24-09-2010 19:45:02 12.7 C 10.58 g/m*3 12.7 C 0 km/h
1899 24-09-2010 19:57:02 12.7 C 10.58 g/m*3 12.7 C 0 km/h
1900 24-09-2010 20:09:02 12.7 C 10.58 g/m*3 12.7 C 0 km/h
Sensor: Nr:Datum:Temp:Abs-Feuchte:Windchill:Wind:
Aussen-T/F 1901 24-09-2010 20:21:01 12.7 C 10.58 g/m*3 12.7 C 0 km/h
1902 24-09-2010 20:33:02 12.7 C 10.58 g/m*3 12.7 C 0 km/h
1903 24-09-2010 20:45:01 12.7 C 10.58 g/m*3 12.7 C 0 km/h
1904 24-09-2010 20:57:01 12.7 C 10.58 g/m*3 12.7 C 0 km/h
1905 24-09-2010 21:09:02 12.8 C 10.64 g/m*3 12.8 C 0 km/h
1906 24-09-2010 21:21:02 12.8 C 10.64 g/m*3 12.8 C 0 km/h
1907 24-09-2010 21:33:02 12.9 C 10.71 g/m*3 12.9 C 0 km/h
1908 24-09-2010 21:45:02 12.8 C 10.64 g/m*3 12.8 C 0 km/h
1909 24-09-2010 21:57:02 12.8 C 10.64 g/m*3 12.8 C 0 km/h
1910 24-09-2010 22:09:01 12.8 C 10.64 g/m*3 12.8 C 0 km/h
1911 24-09-2010 22:21:02 12.8 C 10.64 g/m*3 12.8 C 0 km/h
1912 24-09-2010 22:33:02 12.7 C 10.58 g/m*3 12.7 C 0 km/h
1913 24-09-2010 22:46:04 12.6 C 10.51 g/m*3 12.6 C 0 km/h
1914 24-09-2010 22:58:04 12.6 C 10.51 g/m*3 12.6 C 0 km/h
1915 24-09-2010 23:10:04 12.5 C 10.44 g/m*3 12.5 C 0 km/h
1916 24-09-2010 23:22:04 12.4 C 10.38 g/m*3 12.4 C 0 km/h
1917 24-09-2010 23:34:04 12.4 C 10.38 g/m*3 12.4 C 0 km/h
1918 24-09-2010 23:46:04 12.3 C 10.32 g/m*3 12.3 C 0 km/h
1919 24-09-2010 23:58:04 12.4 C 10.38 g/m*3 12.4 C 0 km/h
1920 25-09-2010 00:10:04 12.4 C 10.38 g/m*3 12.4 C 0 km/h
1921 25-09-2010 00:22:04 12.5 C 10.44 g/m*3 12.5 C 0 km/h
1922 25-09-2010 00:34:04 12.5 C 10.44 g/m*3 12.5 C 0 km/h
1923 25-09-2010 00:46:04 12.5 C 10.44 g/m*3 12.5 C 0 km/h
1924 25-09-2010 00:58:05 12.5 C 10.44 g/m*3 12.5 C 0 km/h
1925 25-09-2010 01:10:05 12.5 C 10.44 g/m*3 12.5 C 0 km/h
Sensor: Nr:Datum:Temp:Abs-Feuchte:Windchill:Wind:
Aussen-T/F 1926 25-09-2010 01:22:05 12.5 C 10.44 g/m*3 12.5 C 0 km/h
1927 25-09-2010 01:34:05 12.5 C 10.44 g/m*3 12.5 C 0 km/h
1928 25-09-2010 01:46:05 12.5 C 10.44 g/m*3 12.5 C 0 km/h
1929 25-09-2010 01:58:05 12.6 C 10.51 g/m*3 12.6 C 0 km/h
1930 25-09-2010 02:10:05 12.6 C 10.51 g/m*3 12.6 C 0 km/h
1931 25-09-2010 02:22:05 12.6 C 10.51 g/m*3 12.6 C 0 km/h
1932 25-09-2010 02:34:05 12.6 C 10.51 g/m*3 12.6 C 0 km/h
1933 25-09-2010 02:46:05 12.6 C 10.51 g/m*3 12.6 C 0 km/h
1934 25-09-2010 02:58:05 12.6 C 10.51 g/m*3 12.6 C 0 km/h
1935 25-09-2010 03:10:05 12.7 C 10.58 g/m*3 12.7 C 0 km/h
1936 25-09-2010 03:22:05 12.6 C 10.51 g/m*3 12.6 C 0 km/h
1937 25-09-2010 03:34:05 12.6 C 10.51 g/m*3 12.6 C 0 km/h
1938 25-09-2010 03:46:05 12.6 C 10.51 g/m*3 12.6 C 0 km/h
1939 25-09-2010 03:58:05 12.6 C 10.51 g/m*3 12.6 C 0 km/h
1940 25-09-2010 04:10:05 12.6 C 10.51 g/m*3 12.6 C 0 km/h
1941 25-09-2010 04:22:05 12.5 C 10.44 g/m*3 12.5 C 0 km/h
1942 25-09-2010 04:34:05 12.6 C 10.51 g/m*3 12.6 C 0 km/h
1943 25-09-2010 04:46:05 12.5 C 10.44 g/m*3 12.5 C 0 km/h
1944 25-09-2010 04:58:06 12.5 C 10.44 g/m*3 12.5 C 0 km/h
1945 25-09-2010 05:10:06 12.5 C 10.44 g/m*3 12.5 C 0 km/h
1946 25-09-2010 05:22:06 12.4 C 10.38 g/m*3 12.4 C 0 km/h
1947 25-09-2010 05:34:06 12.4 C 10.38 g/m*3 12.4 C 0 km/h
1948 25-09-2010 05:46:06 12.3 C 10.32 g/m*3 12.3 C 0 km/h
1949 25-09-2010 05:58:06 12.3 C 10.21 g/m*3 12.3 C 0 km/h
1950 25-09-2010 06:10:06 12.1 C 10.08 g/m*3 12.1 C 0 km/h
Sensor: Nr:Datum:Temp:Abs-Feuchte:Windchill:Wind:
Aussen-T/F 1951 25-09-2010 06:22:06 12.1 C 10.08 g/m*3 12.1 C 0 km/h
1952 25-09-2010 06:34:06 12.1 C 10.08 g/m*3 12.1 C 0 km/h
1953 25-09-2010 06:46:06 12 C 10.02 g/m*3 12 C 0 km/h
1954 25-09-2010 06:58:06 12 C 10.02 g/m*3 12 C 0 km/h
1955 25-09-2010 07:10:06 12 C 10.02 g/m*3 12 C 0 km/h
1956 25-09-2010 07:22:06 11.9 C 9.96 g/m*3 11.9 C 0 km/h
1957 25-09-2010 07:34:06 11.9 C 9.96 g/m*3 11.9 C 0 km/h
1958 25-09-2010 07:46:02 11.8 C 9.89 g/m*3 11.8 C 0 km/h
1959 25-09-2010 07:58:02 11.8 C 9.89 g/m*3 11.8 C 0 km/h
1960 25-09-2010 08:10:02 11.7 C 9.83 g/m*3 11.7 C 0 km/h
1961 25-09-2010 08:22:02 11.6 C 9.77 g/m*3 11.6 C 0 km/h
1962 25-09-2010 08:34:02 11.2 C 9.43 g/m*3 11.2 C 0 km/h
1963 25-09-2010 08:46:02 11 C 9.31 g/m*3 11 C 0 km/h
1964 25-09-2010 08:58:02 10.8 C 9.19 g/m*3 10.8 C 0 km/h
1965 25-09-2010 09:10:01 10.6 C 9.08 g/m*3 10.6 C 0 km/h
1966 25-09-2010 09:22:02 10.4 C 8.96 g/m*3 10.4 C 0 km/h
1967 25-09-2010 09:34:02 10.5 C 8.92 g/m*3 10.5 C 0 km/h
1968 25-09-2010 09:46:02 10.5 C 8.83 g/m*3 10.5 C 0 km/h
1969 25-09-2010 09:58:02 10.4 C 8.29 g/m*3 10.4 C 0 km/h
1970 25-09-2010 10:10:03 10.5 C 8.15 g/m*3 10.5 C 0 km/h
1971 25-09-2010 10:22:02 10.8 C 8.2 g/m*3 10.8 C 0 km/h
1972 25-09-2010 10:34:02 11.1 C 8.36 g/m*3 11.1 C 0 km/h
1973 25-09-2010 10:46:01 11.3 C 8.36 g/m*3 11.3 C 0 km/h
1974 25-09-2010 10:58:01 11.5 C 8.16 g/m*3 11.5 C 0 km/h
1975 25-09-2010 11:10:02 11.6 C 7.8 g/m*3 11.6 C 0 km/h
Sensor: Nr:Datum:Temp:Abs-Feuchte:Windchill:Wind:
Aussen-T/F 1976 25-09-2010 11:22:01 12.1 C 7.72 g/m*3 12.1 C 0 km/h
1977 25-09-2010 11:34:02 12.3 C 7.38 g/m*3 12.3 C 0 km/h
1978 25-09-2010 11:46:01 12.5 C 7.26 g/m*3 12.5 C 0 km/h
1979 25-09-2010 11:58:01 13 C 7.03 g/m*3 13 C 0 km/h
1980 25-09-2010 12:10:02 12.8 C 6.83 g/m*3 12.8 C 0 km/h
1981 25-09-2010 12:22:01 12.8 C 7.06 g/m*3 12.8 C 0 km/h
1982 25-09-2010 12:34:02 12.4 C 6.88 g/m*3 12.4 C 0 km/h
1983 25-09-2010 12:46:02 11.8 C 6.84 g/m*3 11.8 C 0 km/h
1984 25-09-2010 12:58:02 12.4 C 6.88 g/m*3 12.4 C 0 km/h
1985 25-09-2010 13:10:02 12.7 C 6.68 g/m*3 12.7 C 0 km/h
1986 25-09-2010 13:22:01 13 C 6.35 g/m*3 13 C 0 km/h
1987 25-09-2010 13:34:02 13.8 C 6.43 g/m*3 13.8 C 0 km/h
1988 25-09-2010 13:46:01 13.5 C 5.38 g/m*3 13.5 C 0 km/h
1989 25-09-2010 13:58:01 13.3 C 5.31 g/m*3 13.3 C 0 km/h
1990 25-09-2010 14:10:02 13.7 C 5.45 g/m*3 13.7 C 0 km/h
1991 25-09-2010 14:22:01 13.5 C 5.5 g/m*3 13.5 C 0 km/h
1992 25-09-2010 14:34:02 13.8 C 5.36 g/m*3 13.8 C 0 km/h
1993 25-09-2010 14:46:01 14.4 C 5.32 g/m*3 14.4 C 0 km/h
1994 25-09-2010 14:58:01 15.8 C 5.12 g/m*3 15.8 C 0 km/h
1995 25-09-2010 15:10:02 14.8 C 4.43 g/m*3 14.8 C 0 km/h
1996 25-09-2010 15:22:02 14.5 C 4.6 g/m*3 14.5 C 0 km/h
1997 25-09-2010 15:34:01 15.7 C 4.68 g/m*3 15.7 C 0 km/h
1998 25-09-2010 15:46:02 15.5 C 4.63 g/m*3 15.5 C 0 km/h
1999 25-09-2010 15:58:02 14.7 C 5.04 g/m*3 14.7 C 0 km/h
2000 25-09-2010 16:10:01 14.2 C 4.88 g/m*3 14.2 C 0 km/h
Sensor: Nr:Datum:Temp:Abs-Feuchte:Windchill:Wind:
Aussen-T/F 2001 25-09-2010 16:22:02 14.4 C 5.07 g/m*3 14.4 C 0 km/h
2002 25-09-2010 16:34:01 14.7 C 5.16 g/m*3 14.7 C 0 km/h
2003 25-09-2010 16:46:02 15.6 C 4.79 g/m*3 15.6 C 0 km/h
2004 25-09-2010 16:58:02 14.7 C 4.91 g/m*3 14.7 C 0 km/h
2005 25-09-2010 17:10:02 14.3 C 4.91 g/m*3 14.3 C 0 km/h
2006 25-09-2010 17:22:02 14.8 C 5.32 g/m*3 14.8 C 0 km/h
2007 25-09-2010 17:34:03 15.6 C 5.19 g/m*3 15.6 C 0 km/h
2008 25-09-2010 17:46:02 16.8 C 5.15 g/m*3 16.8 C 0 km/h
2009 25-09-2010 17:58:02 16.5 C 4.77 g/m*3 16.5 C 0 km/h
2010 25-09-2010 18:10:01 15.4 C 4.47 g/m*3 15.4 C 0 km/h
2011 25-09-2010 18:22:01 14.3 C 4.67 g/m*3 14.3 C 0 km/h
2012 25-09-2010 18:34:02 13.9 C 4.92 g/m*3 13.9 C 0 km/h
2013 25-09-2010 18:46:02 13.8 C 5.36 g/m*3 13.8 C 0 km/h
2014 25-09-2010 18:58:02 13.7 C 5.8 g/m*3 13.7 C 0 km/h
2015 25-09-2010 19:10:02 13.5 C 5.5 g/m*3 13.5 C 0 km/h
2016 25-09-2010 19:22:02 13.1 C 5.59 g/m*3 13.1 C 0 km/h
2017 25-09-2010 19:34:02 13 C 5.67 g/m*3 13 C 0 km/h
2018 25-09-2010 19:46:02 12.7 C 5.9 g/m*3 12.7 C 0 km/h
2019 25-09-2010 19:58:02 12.6 C 6.08 g/m*3 12.6 C 0 km/h
2020 25-09-2010 20:10:02 12.5 C 5.72 g/m*3 12.5 C 0 km/h
2021 25-09-2010 20:22:02 12.2 C 5.61 g/m*3 12.2 C 0 km/h
2022 25-09-2010 20:34:02 11.8 C 5.79 g/m*3 11.8 C 0 km/h
2023 25-09-2010 20:46:02 11.1 C 6.04 g/m*3 11.1 C 0 km/h
2024 25-09-2010 20:58:02 10.9 C 6.17 g/m*3 10.9 C 0 km/h
2025 25-09-2010 21:10:02 10.4 C 6.17 g/m*3 10.4 C 0 km/h
Sensor: Nr:Datum:Temp:Abs-Feuchte:Windchill:Wind:
Aussen-T/F 2026 25-09-2010 21:22:03 10.2 C 6.28 g/m*3 10.2 C 0 km/h
2027 25-09-2010 21:34:02 10.1 C 6.34 g/m*3 10.1 C 0 km/h
2028 25-09-2010 21:46:03 10 C 6.3 g/m*3 10 C 0 km/h
2029 25-09-2010 21:58:03 9.9 C 6.44 g/m*3 9.9 C 0 km/h
2030 25-09-2010 22:10:02 9.9 C 6.54 g/m*3 9.9 C 0 km/h
2031 25-09-2010 22:22:02 10.2 C 6.57 g/m*3 10.2 C 0 km/h
2032 25-09-2010 22:34:02 10.5 C 6.69 g/m*3 10.5 C 0 km/h
2033 25-09-2010 22:46:02 10.5 C 6.69 g/m*3 10.5 C 0 km/h
2034 25-09-2010 22:58:02 10.3 C 6.9 g/m*3 10.3 C 0 km/h
2035 25-09-2010 23:10:02 9.6 C 7.15 g/m*3 9.6 C 0 km/h
2036 25-09-2010 23:22:02 9.3 C 7.28 g/m*3 9.3 C 0 km/h
2037 25-09-2010 23:34:01 9.2 C 7.5 g/m*3 9.2 C 0 km/h
2038 25-09-2010 23:46:02 9.1 C 7.45 g/m*3 9.1 C 0 km/h
2039 25-09-2010 23:58:02 9.2 C 7.59 g/m*3 9.2 C 0 km/h
2040 26-09-2010 00:10:01 9.1 C 7.63 g/m*3 9.1 C 0 km/h
2041 26-09-2010 00:22:02 9.5 C 7.92 g/m*3 9.5 C 0 km/h
2042 26-09-2010 00:34:02 9.5 C 7.92 g/m*3 9.5 C 0 km/h
2043 26-09-2010 00:46:02 9.6 C 7.79 g/m*3 9.6 C 0 km/h
2044 26-09-2010 00:58:02 9.5 C 7.55 g/m*3 9.5 C 0 km/h
2045 26-09-2010 01:10:02 9.5 C 7.37 g/m*3 9.5 C 0 km/h
2046 26-09-2010 01:22:02 9.5 C 7.28 g/m*3 9.5 C 0 km/h
2047 26-09-2010 01:34:02 9.4 C 7.15 g/m*3 9.4 C 0 km/h
2048 26-09-2010 01:46:01 9.5 C 7.19 g/m*3 9.5 C 0 km/h
2049 26-09-2010 01:58:01 9.5 C 7.19 g/m*3 9.5 C 0 km/h
2050 26-09-2010 02:10:02 9.5 C 7.19 g/m*3 9.5 C 0 km/h
Sensor: Nr:Datum:Temp:Abs-Feuchte:Windchill:Wind:
Aussen-T/F 2051 26-09-2010 02:22:01 9.5 C 7.1 g/m*3 9.5 C 0 km/h
2052 26-09-2010 02:34:01 9.3 C 7.01 g/m*3 9.3 C 0 km/h
2053 26-09-2010 02:46:01 9.4 C 6.96 g/m*3 9.4 C 0 km/h
2054 26-09-2010 02:58:01 9.4 C 6.96 g/m*3 9.4 C 0 km/h
2055 26-09-2010 03:10:01 9.3 C 6.92 g/m*3 9.3 C 0 km/h
2056 26-09-2010 03:22:01 9.3 C 7.01 g/m*3 9.3 C 0 km/h
2057 26-09-2010 03:34:01 9.3 C 7.1 g/m*3 9.3 C 0 km/h
2058 26-09-2010 03:46:01 9.1 C 7.1 g/m*3 9.1 C 0 km/h
2059 26-09-2010 03:58:01 9 C 7.23 g/m*3 9 C 0 km/h
2060 26-09-2010 04:10:01 9 C 7.32 g/m*3 9 C 0 km/h
2061 26-09-2010 04:22:01 9 C 7.23 g/m*3 9 C 0 km/h
2062 26-09-2010 04:34:02 8.9 C 7.27 g/m*3 8.9 C 0 km/h
2063 26-09-2010 04:46:01 8.7 C 7.26 g/m*3 8.7 C 0 km/h
2064 26-09-2010 04:58:01 8.8 C 7.31 g/m*3 8.8 C 0 km/h
2065 26-09-2010 05:10:02 9 C 7.32 g/m*3 9 C 0 km/h
2066 26-09-2010 05:22:01 9.1 C 7.36 g/m*3 9.1 C 0 km/h
2067 26-09-2010 05:34:01 9 C 7.32 g/m*3 9 C 0 km/h
2068 26-09-2010 05:46:01 9 C 7.32 g/m*3 9 C 0 km/h
2069 26-09-2010 05:58:01 9 C 7.32 g/m*3 9 C 0 km/h
2070 26-09-2010 06:10:02 9 C 7.32 g/m*3 9 C 0 km/h
2071 26-09-2010 06:22:01 9.1 C 7.36 g/m*3 9.1 C 0 km/h
2072 26-09-2010 06:34:01 8.8 C 7.31 g/m*3 8.8 C 0 km/h
2073 26-09-2010 06:46:01 8.8 C 7.4 g/m*3 8.8 C 0 km/h
2074 26-09-2010 06:58:01 8.8 C 7.49 g/m*3 8.8 C 0 km/h
2075 26-09-2010 07:10:01 8.8 C 7.49 g/m*3 8.8 C 0 km/h
Sensor: Nr:Datum:Temp:Abs-Feuchte:Windchill:Wind:
Aussen-T/F 2076 26-09-2010 07:22:02 8.5 C 7.26 g/m*3 8.5 C 0 km/h
2077 26-09-2010 07:34:01 8.6 C 7.39 g/m*3 8.6 C 0 km/h
2078 26-09-2010 07:46:02 8.9 C 7.62 g/m*3 8.9 C 0 km/h
2079 26-09-2010 07:58:02 9.2 C 7.5 g/m*3 9.2 C 0 km/h
2080 26-09-2010 08:10:01 9.5 C 7.55 g/m*3 9.5 C 0 km/h
2081 26-09-2010 08:22:02 9.6 C 7.33 g/m*3 9.6 C 0 km/h
2082 26-09-2010 08:34:01 9.7 C 7.19 g/m*3 9.7 C 0 km/h
2083 26-09-2010 08:46:02 9.7 C 7.19 g/m*3 9.7 C 0 km/h
2084 26-09-2010 08:58:02 9.6 C 7.24 g/m*3 9.6 C 0 km/h
2085 26-09-2010 09:10:01 9.4 C 7.24 g/m*3 9.4 C 0 km/h
2086 26-09-2010 09:22:01 9.4 C 7.33 g/m*3 9.4 C 0 km/h
2087 26-09-2010 09:34:02 10.5 C 7.57 g/m*3 10.5 C 0 km/h
2088 26-09-2010 09:46:01 11 C 7.11 g/m*3 11 C 0 km/h
2089 26-09-2010 09:58:01 11 C 6.61 g/m*3 11 C 0 km/h
2090 26-09-2010 10:10:02 11 C 6.61 g/m*3 11 C 0 km/h
2091 26-09-2010 10:22:01 11.6 C 6.76 g/m*3 11.6 C 0 km/h
2092 26-09-2010 10:34:02 12 C 6.61 g/m*3 12 C 0 km/h
2093 26-09-2010 10:46:01 11.9 C 6.78 g/m*3 11.9 C 0 km/h
2094 26-09-2010 10:58:01 12.7 C 7.01 g/m*3 12.7 C 0 km/h
2095 26-09-2010 11:10:02 12.9 C 6.42 g/m*3 12.9 C 0 km/h
2096 26-09-2010 11:22:01 13.1 C 6.5 g/m*3 13.1 C 0 km/h
2097 26-09-2010 11:34:02 13.2 C 6.66 g/m*3 13.2 C 0 km/h
2098 26-09-2010 11:46:02 13.5 C 6.32 g/m*3 13.5 C 0 km/h
2099 26-09-2010 11:58:02 13.4 C 6.28 g/m*3 13.4 C 0 km/h
2100 26-09-2010 12:10:01 14 C 6.39 g/m*3 14 C 0 km/h
Sensor: Nr:Datum:Temp:Abs-Feuchte:Windchill:Wind:
Aussen-T/F 2101 26-09-2010 12:22:02 14.3 C 6.51 g/m*3 14.3 C 0 km/h
2102 26-09-2010 12:34:01 14.6 C 6.51 g/m*3 14.6 C 0 km/h
2103 26-09-2010 12:46:01 15 C 6.28 g/m*3 15 C 0 km/h
2104 26-09-2010 12:58:01 14.5 C 6.22 g/m*3 14.5 C 0 km/h
2105 26-09-2010 13:10:02 14.5 C 6.34 g/m*3 14.5 C 0 km/h
2106 26-09-2010 13:22:01 13.2 C 7.12 g/m*3 13.2 C 0 km/h
2107 26-09-2010 13:34:01 12.6 C 7.63 g/m*3 12.6 C 0 km/h
2108 26-09-2010 13:46:01 12.4 C 8.3 g/m*3 12.4 C 0 km/h
2109 26-09-2010 13:58:01 12.3 C 8.25 g/m*3 12.3 C 0 km/h
2110 26-09-2010 14:10:01 13.2 C 8.61 g/m*3 13.2 C 0 km/h
2111 26-09-2010 14:22:01 13.4 C 8.37 g/m*3 13.4 C 0 km/h
2112 26-09-2010 14:34:01 13.3 C 8.43 g/m*3 13.3 C 0 km/h
2113 26-09-2010 14:46:01 13.2 C 8.15 g/m*3 13.2 C 0 km/h
2114 26-09-2010 14:58:01 13.4 C 7.9 g/m*3 13.4 C 0 km/h
2115 26-09-2010 15:10:01 13.6 C 7.89 g/m*3 13.6 C 0 km/h
2116 26-09-2010 15:22:02 13.9 C 8.39 g/m*3 13.9 C 0 km/h
2117 26-09-2010 15:34:01 14.4 C 8.16 g/m*3 14.4 C 0 km/h
2118 26-09-2010 15:46:02 14.5 C 7.96 g/m*3 14.5 C 0 km/h
2119 26-09-2010 15:58:02 14.5 C 8.21 g/m*3 14.5 C 0 km/h
2120 26-09-2010 16:10:01 13.7 C 7.7 g/m*3 13.7 C 0 km/h
2121 26-09-2010 16:22:02 13.8 C 7.51 g/m*3 13.8 C 0 km/h
2122 26-09-2010 16:34:01 15.7 C 7.09 g/m*3 15.7 C 0 km/h
2123 26-09-2010 16:46:01 15.5 C 6.21 g/m*3 15.5 C 0 km/h
2124 26-09-2010 16:58:01 15.9 C 6.5 g/m*3 15.9 C 0 km/h
2125 26-09-2010 17:10:01 16.1 C 6.44 g/m*3 16.1 C 0 km/h
Sensor: Nr:Datum:Temp:Abs-Feuchte:Windchill:Wind:
Aussen-T/F 2126 26-09-2010 17:22:01 15.6 C 6.38 g/m*3 15.6 C 0 km/h
2127 26-09-2010 17:34:02 15.4 C 6.7 g/m*3 15.4 C 0 km/h
2128 26-09-2010 17:46:01 14.6 C 6.76 g/m*3 14.6 C 0 km/h
2129 26-09-2010 17:58:01 14.2 C 6.72 g/m*3 14.2 C 0 km/h
2130 26-09-2010 18:10:02 13.6 C 6.83 g/m*3 13.6 C 0 km/h
2131 26-09-2010 18:22:01 13.1 C 6.85 g/m*3 13.1 C 0 km/h
2132 26-09-2010 18:34:01 12.9 C 6.99 g/m*3 12.9 C 0 km/h
2133 26-09-2010 18:46:01 12.7 C 7.01 g/m*3 12.7 C 0 km/h
2134 26-09-2010 18:58:01 12.5 C 7.04 g/m*3 12.5 C 0 km/h
2135 26-09-2010 19:10:02 12.4 C 7.1 g/m*3 12.4 C 0 km/h
2136 26-09-2010 19:22:01 12.4 C 7.1 g/m*3 12.4 C 0 km/h
2137 26-09-2010 19:34:01 12.2 C 7.01 g/m*3 12.2 C 0 km/h
2138 26-09-2010 19:46:01 12.1 C 7.18 g/m*3 12.1 C 0 km/h
2139 26-09-2010 19:58:01 12.1 C 7.08 g/m*3 12.1 C 0 km/h
2140 26-09-2010 20:10:02 12 C 7.25 g/m*3 12 C 0 km/h
2141 26-09-2010 20:22:01 11.9 C 7.31 g/m*3 11.9 C 0 km/h
2142 26-09-2010 20:34:01 11.7 C 7.22 g/m*3 11.7 C 0 km/h
2143 26-09-2010 20:46:01 11.7 C 7.22 g/m*3 11.7 C 0 km/h
2144 26-09-2010 20:58:01 11.6 C 7.07 g/m*3 11.6 C 0 km/h
2145 26-09-2010 21:10:01 11.6 C 7.07 g/m*3 11.6 C 0 km/h
2146 26-09-2010 21:22:01 11.4 C 7.08 g/m*3 11.4 C 0 km/h
2147 26-09-2010 21:34:01 11.2 C 7.1 g/m*3 11.2 C 0 km/h
2148 26-09-2010 21:46:01 10.9 C 7.16 g/m*3 10.9 C 0 km/h
2149 26-09-2010 21:58:01 10.7 C 7.17 g/m*3 10.7 C 0 km/h
2150 26-09-2010 22:10:01 10.3 C 6.99 g/m*3 10.3 C 0 km/h
Sensor: Nr:Datum:Temp:Abs-Feuchte:Windchill:Wind:
Aussen-T/F 2151 26-09-2010 22:22:01 10 C 7.05 g/m*3 10 C 0 km/h
2152 26-09-2010 22:34:01 9.7 C 7.1 g/m*3 9.7 C 0 km/h
2153 26-09-2010 22:47:04 9.3 C 7.1 g/m*3 9.3 C 0 km/h
2154 26-09-2010 22:59:04 9.2 C 7.05 g/m*3 9.2 C 0 km/h
2155 26-09-2010 23:11:04 9 C 7.05 g/m*3 9 C 0 km/h
2156 26-09-2010 23:23:04 8.9 C 7.18 g/m*3 8.9 C 0 km/h
2157 26-09-2010 23:35:04 8.9 C 7.27 g/m*3 8.9 C 0 km/h
2158 26-09-2010 23:47:04 8.8 C 7.22 g/m*3 8.8 C 0 km/h
2159 26-09-2010 23:59:04 8.6 C 7.13 g/m*3 8.6 C 0 km/h
2160 27-09-2010 00:11:04 8.5 C 7.17 g/m*3 8.5 C 0 km/h
2161 27-09-2010 00:23:04 8.2 C 7.03 g/m*3 8.2 C 0 km/h
2162 27-09-2010 00:35:04 8.1 C 6.99 g/m*3 8.1 C 0 km/h
2163 27-09-2010 00:47:04 7.9 C 6.98 g/m*3 7.9 C 0 km/h
2164 27-09-2010 00:59:04 7.9 C 7.15 g/m*3 7.9 C 0 km/h
2165 27-09-2010 01:11:04 7.8 C 7.18 g/m*3 7.8 C 0 km/h
2166 27-09-2010 01:23:04 7.6 C 7.09 g/m*3 7.6 C 0 km/h
2167 27-09-2010 01:35:04 7.5 C 7.04 g/m*3 7.5 C 0 km/h
2168 27-09-2010 01:47:04 7.3 C 6.95 g/m*3 7.3 C 0 km/h
2169 27-09-2010 01:59:04 7.1 C 6.94 g/m*3 7.1 C 0 km/h
2170 27-09-2010 02:11:04 7 C 6.9 g/m*3 7 C 0 km/h
2171 27-09-2010 02:23:04 7 C 6.9 g/m*3 7 C 0 km/h
2172 27-09-2010 02:35:05 6.8 C 6.81 g/m*3 6.8 C 0 km/h
2173 27-09-2010 02:47:05 6.7 C 6.84 g/m*3 6.7 C 0 km/h
2174 27-09-2010 02:59:05 6.7 C 6.84 g/m*3 6.7 C 0 km/h
2175 27-09-2010 03:11:05 6.5 C 6.75 g/m*3 6.5 C 0 km/h
Sensor: Nr:Datum:Temp:Abs-Feuchte:Windchill:Wind:
Aussen-T/F 2176 27-09-2010 03:23:05 6.7 C 6.84 g/m*3 6.7 C 0 km/h
2177 27-09-2010 03:35:05 6.4 C 6.71 g/m*3 6.4 C 0 km/h
2178 27-09-2010 03:47:05 6.3 C 6.66 g/m*3 6.3 C 0 km/h
2179 27-09-2010 03:59:05 6.4 C 6.78 g/m*3 6.4 C 0 km/h
2180 27-09-2010 04:11:05 6.5 C 6.9 g/m*3 6.5 C 0 km/h
2181 27-09-2010 04:23:05 6.4 C 6.85 g/m*3 6.4 C 0 km/h
2182 27-09-2010 04:35:05 6.3 C 6.81 g/m*3 6.3 C 0 km/h
2183 27-09-2010 04:47:05 6.1 C 6.72 g/m*3 6.1 C 0 km/h
2184 27-09-2010 04:59:05 5.9 C 6.71 g/m*3 5.9 C 0 km/h
2185 27-09-2010 05:11:05 5.9 C 6.71 g/m*3 5.9 C 0 km/h
2186 27-09-2010 05:23:05 6.1 C 6.72 g/m*3 6.1 C 0 km/h
2187 27-09-2010 05:35:05 6.3 C 6.81 g/m*3 6.3 C 0 km/h
2188 27-09-2010 05:47:05 6.4 C 6.93 g/m*3 6.4 C 0 km/h
2189 27-09-2010 05:59:05 6.5 C 6.97 g/m*3 6.5 C 0 km/h
2190 27-09-2010 06:11:05 6.5 C 6.97 g/m*3 6.5 C 0 km/h
2191 27-09-2010 06:23:05 6.4 C 6.93 g/m*3 6.4 C 0 km/h
2192 27-09-2010 06:35:05 6.2 C 6.84 g/m*3 6.2 C 0 km/h
2193 27-09-2010 06:47:06 6.2 C 6.84 g/m*3 6.2 C 0 km/h
2194 27-09-2010 06:59:06 6.3 C 6.88 g/m*3 6.3 C 0 km/h
2195 27-09-2010 07:11:04 6.3 C 6.88 g/m*3 6.3 C 0 km/h
2196 27-09-2010 07:23:04 6.6 C 7.02 g/m*3 6.6 C 0 km/h
2197 27-09-2010 07:35:04 6.7 C 7.14 g/m*3 6.7 C 0 km/h
2198 27-09-2010 07:47:02 6.9 C 7.24 g/m*3 6.9 C 0 km/h
2199 27-09-2010 07:59:02 7.2 C 7.38 g/m*3 7.2 C 0 km/h
2200 27-09-2010 08:11:02 7.5 C 7.52 g/m*3 7.5 C 0 km/h
Sensor: Nr:Datum:Temp:Abs-Feuchte:Windchill:Wind:
Aussen-T/F 2201 27-09-2010 08:23:02 7.5 C 7.52 g/m*3 7.5 C 0 km/h
2202 27-09-2010 08:35:02 7.6 C 7.57 g/m*3 7.6 C 0 km/h
2203 27-09-2010 08:47:02 7.8 C 7.67 g/m*3 7.8 C 0 km/h
2204 27-09-2010 08:59:02 8.1 C 7.74 g/m*3 8.1 C 0 km/h
2205 27-09-2010 09:11:02 8.5 C 7.94 g/m*3 8.5 C 0 km/h
2206 27-09-2010 09:23:02 8.8 C 8.09 g/m*3 8.8 C 0 km/h
2207 27-09-2010 09:35:02 9.2 C 8.22 g/m*3 9.2 C 0 km/h
2208 27-09-2010 09:47:01 9.6 C 8.34 g/m*3 9.6 C 0 km/h
2209 27-09-2010 09:59:01 10.1 C 8.42 g/m*3 10.1 C 0 km/h
2210 27-09-2010 10:11:02 10.4 C 8.29 g/m*3 10.4 C 0 km/h
2211 27-09-2010 10:23:01 10.4 C 7.9 g/m*3 10.4 C 0 km/h
2212 27-09-2010 10:35:02 10.8 C 7.51 g/m*3 10.8 C 0 km/h
2213 27-09-2010 10:47:01 11 C 7.11 g/m*3 11 C 0 km/h
2214 27-09-2010 10:59:01 11.2 C 6.99 g/m*3 11.2 C 0 km/h
2215 27-09-2010 11:11:02 11.7 C 7.01 g/m*3 11.7 C 0 km/h
2216 27-09-2010 11:23:01 11.8 C 6.74 g/m*3 11.8 C 0 km/h
2217 27-09-2010 11:35:02 12.2 C 6.8 g/m*3 12.2 C 0 km/h
2218 27-09-2010 11:47:01 12 C 6.61 g/m*3 12 C 0 km/h
2219 27-09-2010 11:59:01 12.2 C 6.8 g/m*3 12.2 C 0 km/h
2220 27-09-2010 12:11:02 12.4 C 6.77 g/m*3 12.4 C 0 km/h
2221 27-09-2010 12:23:01 12.8 C 6.94 g/m*3 12.8 C 0 km/h
2222 27-09-2010 12:35:02 12.8 C 6.83 g/m*3 12.8 C 0 km/h
2223 27-09-2010 12:47:01 13 C 6.8 g/m*3 13 C 0 km/h
2224 27-09-2010 12:59:01 12.9 C 6.76 g/m*3 12.9 C 0 km/h
2225 27-09-2010 13:11:02 13.1 C 6.73 g/m*3 13.1 C 0 km/h
Sensor: Nr:Datum:Temp:Abs-Feuchte:Windchill:Wind:
Aussen-T/F 2226 27-09-2010 13:23:02 13.4 C 6.97 g/m*3 13.4 C 0 km/h
2227 27-09-2010 13:35:01 13.6 C 6.71 g/m*3 13.6 C 0 km/h
2228 27-09-2010 13:47:02 13.6 C 6.71 g/m*3 13.6 C 0 km/h
2229 27-09-2010 13:59:02 13.7 C 6.51 g/m*3 13.7 C 0 km/h
2230 27-09-2010 14:11:01 13.4 C 6.51 g/m*3 13.4 C 0 km/h
2231 27-09-2010 14:23:02 13.3 C 6.7 g/m*3 13.3 C 0 km/h
2232 27-09-2010 14:35:01 13.4 C 6.74 g/m*3 13.4 C 0 km/h
2233 27-09-2010 14:47:03 13.2 C 6.77 g/m*3 13.2 C 0 km/h
2234 27-09-2010 14:59:03 13 C 6.58 g/m*3 13 C 0 km/h
2235 27-09-2010 15:11:02 13.4 C 6.74 g/m*3 13.4 C 0 km/h
2236 27-09-2010 15:23:02 13.6 C 6.59 g/m*3 13.6 C 0 km/h
2237 27-09-2010 15:35:02 13.6 C 6.47 g/m*3 13.6 C 0 km/h
2238 27-09-2010 15:47:02 13.2 C 6.66 g/m*3 13.2 C 0 km/h
2239 27-09-2010 15:59:02 13.2 C 6.77 g/m*3 13.2 C 0 km/h
2240 27-09-2010 16:11:01 13.4 C 6.97 g/m*3 13.4 C 0 km/h
2241 27-09-2010 16:23:02 13.4 C 7.44 g/m*3 13.4 C 0 km/h
2242 27-09-2010 16:35:02 13.4 C 7.44 g/m*3 13.4 C 0 km/h
2243 27-09-2010 16:47:01 13.3 C 7.05 g/m*3 13.3 C 0 km/h
2244 27-09-2010 16:59:01 13.4 C 7.09 g/m*3 13.4 C 0 km/h
2245 27-09-2010 17:11:01 13.2 C 7.58 g/m*3 13.2 C 0 km/h
2246 27-09-2010 17:23:01 13 C 7.6 g/m*3 13 C 0 km/h
2247 27-09-2010 17:35:02 12.8 C 7.73 g/m*3 12.8 C 0 km/h
2248 27-09-2010 17:47:02 12.8 C 7.84 g/m*3 12.8 C 0 km/h
2249 27-09-2010 17:59:02 12.7 C 7.68 g/m*3 12.7 C 0 km/h
2250 27-09-2010 18:11:02 12.5 C 7.59 g/m*3 12.5 C 0 km/h
Sensor: Nr:Datum:Temp:Abs-Feuchte:Windchill:Wind:
Aussen-T/F 2251 27-09-2010 18:23:01 12.3 C 7.71 g/m*3 12.3 C 0 km/h
2252 27-09-2010 18:35:02 11.9 C 7.73 g/m*3 11.9 C 0 km/h
2253 27-09-2010 18:47:02 11.7 C 7.74 g/m*3 11.7 C 0 km/h
2254 27-09-2010 18:59:02 11.3 C 7.85 g/m*3 11.3 C 0 km/h
2255 27-09-2010 19:11:02 10.8 C 8.01 g/m*3 10.8 C 0 km/h
2256 27-09-2010 19:23:02 10.7 C 8.15 g/m*3 10.7 C 0 km/h
2257 27-09-2010 19:35:02 10.5 C 8.15 g/m*3 10.5 C 0 km/h
2258 27-09-2010 19:47:02 10.5 C 8.15 g/m*3 10.5 C 0 km/h
2259 27-09-2010 19:59:02 10.4 C 8.19 g/m*3 10.4 C 0 km/h
2260 27-09-2010 20:11:02 10.3 C 8.24 g/m*3 10.3 C 0 km/h
2261 27-09-2010 20:23:02 10.3 C 8.33 g/m*3 10.3 C 0 km/h
2262 27-09-2010 20:35:02 10.3 C 8.43 g/m*3 10.3 C 0 km/h
2263 27-09-2010 20:47:01 10.3 C 8.43 g/m*3 10.3 C 0 km/h
2264 27-09-2010 20:59:01 10.3 C 8.52 g/m*3 10.3 C 0 km/h
2265 27-09-2010 21:11:02 10.4 C 8.58 g/m*3 10.4 C 0 km/h
2266 27-09-2010 21:23:01 10.2 C 8.47 g/m*3 10.2 C 0 km/h
2267 27-09-2010 21:35:02 10.3 C 8.52 g/m*3 10.3 C 0 km/h
2268 27-09-2010 21:47:02 10.4 C 8.58 g/m*3 10.4 C 0 km/h
2269 27-09-2010 21:59:03 10.4 C 8.58 g/m*3 10.4 C 0 km/h
2270 27-09-2010 22:11:02 10.4 C 8.58 g/m*3 10.4 C 0 km/h
2271 27-09-2010 22:24:10 10.4 C 8.67 g/m*3 10.4 C 0 km/h
2272 27-09-2010 22:36:10 10.2 C 8.56 g/m*3 10.2 C 0 km/h
2273 27-09-2010 22:48:10 10.2 C 8.56 g/m*3 10.2 C 0 km/h
2274 27-09-2010 23:00:10 10.2 C 8.56 g/m*3 10.2 C 0 km/h
2275 27-09-2010 23:12:10 10.2 C 8.66 g/m*3 10.2 C 0 km/h
Sensor: Nr:Datum:Temp:Abs-Feuchte:Windchill:Wind:
Aussen-T/F 2276 27-09-2010 23:24:10 10.2 C 8.66 g/m*3 10.2 C 0 km/h
2277 27-09-2010 23:36:10 10.1 C 8.61 g/m*3 10.1 C 0 km/h
2278 27-09-2010 23:48:10 10.1 C 8.7 g/m*3 10.1 C 0 km/h
2279 28-09-2010 00:00:10 10.1 C 8.7 g/m*3 10.1 C 0 km/h
2280 28-09-2010 00:12:10 10 C 8.64 g/m*3 10 C 0 km/h
2281 28-09-2010 00:24:10 10 C 8.64 g/m*3 10 C 0 km/h
2282 28-09-2010 00:36:10 10 C 8.64 g/m*3 10 C 0 km/h
2283 28-09-2010 00:48:10 9.9 C 8.78 g/m*3 9.9 C 0 km/h
2284 28-09-2010 01:00:10 10 C 8.74 g/m*3 10 C 0 km/h
2285 28-09-2010 01:12:11 10 C 8.74 g/m*3 10 C 0 km/h
2286 28-09-2010 01:24:11 10 C 8.74 g/m*3 10 C 0 km/h
2287 28-09-2010 01:36:11 10 C 8.74 g/m*3 10 C 0 km/h
2288 28-09-2010 01:48:11 9.9 C 8.78 g/m*3 9.9 C 0 km/h
2289 28-09-2010 02:00:11 9.9 C 8.78 g/m*3 9.9 C 0 km/h
2290 28-09-2010 02:12:11 9.9 C 8.78 g/m*3 9.9 C 0 km/h
2291 28-09-2010 02:24:11 9.9 C 8.78 g/m*3 9.9 C 0 km/h
2292 28-09-2010 02:36:11 9.9 C 8.78 g/m*3 9.9 C 0 km/h
2293 28-09-2010 02:48:11 9.9 C 8.78 g/m*3 9.9 C 0 km/h
2294 28-09-2010 03:00:11 9.9 C 8.87 g/m*3 9.9 C 0 km/h
2295 28-09-2010 03:12:11 9.9 C 8.87 g/m*3 9.9 C 0 km/h
2296 28-09-2010 03:24:11 9.9 C 8.87 g/m*3 9.9 C 0 km/h
2297 28-09-2010 03:36:12 9.9 C 8.87 g/m*3 9.9 C 0 km/h
2298 28-09-2010 03:48:12 9.9 C 8.87 g/m*3 9.9 C 0 km/h
2299 28-09-2010 04:00:12 9.9 C 8.87 g/m*3 9.9 C 0 km/h
2300 28-09-2010 04:12:12 9.9 C 8.87 g/m*3 9.9 C 0 km/h
Sensor: Nr:Datum:Temp:Abs-Feuchte:Windchill:Wind:
Aussen-T/F 2301 28-09-2010 04:24:12 9.9 C 8.87 g/m*3 9.9 C 0 km/h
2302 28-09-2010 04:36:12 9.9 C 8.87 g/m*3 9.9 C 0 km/h
2303 28-09-2010 04:48:12 10 C 8.83 g/m*3 10 C 0 km/h
2304 28-09-2010 05:00:12 10 C 8.93 g/m*3 10 C 0 km/h
2305 28-09-2010 05:12:12 10 C 8.93 g/m*3 10 C 0 km/h
2306 28-09-2010 05:24:12 10 C 8.93 g/m*3 10 C 0 km/h
2307 28-09-2010 05:36:12 10 C 8.93 g/m*3 10 C 0 km/h
2308 28-09-2010 05:48:12 10 C 8.93 g/m*3 10 C 0 km/h
2309 28-09-2010 06:00:12 10.1 C 8.98 g/m*3 10.1 C 0 km/h
2310 28-09-2010 06:12:12 10.1 C 8.98 g/m*3 10.1 C 0 km/h
2311 28-09-2010 06:24:12 10.1 C 8.98 g/m*3 10.1 C 0 km/h
2312 28-09-2010 06:36:12 10.1 C 8.98 g/m*3 10.1 C 0 km/h
2313 28-09-2010 06:48:12 10 C 8.93 g/m*3 10 C 0 km/h
2314 28-09-2010 07:00:12 10 C 8.93 g/m*3 10 C 0 km/h
2315 28-09-2010 07:12:12 10 C 8.93 g/m*3 10 C 0 km/h
2316 28-09-2010 07:24:12 10 C 8.93 g/m*3 10 C 0 km/h
2317 28-09-2010 07:36:13 10 C 8.93 g/m*3 10 C 0 km/h
2318 28-09-2010 07:48:01 10 C 8.93 g/m*3 10 C 0 km/h
2319 28-09-2010 08:00:01 10 C 8.93 g/m*3 10 C 0 km/h
2320 28-09-2010 08:12:02 10 C 8.93 g/m*3 10 C 0 km/h
2321 28-09-2010 08:24:02 10 C 8.93 g/m*3 10 C 0 km/h
2322 28-09-2010 08:36:02 10.1 C 8.98 g/m*3 10.1 C 0 km/h
2323 28-09-2010 08:48:03 10.1 C 8.98 g/m*3 10.1 C 0 km/h
2324 28-09-2010 09:00:03 10.1 C 8.98 g/m*3 10.1 C 0 km/h
2325 28-09-2010 09:12:03 10.2 C 9.04 g/m*3 10.2 C 0 km/h
Sensor: Nr:Datum:Temp:Abs-Feuchte:Windchill:Wind:
Aussen-T/F 2326 28-09-2010 09:24:02 10.2 C 9.04 g/m*3 10.2 C 0 km/h
2327 28-09-2010 09:36:02 10.3 C 9.1 g/m*3 10.3 C 0 km/h
2328 28-09-2010 09:48:02 10.4 C 9.16 g/m*3 10.4 C 0 km/h
2329 28-09-2010 10:00:02 10.4 C 9.16 g/m*3 10.4 C 0 km/h
2330 28-09-2010 10:12:02 10.5 C 9.21 g/m*3 10.5 C 0 km/h
2331 28-09-2010 10:24:01 10.5 C 9.21 g/m*3 10.5 C 0 km/h
2332 28-09-2010 10:36:02 10.7 C 9.33 g/m*3 10.7 C 0 km/h
2333 28-09-2010 10:48:02 10.8 C 9.39 g/m*3 10.8 C 0 km/h
2334 28-09-2010 11:00:02 11 C 9.51 g/m*3 11 C 0 km/h
2335 28-09-2010 11:12:02 11 C 9.51 g/m*3 11 C 0 km/h
2336 28-09-2010 11:24:02 11.2 C 9.63 g/m*3 11.2 C 0 km/h
2337 28-09-2010 11:36:02 11.3 C 9.69 g/m*3 11.3 C 0 km/h
2338 28-09-2010 11:48:02 11.4 C 9.75 g/m*3 11.4 C 0 km/h
2339 28-09-2010 12:00:02 11.4 C 9.75 g/m*3 11.4 C 0 km/h
2340 28-09-2010 12:12:02 11.4 C 9.65 g/m*3 11.4 C 0 km/h
2341 28-09-2010 12:24:02 11.4 C 9.65 g/m*3 11.4 C 0 km/h
2342 28-09-2010 12:36:02 11.5 C 9.71 g/m*3 11.5 C 0 km/h
2343 28-09-2010 12:48:02 11.7 C 9.83 g/m*3 11.7 C 0 km/h
2344 28-09-2010 13:00:02 11.6 C 9.67 g/m*3 11.6 C 0 km/h
2345 28-09-2010 13:12:02 11.6 C 9.67 g/m*3 11.6 C 0 km/h
2346 28-09-2010 13:24:03 11.8 C 9.79 g/m*3 11.8 C 0 km/h
2347 28-09-2010 13:36:02 11.8 C 9.68 g/m*3 11.8 C 0 km/h
2348 28-09-2010 13:48:03 11.9 C 9.74 g/m*3 11.9 C 0 km/h
2349 28-09-2010 14:00:03 11.9 C 9.74 g/m*3 11.9 C 0 km/h
2350 28-09-2010 14:12:02 11.8 C 9.68 g/m*3 11.8 C 0 km/h
Sensor: Nr:Datum:Temp:Abs-Feuchte:Windchill:Wind:
Aussen-T/F 2351 28-09-2010 14:24:02 11.7 C 9.62 g/m*3 11.7 C 0 km/h
2352 28-09-2010 14:36:02 11.7 C 9.62 g/m*3 11.7 C 0 km/h
2353 28-09-2010 14:48:02 11.7 C 9.62 g/m*3 11.7 C 0 km/h
2354 28-09-2010 15:00:02 11.7 C 9.62 g/m*3 11.7 C 0 km/h
2355 28-09-2010 15:12:02 11.7 C 9.73 g/m*3 11.7 C 0 km/h
2356 28-09-2010 15:24:02 11.7 C 9.73 g/m*3 11.7 C 0 km/h
2357 28-09-2010 15:36:02 11.8 C 9.79 g/m*3 11.8 C 0 km/h
2358 28-09-2010 15:48:02 11.8 C 9.79 g/m*3 11.8 C 0 km/h
2359 28-09-2010 16:00:02 11.8 C 9.79 g/m*3 11.8 C 0 km/h
2360 28-09-2010 16:12:01 11.8 C 9.79 g/m*3 11.8 C 0 km/h
2361 28-09-2010 16:24:01 11.8 C 9.79 g/m*3 11.8 C 0 km/h
2362 28-09-2010 16:36:02 11.9 C 9.96 g/m*3 11.9 C 0 km/h
2363 28-09-2010 16:48:02 11.9 C 9.96 g/m*3 11.9 C 0 km/h
2364 28-09-2010 17:00:02 11.9 C 9.96 g/m*3 11.9 C 0 km/h
2365 28-09-2010 17:12:02 12 C 10.02 g/m*3 12 C 0 km/h
2366 28-09-2010 17:24:02 12 C 10.02 g/m*3 12 C 0 km/h
2367 28-09-2010 17:36:02 12 C 10.02 g/m*3 12 C 0 km/h
2368 28-09-2010 17:48:02 12 C 10.02 g/m*3 12 C 0 km/h
2369 28-09-2010 18:00:02 11.9 C 9.96 g/m*3 11.9 C 0 km/h
2370 28-09-2010 18:12:02 11.9 C 9.96 g/m*3 11.9 C 0 km/h
2371 28-09-2010 18:24:02 11.9 C 10.06 g/m*3 11.9 C 0 km/h
2372 28-09-2010 18:36:02 11.8 C 10 g/m*3 11.8 C 0 km/h
2373 28-09-2010 18:48:01 11.8 C 10 g/m*3 11.8 C 0 km/h
2374 28-09-2010 19:00:01 11.8 C 10 g/m*3 11.8 C 0 km/h
2375 28-09-2010 19:12:02 11.7 C 9.94 g/m*3 11.7 C 0 km/h
Sensor: Nr:Datum:Temp:Abs-Feuchte:Windchill:Wind:
Aussen-T/F 2376 28-09-2010 19:24:01 11.7 C 9.94 g/m*3 11.7 C 0 km/h
2377 28-09-2010 19:36:01 11.7 C 9.94 g/m*3 11.7 C 0 km/h
2378 28-09-2010 19:48:01 11.7 C 9.94 g/m*3 11.7 C 0 km/h
2379 28-09-2010 20:00:01 11.6 C 9.87 g/m*3 11.6 C 0 km/h
2380 28-09-2010 20:12:02 11.6 C 9.87 g/m*3 11.6 C 0 km/h
2381 28-09-2010 20:24:02 11.6 C 9.87 g/m*3 11.6 C 0 km/h
2382 28-09-2010 20:36:01 11.6 C 9.87 g/m*3 11.6 C 0 km/h
2383 28-09-2010 20:48:01 11.6 C 9.87 g/m*3 11.6 C 0 km/h
2384 28-09-2010 21:00:01 11.6 C 9.87 g/m*3 11.6 C 0 km/h
2385 28-09-2010 21:12:01 11.6 C 9.87 g/m*3 11.6 C 0 km/h
2386 28-09-2010 21:24:02 11.6 C 9.87 g/m*3 11.6 C 0 km/h
2387 28-09-2010 21:36:01 11.5 C 9.81 g/m*3 11.5 C 0 km/h
2388 28-09-2010 21:48:03 11.6 C 9.87 g/m*3 11.6 C 0 km/h
2389 28-09-2010 22:00:03 11.6 C 9.87 g/m*3 11.6 C 0 km/h
2390 28-09-2010 22:12:02 11.6 C 9.87 g/m*3 11.6 C 0 km/h
2391 28-09-2010 22:24:03 11.6 C 9.87 g/m*3 11.6 C 0 km/h
2392 28-09-2010 22:36:02 11.7 C 9.94 g/m*3 11.7 C 0 km/h
2393 28-09-2010 22:48:03 11.6 C 9.87 g/m*3 11.6 C 0 km/h
2394 28-09-2010 23:00:03 11.6 C 9.87 g/m*3 11.6 C 0 km/h
2395 28-09-2010 23:12:02 11.6 C 9.87 g/m*3 11.6 C 0 km/h
2396 28-09-2010 23:24:02 11.6 C 9.87 g/m*3 11.6 C 0 km/h
2397 28-09-2010 23:36:02 11.6 C 9.87 g/m*3 11.6 C 0 km/h
2398 28-09-2010 23:48:02 11.6 C 9.87 g/m*3 11.6 C 0 km/h
2399 29-09-2010 00:00:02 11.6 C 9.87 g/m*3 11.6 C 0 km/h
2400 29-09-2010 00:12:02 11.7 C 9.94 g/m*3 11.7 C 0 km/h
Sensor: Nr:Datum:Temp:Abs-Feuchte:Windchill:Wind:
Aussen-T/F 2401 29-09-2010 00:24:02 11.6 C 9.87 g/m*3 11.6 C 0 km/h
2402 29-09-2010 00:36:02 11.7 C 9.94 g/m*3 11.7 C 0 km/h
2403 29-09-2010 00:48:02 11.6 C 9.87 g/m*3 11.6 C 0 km/h
2404 29-09-2010 01:00:02 11.7 C 9.94 g/m*3 11.7 C 0 km/h
2405 29-09-2010 01:12:03 11.6 C 9.87 g/m*3 11.6 C 0 km/h
2406 29-09-2010 01:24:02 11.6 C 9.87 g/m*3 11.6 C 0 km/h
2407 29-09-2010 01:36:02 11.6 C 9.87 g/m*3 11.6 C 0 km/h
2408 29-09-2010 01:48:01 11.6 C 9.87 g/m*3 11.6 C 0 km/h
2409 29-09-2010 02:00:01 11.6 C 9.87 g/m*3 11.6 C 0 km/h
2410 29-09-2010 02:12:02 11.6 C 9.87 g/m*3 11.6 C 0 km/h
2411 29-09-2010 02:24:01 11.5 C 9.81 g/m*3 11.5 C 0 km/h
2412 29-09-2010 02:36:02 11.5 C 9.81 g/m*3 11.5 C 0 km/h
2413 29-09-2010 02:48:01 11.6 C 9.87 g/m*3 11.6 C 0 km/h
2414 29-09-2010 03:00:01 11.4 C 9.75 g/m*3 11.4 C 0 km/h
2415 29-09-2010 03:12:01 11.3 C 9.69 g/m*3 11.3 C 0 km/h
2416 29-09-2010 03:24:02 11.4 C 9.75 g/m*3 11.4 C 0 km/h
2417 29-09-2010 03:36:01 11.7 C 9.94 g/m*3 11.7 C 0 km/h
2418 29-09-2010 03:48:01 11.6 C 9.87 g/m*3 11.6 C 0 km/h
2419 29-09-2010 04:00:01 11.6 C 9.87 g/m*3 11.6 C 0 km/h
2420 29-09-2010 04:12:02 11.6 C 9.87 g/m*3 11.6 C 0 km/h
2421 29-09-2010 04:24:01 11.6 C 9.87 g/m*3 11.6 C 0 km/h
2422 29-09-2010 04:36:01 11.3 C 9.69 g/m*3 11.3 C 0 km/h
2423 29-09-2010 04:48:01 11.3 C 9.69 g/m*3 11.3 C 0 km/h
2424 29-09-2010 05:00:01 11.4 C 9.75 g/m*3 11.4 C 0 km/h
2425 29-09-2010 05:12:02 11.4 C 9.75 g/m*3 11.4 C 0 km/h
Sensor: Nr:Datum:Temp:Abs-Feuchte:Windchill:Wind:
Aussen-T/F 2426 29-09-2010 05:24:01 11.4 C 9.75 g/m*3 11.4 C 0 km/h
2427 29-09-2010 05:36:01 11.4 C 9.75 g/m*3 11.4 C 0 km/h
2428 29-09-2010 05:48:01 11.4 C 9.75 g/m*3 11.4 C 0 km/h
2429 29-09-2010 06:00:01 11.7 C 9.94 g/m*3 11.7 C 0 km/h
2430 29-09-2010 06:12:01 11.6 C 9.87 g/m*3 11.6 C 0 km/h
2431 29-09-2010 06:24:02 11.5 C 9.81 g/m*3 11.5 C 0 km/h
2432 29-09-2010 06:36:01 11.5 C 9.81 g/m*3 11.5 C 0 km/h
2433 29-09-2010 06:48:02 11.3 C 9.69 g/m*3 11.3 C 0 km/h
2434 29-09-2010 07:00:02 11.1 C 9.57 g/m*3 11.1 C 0 km/h
2435 29-09-2010 07:12:01 10.8 C 9.39 g/m*3 10.8 C 0 km/h
2436 29-09-2010 07:24:02 11 C 9.51 g/m*3 11 C 0 km/h
2437 29-09-2010 07:36:01 11.2 C 9.63 g/m*3 11.2 C 0 km/h
2438 29-09-2010 07:48:02 11.1 C 9.57 g/m*3 11.1 C 0 km/h
2439 29-09-2010 08:00:02 11 C 9.51 g/m*3 11 C 0 km/h
2440 29-09-2010 08:12:01 11.2 C 9.63 g/m*3 11.2 C 0 km/h
2441 29-09-2010 08:24:01 11.2 C 9.63 g/m*3 11.2 C 0 km/h
2442 29-09-2010 08:36:01 11.1 C 9.57 g/m*3 11.1 C 0 km/h
2443 29-09-2010 08:48:02 11.4 C 9.75 g/m*3 11.4 C 0 km/h
2444 29-09-2010 09:00:02 11.6 C 9.87 g/m*3 11.6 C 0 km/h
2445 29-09-2010 09:12:01 11.2 C 9.53 g/m*3 11.2 C 0 km/h
2446 29-09-2010 09:24:01 10.8 C 9.19 g/m*3 10.8 C 0 km/h
2447 29-09-2010 09:36:02 11.7 C 9.62 g/m*3 11.7 C 0 km/h
2448 29-09-2010 09:48:01 11.9 C 9.64 g/m*3 11.9 C 0 km/h
2449 29-09-2010 10:00:01 12.1 C 9.22 g/m*3 12.1 C 0 km/h
2450 29-09-2010 10:12:02 12.5 C 8.91 g/m*3 12.5 C 0 km/h
Sensor: Nr:Datum:Temp:Abs-Feuchte:Windchill:Wind:
Aussen-T/F 2451 29-09-2010 10:24:01 12.9 C 8.79 g/m*3 12.9 C 0 km/h
2452 29-09-2010 10:36:02 13.4 C 8.95 g/m*3 13.4 C 0 km/h
2453 29-09-2010 10:48:01 13.7 C 9 g/m*3 13.7 C 0 km/h
2454 29-09-2010 11:00:01 13.8 C 8.94 g/m*3 13.8 C 0 km/h
2455 29-09-2010 11:12:02 13.7 C 8.53 g/m*3 13.7 C 0 km/h
2456 29-09-2010 11:24:01 13.8 C 8.46 g/m*3 13.8 C 0 km/h
2457 29-09-2010 11:36:01 14.1 C 8.01 g/m*3 14.1 C 0 km/h
2458 29-09-2010 11:48:01 14.4 C 8.16 g/m*3 14.4 C 0 km/h
2459 29-09-2010 12:00:01 14.5 C 8.21 g/m*3 14.5 C 0 km/h
2460 29-09-2010 12:12:01 14.6 C 8.01 g/m*3 14.6 C 0 km/h
2461 29-09-2010 12:24:01 14.1 C 7.52 g/m*3 14.1 C 0 km/h
2462 29-09-2010 12:36:01 14 C 8.08 g/m*3 14 C 0 km/h
2463 29-09-2010 12:48:01 14.8 C 8.36 g/m*3 14.8 C 0 km/h
2464 29-09-2010 13:00:01 15.4 C 8.15 g/m*3 15.4 C 0 km/h
2465 29-09-2010 13:12:01 15.7 C 7.89 g/m*3 15.7 C 0 km/h
2466 29-09-2010 13:24:02 15.8 C 7.81 g/m*3 15.8 C 0 km/h
2467 29-09-2010 13:36:01 15.9 C 7.99 g/m*3 15.9 C 0 km/h
2468 29-09-2010 13:48:02 15.9 C 7.58 g/m*3 15.9 C 0 km/h
2469 29-09-2010 14:00:02 16.3 C 7.35 g/m*3 16.3 C 0 km/h
2470 29-09-2010 14:12:01 15.6 C 7.58 g/m*3 15.6 C 0 km/h
2471 29-09-2010 14:24:02 15.8 C 7.94 g/m*3 15.8 C 0 km/h
2472 29-09-2010 14:36:01 17.4 C 7.85 g/m*3 17.4 C 0 km/h
2473 29-09-2010 14:48:02 19 C 7.33 g/m*3 19 C 0 km/h
2474 29-09-2010 15:00:02 18.8 C 6.76 g/m*3 18.8 C 0 km/h
2475 29-09-2010 15:12:01 18.8 C 6.93 g/m*3 18.8 C 0 km/h
Sensor: Nr:Datum:Temp:Abs-Feuchte:Windchill:Wind:
Aussen-T/F 2476 29-09-2010 15:24:01 18.9 C 6.97 g/m*3 18.9 C 0 km/h
2477 29-09-2010 15:36:02 19.6 C 6.92 g/m*3 19.6 C 0 km/h
2478 29-09-2010 15:48:01 19.7 C 6.79 g/m*3 19.7 C 0 km/h
2479 29-09-2010 16:00:02 18.8 C 7.41 g/m*3 18.8 C 0 km/h
2480 29-09-2010 16:12:01 18.1 C 7.26 g/m*3 18.1 C 0 km/h
2481 29-09-2010 16:24:01 18.1 C 7.57 g/m*3 18.1 C 0 km/h
2482 29-09-2010 16:36:02 17.6 C 7.95 g/m*3 17.6 C 0 km/h
2483 29-09-2010 16:48:01 18.1 C 7.88 g/m*3 18.1 C 0 km/h
2484 29-09-2010 17:00:02 19 C 7.33 g/m*3 19 C 0 km/h
2485 29-09-2010 17:12:01 19.4 C 7.01 g/m*3 19.4 C 0 km/h
2486 29-09-2010 17:24:01 18.6 C 7.16 g/m*3 18.6 C 0 km/h
2487 29-09-2010 17:36:02 17.6 C 7.95 g/m*3 17.6 C 0 km/h
2488 29-09-2010 17:48:01 16.9 C 8.05 g/m*3 16.9 C 0 km/h
2489 29-09-2010 18:00:01 15.9 C 7.58 g/m*3 15.9 C 0 km/h
2490 29-09-2010 18:12:04 15.2 C 7.92 g/m*3 15.2 C 0 km/h
2491 29-09-2010 18:24:02 14.4 C 7.91 g/m*3 14.4 C 0 km/h
2492 29-09-2010 18:36:02 14 C 7.84 g/m*3 14 C 0 km/h
2493 29-09-2010 18:48:01 13.6 C 7.89 g/m*3 13.6 C 0 km/h
2494 29-09-2010 19:00:01 13.2 C 7.81 g/m*3 13.2 C 0 km/h
2495 29-09-2010 19:12:01 13.1 C 7.76 g/m*3 13.1 C 0 km/h
2496 29-09-2010 19:24:01 13 C 7.71 g/m*3 13 C 0 km/h
2497 29-09-2010 19:36:02 13 C 7.6 g/m*3 13 C 0 km/h
2498 29-09-2010 19:48:01 13.1 C 7.53 g/m*3 13.1 C 0 km/h
2499 29-09-2010 20:00:01 13.3 C 7.63 g/m*3 13.3 C 0 km/h
2500 29-09-2010 20:12:02 13.2 C 7.81 g/m*3 13.2 C 0 km/h
Sensor: Nr:Datum:Temp:Abs-Feuchte:Windchill:Wind:
Aussen-T/F 2501 29-09-2010 20:24:01 13.2 C 7.81 g/m*3 13.2 C 0 km/h
2502 29-09-2010 20:36:02 13 C 7.6 g/m*3 13 C 0 km/h
2503 29-09-2010 20:48:01 12.9 C 7.66 g/m*3 12.9 C 0 km/h
2504 29-09-2010 21:00:01 12.9 C 7.66 g/m*3 12.9 C 0 km/h
2505 29-09-2010 21:12:02 12.8 C 7.84 g/m*3 12.8 C 0 km/h
2506 29-09-2010 21:24:01 12.4 C 7.98 g/m*3 12.4 C 0 km/h
2507 29-09-2010 21:38:05 12.2 C 8.09 g/m*3 12.2 C 0 km/h
2508 29-09-2010 21:50:05 12.2 C 8.09 g/m*3 12.2 C 0 km/h
2509 29-09-2010 22:02:05 12.3 C 8.25 g/m*3 12.3 C 0 km/h
2510 29-09-2010 22:14:05 12.4 C 8.3 g/m*3 12.4 C 0 km/h
2511 29-09-2010 22:26:05 12.4 C 8.41 g/m*3 12.4 C 0 km/h
2512 29-09-2010 22:38:06 12.5 C 8.47 g/m*3 12.5 C 0 km/h
2513 29-09-2010 22:50:06 12.3 C 8.36 g/m*3 12.3 C 0 km/h
2514 29-09-2010 23:02:06 12 C 8.21 g/m*3 12 C 0 km/h
2515 29-09-2010 23:14:06 11.8 C 8.31 g/m*3 11.8 C 0 km/h
2516 29-09-2010 23:26:06 11.8 C 8.42 g/m*3 11.8 C 0 km/h
2517 29-09-2010 23:38:06 12 C 8.31 g/m*3 12 C 0 km/h
2518 29-09-2010 23:50:06 12.2 C 8.42 g/m*3 12.2 C 0 km/h
2519 30-09-2010 00:02:06 12.4 C 8.52 g/m*3 12.4 C 0 km/h
2520 30-09-2010 00:14:06 12.3 C 8.47 g/m*3 12.3 C 0 km/h
2521 30-09-2010 00:26:06 12.1 C 8.36 g/m*3 12.1 C 0 km/h
2522 30-09-2010 00:38:06 12.1 C 8.47 g/m*3 12.1 C 0 km/h
2523 30-09-2010 00:50:06 11.9 C 8.37 g/m*3 11.9 C 0 km/h
2524 30-09-2010 01:02:06 11.7 C 8.37 g/m*3 11.7 C 0 km/h
2525 30-09-2010 01:14:06 11.8 C 7.89 g/m*3 11.8 C 0 km/h
Sensor: Nr:Datum:Temp:Abs-Feuchte:Windchill:Wind:
Aussen-T/F 2526 30-09-2010 01:26:06 11.8 C 7.79 g/m*3 11.8 C 0 km/h
2527 30-09-2010 01:38:06 12 C 7.46 g/m*3 12 C 0 km/h
2528 30-09-2010 01:50:06 12 C 7.25 g/m*3 12 C 0 km/h
2529 30-09-2010 02:02:06 12.1 C 7.4 g/m*3 12.1 C 0 km/h
2530 30-09-2010 02:14:06 11.5 C 7.54 g/m*3 11.5 C 0 km/h
2531 30-09-2010 02:26:06 11.4 C 7.7 g/m*3 11.4 C 0 km/h
2532 30-09-2010 02:38:06 11.1 C 7.66 g/m*3 11.1 C 0 km/h
2533 30-09-2010 02:50:07 11.2 C 7.8 g/m*3 11.2 C 0 km/h
2534 30-09-2010 03:02:07 11.3 C 7.85 g/m*3 11.3 C 0 km/h
2535 30-09-2010 03:14:07 11.2 C 7.91 g/m*3 11.2 C 0 km/h
2536 30-09-2010 03:26:07 11 C 7.81 g/m*3 11 C 0 km/h
2537 30-09-2010 03:38:07 11.1 C 7.86 g/m*3 11.1 C 0 km/h
2538 30-09-2010 03:50:07 11.2 C 7.91 g/m*3 11.2 C 0 km/h
2539 30-09-2010 04:02:07 11.3 C 7.96 g/m*3 11.3 C 0 km/h
2540 30-09-2010 04:14:07 11.2 C 7.91 g/m*3 11.2 C 0 km/h
2541 30-09-2010 04:26:07 11 C 7.81 g/m*3 11 C 0 km/h
2542 30-09-2010 04:38:07 10.8 C 7.81 g/m*3 10.8 C 0 km/h
2543 30-09-2010 04:50:07 10.8 C 7.91 g/m*3 10.8 C 0 km/h
2544 30-09-2010 05:02:07 10.8 C 7.91 g/m*3 10.8 C 0 km/h
2545 30-09-2010 05:14:07 10.8 C 7.91 g/m*3 10.8 C 0 km/h
2546 30-09-2010 05:26:07 10.8 C 7.81 g/m*3 10.8 C 0 km/h
2547 30-09-2010 05:38:07 10.7 C 7.76 g/m*3 10.7 C 0 km/h
2548 30-09-2010 05:50:07 10.7 C 7.56 g/m*3 10.7 C 0 km/h
2549 30-09-2010 06:02:07 10.8 C 7.31 g/m*3 10.8 C 0 km/h
2550 30-09-2010 06:14:07 10.8 C 7.31 g/m*3 10.8 C 0 km/h
Sensor: Nr:Datum:Temp:Abs-Feuchte:Windchill:Wind:
Aussen-T/F 2551 30-09-2010 06:26:07 10.7 C 7.27 g/m*3 10.7 C 0 km/h
2552 30-09-2010 06:38:05 10.6 C 7.32 g/m*3 10.6 C 0 km/h
2553 30-09-2010 06:50:02 10.6 C 7.42 g/m*3 10.6 C 0 km/h
2554 30-09-2010 07:02:02 10.7 C 7.56 g/m*3 10.7 C 0 km/h
2555 30-09-2010 07:14:02 10.7 C 7.66 g/m*3 10.7 C 0 km/h
2556 30-09-2010 07:26:02 10.6 C 7.61 g/m*3 10.6 C 0 km/h
2557 30-09-2010 07:38:02 10.6 C 7.71 g/m*3 10.6 C 0 km/h
2558 30-09-2010 07:50:01 10.7 C 7.76 g/m*3 10.7 C 0 km/h
2559 30-09-2010 08:02:01 10.7 C 7.66 g/m*3 10.7 C 0 km/h
2560 30-09-2010 08:14:02 10.9 C 7.76 g/m*3 10.9 C 0 km/h
2561 30-09-2010 08:26:01 10.9 C 7.76 g/m*3 10.9 C 0 km/h
2562 30-09-2010 08:38:01 11 C 7.81 g/m*3 11 C 0 km/h
2563 30-09-2010 08:50:01 11 C 7.81 g/m*3 11 C 0 km/h
2564 30-09-2010 09:02:01 11.2 C 7.91 g/m*3 11.2 C 0 km/h
2565 30-09-2010 09:14:01 11.4 C 8.01 g/m*3 11.4 C 0 km/h
2566 30-09-2010 09:26:01 11.4 C 7.8 g/m*3 11.4 C 0 km/h
2567 30-09-2010 09:38:01 11.5 C 7.75 g/m*3 11.5 C 0 km/h
2568 30-09-2010 09:50:02 11.5 C 7.85 g/m*3 11.5 C 0 km/h
2569 30-09-2010 10:02:02 11.4 C 8.01 g/m*3 11.4 C 0 km/h
2570 30-09-2010 10:14:02 11.4 C 8.11 g/m*3 11.4 C 0 km/h
2571 30-09-2010 10:26:03 11.7 C 8.37 g/m*3 11.7 C 0 km/h
2572 30-09-2010 10:38:02 11.8 C 8.42 g/m*3 11.8 C 0 km/h
2573 30-09-2010 10:50:02 11.9 C 8.47 g/m*3 11.9 C 0 km/h
2574 30-09-2010 11:02:02 12 C 8.42 g/m*3 12 C 0 km/h
2575 30-09-2010 11:14:02 12 C 8.42 g/m*3 12 C 0 km/h
Sensor: Nr:Datum:Temp:Abs-Feuchte:Windchill:Wind:
Aussen-T/F 2576 30-09-2010 11:26:02 11.8 C 8.42 g/m*3 11.8 C 0 km/h
2577 30-09-2010 11:38:01 11.7 C 8.47 g/m*3 11.7 C 0 km/h
2578 30-09-2010 11:50:02 11.8 C 8.63 g/m*3 11.8 C 0 km/h
2579 30-09-2010 12:02:01 11.9 C 8.79 g/m*3 11.9 C 0 km/h
2580 30-09-2010 12:14:01 11.9 C 8.9 g/m*3 11.9 C 0 km/h
2581 30-09-2010 12:26:02 12 C 8.95 g/m*3 12 C 0 km/h
2582 30-09-2010 12:38:02 12.1 C 9.01 g/m*3 12.1 C 0 km/h
2583 30-09-2010 12:50:02 12 C 9.06 g/m*3 12 C 0 km/h
2584 30-09-2010 13:02:02 12.4 C 9.4 g/m*3 12.4 C 0 km/h
2585 30-09-2010 13:14:02 12.6 C 9.51 g/m*3 12.6 C 0 km/h
2586 30-09-2010 13:26:02 12.6 C 9.51 g/m*3 12.6 C 0 km/h
2587 30-09-2010 13:38:02 12.6 C 9.62 g/m*3 12.6 C 0 km/h
2588 30-09-2010 13:50:01 12.7 C 9.68 g/m*3 12.7 C 0 km/h
2589 30-09-2010 14:02:02 12.9 C 9.81 g/m*3 12.9 C 0 km/h
2590 30-09-2010 14:14:02 13 C 9.87 g/m*3 13 C 0 km/h
2591 30-09-2010 14:26:01 12.8 C 9.86 g/m*3 12.8 C 0 km/h
2592 30-09-2010 14:38:01 12.9 C 9.92 g/m*3 12.9 C 0 km/h
2593 30-09-2010 14:50:01 13.1 C 10.04 g/m*3 13.1 C 0 km/h
2594 30-09-2010 15:02:02 13.2 C 10.1 g/m*3 13.2 C 0 km/h
2595 30-09-2010 15:14:03 13.2 C 10.1 g/m*3 13.2 C 0 km/h
2596 30-09-2010 15:26:01 13.4 C 10.23 g/m*3 13.4 C 0 km/h
2597 30-09-2010 15:38:01 13.3 C 10.17 g/m*3 13.3 C 0 km/h
2598 30-09-2010 15:50:01 13.2 C 9.99 g/m*3 13.2 C 0 km/h
2599 30-09-2010 16:02:01 13.5 C 10.29 g/m*3 13.5 C 0 km/h
2600 30-09-2010 16:14:01 13.5 C 10.29 g/m*3 13.5 C 0 km/h
Sensor: Nr:Datum:Temp:Abs-Feuchte:Windchill:Wind:
Aussen-T/F 2601 30-09-2010 16:26:02 13.6 C 10.24 g/m*3 13.6 C 0 km/h
2602 30-09-2010 16:38:01 13.3 C 10.05 g/m*3 13.3 C 0 km/h
2603 30-09-2010 16:50:03 13.1 C 9.93 g/m*3 13.1 C 0 km/h
2604 30-09-2010 17:02:02 13.1 C 9.93 g/m*3 13.1 C 0 km/h
2605 30-09-2010 17:14:02 13 C 9.98 g/m*3 13 C 0 km/h
2606 30-09-2010 17:26:02 13 C 9.98 g/m*3 13 C 0 km/h
2607 30-09-2010 17:38:02 12.9 C 10.03 g/m*3 12.9 C 0 km/h
2608 30-09-2010 17:50:02 12.8 C 9.97 g/m*3 12.8 C 0 km/h
2609 30-09-2010 18:02:02 12.7 C 9.91 g/m*3 12.7 C 0 km/h
2610 30-09-2010 18:14:02 12.5 C 9.78 g/m*3 12.5 C 0 km/h
2611 30-09-2010 18:26:02 12.5 C 9.78 g/m*3 12.5 C 0 km/h
2612 30-09-2010 18:38:02 12.4 C 9.83 g/m*3 12.4 C 0 km/h
2613 30-09-2010 18:50:01 12.3 C 9.77 g/m*3 12.3 C 0 km/h
2614 30-09-2010 19:02:02 12.2 C 9.71 g/m*3 12.2 C 0 km/h
2615 30-09-2010 19:14:02 12.1 C 9.76 g/m*3 12.1 C 0 km/h
2616 30-09-2010 19:26:02 12.1 C 9.76 g/m*3 12.1 C 0 km/h
2617 30-09-2010 19:38:02 12.2 C 9.82 g/m*3 12.2 C 0 km/h
2618 30-09-2010 19:50:02 12.1 C 9.87 g/m*3 12.1 C 0 km/h
2619 30-09-2010 20:02:02 12.2 C 9.93 g/m*3 12.2 C 0 km/h
2620 30-09-2010 20:14:02 12.2 C 9.93 g/m*3 12.2 C 0 km/h
2621 30-09-2010 20:26:02 12.1 C 9.87 g/m*3 12.1 C 0 km/h
2622 30-09-2010 20:38:01 12.1 C 9.87 g/m*3 12.1 C 0 km/h
2623 30-09-2010 20:50:02 12.2 C 10.04 g/m*3 12.2 C 0 km/h
2624 30-09-2010 21:02:01 12.1 C 9.97 g/m*3 12.1 C 0 km/h
2625 30-09-2010 21:14:01 12.1 C 9.97 g/m*3 12.1 C 0 km/h
Sensor: Nr:Datum:Temp:Abs-Feuchte:Windchill:Wind:
Aussen-T/F 2626 30-09-2010 21:26:02 12.1 C 9.97 g/m*3 12.1 C 0 km/h
2627 30-09-2010 21:38:01 12.1 C 9.97 g/m*3 12.1 C 0 km/h
2628 30-09-2010 21:50:02 12 C 9.91 g/m*3 12 C 0 km/h
2629 30-09-2010 22:02:02 12 C 9.91 g/m*3 12 C 0 km/h
2630 30-09-2010 22:14:02 12 C 9.91 g/m*3 12 C 0 km/h
2631 30-09-2010 22:26:02 11.9 C 9.96 g/m*3 11.9 C 0 km/h
2632 30-09-2010 22:38:02 11.9 C 9.96 g/m*3 11.9 C 0 km/h
2633 30-09-2010 22:50:01 12 C 9.91 g/m*3 12 C 0 km/h
2634 30-09-2010 23:03:03 12 C 9.91 g/m*3 12 C 0 km/h
2635 30-09-2010 23:15:03 11.9 C 9.96 g/m*3 11.9 C 0 km/h
2636 30-09-2010 23:27:03 12 C 10.02 g/m*3 12 C 0 km/h
2637 30-09-2010 23:39:03 12.1 C 10.08 g/m*3 12.1 C 0 km/h
2638 30-09-2010 23:51:03 12 C 10.02 g/m*3 12 C 0 km/h
2639 01-10-2010 00:03:03 12.1 C 10.08 g/m*3 12.1 C 0 km/h
2640 01-10-2010 00:15:03 12 C 10.02 g/m*3 12 C 0 km/h
2641 01-10-2010 00:27:03 12.1 C 10.08 g/m*3 12.1 C 0 km/h
2642 01-10-2010 00:39:03 12.1 C 10.08 g/m*3 12.1 C 0 km/h
2643 01-10-2010 00:51:03 11.8 C 10 g/m*3 11.8 C 0 km/h
2644 01-10-2010 01:03:03 11.6 C 9.87 g/m*3 11.6 C 0 km/h
2645 01-10-2010 01:15:04 11.7 C 9.94 g/m*3 11.7 C 0 km/h
2646 01-10-2010 01:27:04 11.6 C 9.87 g/m*3 11.6 C 0 km/h
2647 01-10-2010 01:39:04 11.5 C 9.81 g/m*3 11.5 C 0 km/h
2648 01-10-2010 01:51:04 11.5 C 9.81 g/m*3 11.5 C 0 km/h
2649 01-10-2010 02:03:04 11.5 C 9.81 g/m*3 11.5 C 0 km/h
2650 01-10-2010 02:15:04 11.4 C 9.75 g/m*3 11.4 C 0 km/h
Sensor: Nr:Datum:Temp:Abs-Feuchte:Windchill:Wind:
Aussen-T/F 2651 01-10-2010 02:27:04 11.4 C 9.75 g/m*3 11.4 C 0 km/h
2652 01-10-2010 02:39:04 11.4 C 9.75 g/m*3 11.4 C 0 km/h
2653 01-10-2010 02:51:04 11.5 C 9.81 g/m*3 11.5 C 0 km/h
2654 01-10-2010 03:03:04 11.5 C 9.81 g/m*3 11.5 C 0 km/h
2655 01-10-2010 03:15:04 11.5 C 9.81 g/m*3 11.5 C 0 km/h
2656 01-10-2010 03:27:04 11.5 C 9.81 g/m*3 11.5 C 0 km/h
2657 01-10-2010 03:39:04 11.5 C 9.81 g/m*3 11.5 C 0 km/h
2658 01-10-2010 03:51:04 11.8 C 10 g/m*3 11.8 C 0 km/h
2659 01-10-2010 04:03:04 11.7 C 9.94 g/m*3 11.7 C 0 km/h
2660 01-10-2010 04:15:04 11.7 C 9.94 g/m*3 11.7 C 0 km/h
2661 01-10-2010 04:27:04 11.7 C 9.94 g/m*3 11.7 C 0 km/h
2662 01-10-2010 04:39:04 11.7 C 9.94 g/m*3 11.7 C 0 km/h
2663 01-10-2010 04:51:04 11.7 C 9.94 g/m*3 11.7 C 0 km/h
2664 01-10-2010 05:03:04 11.7 C 9.94 g/m*3 11.7 C 0 km/h
2665 01-10-2010 05:15:04 11.7 C 9.94 g/m*3 11.7 C 0 km/h
2666 01-10-2010 05:27:04 11.7 C 9.94 g/m*3 11.7 C 0 km/h
2667 01-10-2010 05:39:04 11.5 C 9.81 g/m*3 11.5 C 0 km/h
2668 01-10-2010 05:51:05 11.5 C 9.81 g/m*3 11.5 C 0 km/h
2669 01-10-2010 06:03:05 11.4 C 9.75 g/m*3 11.4 C 0 km/h
2670 01-10-2010 06:15:05 11.4 C 9.75 g/m*3 11.4 C 0 km/h
2671 01-10-2010 06:27:05 11.4 C 9.75 g/m*3 11.4 C 0 km/h
2672 01-10-2010 06:39:05 11.4 C 9.75 g/m*3 11.4 C 0 km/h
2673 01-10-2010 06:51:05 11.4 C 9.75 g/m*3 11.4 C 0 km/h
2674 01-10-2010 07:03:05 11.3 C 9.69 g/m*3 11.3 C 0 km/h
2675 01-10-2010 07:15:02 11.3 C 9.69 g/m*3 11.3 C 0 km/h
Sensor: Nr:Datum:Temp:Abs-Feuchte:Windchill:Wind:
Aussen-T/F 2676 01-10-2010 07:27:02 11 C 9.51 g/m*3 11 C 0 km/h
2677 01-10-2010 07:39:02 10.8 C 9.39 g/m*3 10.8 C 0 km/h
2678 01-10-2010 07:51:02 10.6 C 9.27 g/m*3 10.6 C 0 km/h
2679 01-10-2010 08:03:02 10.4 C 9.16 g/m*3 10.4 C 0 km/h
2680 01-10-2010 08:15:02 10.3 C 9.1 g/m*3 10.3 C 0 km/h
2681 01-10-2010 08:27:02 10.2 C 9.04 g/m*3 10.2 C 0 km/h
2682 01-10-2010 08:39:02 10.2 C 9.04 g/m*3 10.2 C 0 km/h
2683 01-10-2010 08:51:02 10.4 C 9.16 g/m*3 10.4 C 0 km/h
2684 01-10-2010 09:03:02 10.7 C 9.33 g/m*3 10.7 C 0 km/h
2685 01-10-2010 09:15:01 11.1 C 9.57 g/m*3 11.1 C 0 km/h
2686 01-10-2010 09:27:01 11.3 C 9.69 g/m*3 11.3 C 0 km/h
2687 01-10-2010 09:39:02 11.4 C 9.75 g/m*3 11.4 C 0 km/h
2688 01-10-2010 09:51:02 11.7 C 9.94 g/m*3 11.7 C 0 km/h
2689 01-10-2010 10:03:02 11.7 C 9.94 g/m*3 11.7 C 0 km/h
2690 01-10-2010 10:15:02 11.7 C 9.83 g/m*3 11.7 C 0 km/h
2691 01-10-2010 10:27:02 11.6 C 9.56 g/m*3 11.6 C 0 km/h
2692 01-10-2010 10:39:02 11.7 C 9.52 g/m*3 11.7 C 0 km/h
2693 01-10-2010 10:51:02 11.9 C 9.32 g/m*3 11.9 C 0 km/h
2694 01-10-2010 11:03:02 12.1 C 9.12 g/m*3 12.1 C 0 km/h
2695 01-10-2010 11:15:02 12.2 C 8.85 g/m*3 12.2 C 0 km/h
2696 01-10-2010 11:27:02 12.5 C 8.91 g/m*3 12.5 C 0 km/h
2697 01-10-2010 11:39:02 12.5 C 8.69 g/m*3 12.5 C 0 km/h
2698 01-10-2010 11:51:02 13 C 8.62 g/m*3 13 C 0 km/h
2699 01-10-2010 12:03:02 12.8 C 8.51 g/m*3 12.8 C 0 km/h
2700 01-10-2010 12:15:02 12.8 C 8.62 g/m*3 12.8 C 0 km/h
Sensor: Nr:Datum:Temp:Abs-Feuchte:Windchill:Wind:
Aussen-T/F 2701 01-10-2010 12:27:02 12.7 C 8.46 g/m*3 12.7 C 0 km/h
2702 01-10-2010 12:39:02 12.4 C 8.41 g/m*3 12.4 C 0 km/h
2703 01-10-2010 12:51:02 12.7 C 8.46 g/m*3 12.7 C 0 km/h
2704 01-10-2010 13:03:01 12.8 C 8.4 g/m*3 12.8 C 0 km/h
2705 01-10-2010 13:15:02 13.3 C 8.32 g/m*3 13.3 C 0 km/h
2706 01-10-2010 13:27:02 13.4 C 8.14 g/m*3 13.4 C 0 km/h
2707 01-10-2010 13:39:01 13.1 C 7.76 g/m*3 13.1 C 0 km/h
2708 01-10-2010 13:51:02 13.3 C 7.97 g/m*3 13.3 C 0 km/h
2709 01-10-2010 14:03:01 13.1 C 7.87 g/m*3 13.1 C 0 km/h
2710 01-10-2010 14:15:01 13.2 C 8.04 g/m*3 13.2 C 0 km/h
2711 01-10-2010 14:27:01 13.3 C 7.86 g/m*3 13.3 C 0 km/h
2712 01-10-2010 14:39:02 13.2 C 7.92 g/m*3 13.2 C 0 km/h
2713 01-10-2010 14:51:02 13.8 C 7.98 g/m*3 13.8 C 0 km/h
2714 01-10-2010 15:03:02 14.4 C 7.91 g/m*3 14.4 C 0 km/h
2715 01-10-2010 15:15:02 15.2 C 7.92 g/m*3 15.2 C 0 km/h
2716 01-10-2010 15:27:02 15.3 C 7.7 g/m*3 15.3 C 0 km/h
2717 01-10-2010 15:39:02 15.7 C 7.76 g/m*3 15.7 C 0 km/h
2718 01-10-2010 15:51:02 15.9 C 7.58 g/m*3 15.9 C 0 km/h
2719 01-10-2010 16:03:02 16 C 7.49 g/m*3 16 C 0 km/h
2720 01-10-2010 16:15:02 16.2 C 7.17 g/m*3 16.2 C 0 km/h
2721 01-10-2010 16:27:02 17.1 C 7.42 g/m*3 17.1 C 0 km/h
2722 01-10-2010 16:39:02 17.2 C 7.91 g/m*3 17.2 C 0 km/h
2723 01-10-2010 16:51:02 17.2 C 8.05 g/m*3 17.2 C 0 km/h
2724 01-10-2010 17:03:02 17.5 C 7.9 g/m*3 17.5 C 0 km/h
2725 01-10-2010 17:15:02 16.6 C 8.19 g/m*3 16.6 C 0 km/h
Sensor: Nr:Datum:Temp:Abs-Feuchte:Windchill:Wind:
Aussen-T/F 2726 01-10-2010 17:27:02 16 C 8.31 g/m*3 16 C 0 km/h
2727 01-10-2010 17:39:02 15.4 C 8.54 g/m*3 15.4 C 0 km/h
2728 01-10-2010 17:51:02 15.2 C 8.7 g/m*3 15.2 C 0 km/h
2729 01-10-2010 18:03:02 14.8 C 8.74 g/m*3 14.8 C 0 km/h
2730 01-10-2010 18:15:02 14.7 C 8.94 g/m*3 14.7 C 0 km/h
2731 01-10-2010 18:27:02 14.5 C 8.83 g/m*3 14.5 C 0 km/h
2732 01-10-2010 18:39:01 14.1 C 8.74 g/m*3 14.1 C 0 km/h
2733 01-10-2010 18:51:02 13.6 C 8.71 g/m*3 13.6 C 0 km/h
2734 01-10-2010 19:03:01 12.8 C 8.62 g/m*3 12.8 C 0 km/h
2735 01-10-2010 19:15:02 12.5 C 8.58 g/m*3 12.5 C 0 km/h
2736 01-10-2010 19:27:02 12.2 C 8.52 g/m*3 12.2 C 0 km/h
2737 01-10-2010 19:39:02 11.8 C 8.53 g/m*3 11.8 C 0 km/h
2738 01-10-2010 19:51:02 11.6 C 8.52 g/m*3 11.6 C 0 km/h
2739 01-10-2010 20:03:02 11.4 C 8.42 g/m*3 11.4 C 0 km/h
2740 01-10-2010 20:15:02 11.3 C 8.47 g/m*3 11.3 C 0 km/h
2741 01-10-2010 20:27:02 11.2 C 8.51 g/m*3 11.2 C 0 km/h
2742 01-10-2010 20:39:02 11.2 C 8.51 g/m*3 11.2 C 0 km/h
2743 01-10-2010 20:51:01 11.2 C 8.62 g/m*3 11.2 C 0 km/h
2744 01-10-2010 21:03:02 11.1 C 8.56 g/m*3 11.1 C 0 km/h
2745 01-10-2010 21:15:01 11 C 8.51 g/m*3 11 C 0 km/h
2746 01-10-2010 21:27:01 10.8 C 8.5 g/m*3 10.8 C 0 km/h
2747 01-10-2010 21:39:01 10.7 C 8.55 g/m*3 10.7 C 0 km/h
2748 01-10-2010 21:51:01 10.7 C 8.55 g/m*3 10.7 C 0 km/h
2749 01-10-2010 22:03:02 10.8 C 8.7 g/m*3 10.8 C 0 km/h
2750 01-10-2010 22:15:02 10.9 C 8.75 g/m*3 10.9 C 0 km/h
Sensor: Nr:Datum:Temp:Abs-Feuchte:Windchill:Wind:
Aussen-T/F 2751 01-10-2010 22:27:02 11 C 8.81 g/m*3 11 C 0 km/h
2752 01-10-2010 22:39:01 11.1 C 8.76 g/m*3 11.1 C 0 km/h
2753 01-10-2010 22:52:04 11.1 C 8.76 g/m*3 11.1 C 0 km/h
2754 01-10-2010 23:04:04 11.1 C 8.76 g/m*3 11.1 C 0 km/h
2755 01-10-2010 23:16:04 11.1 C 8.76 g/m*3 11.1 C 0 km/h
2756 01-10-2010 23:28:04 11 C 8.71 g/m*3 11 C 0 km/h
2757 01-10-2010 23:40:04 11 C 8.71 g/m*3 11 C 0 km/h
2758 01-10-2010 23:52:04 11.1 C 8.76 g/m*3 11.1 C 0 km/h
2759 02-10-2010 00:04:04 11.2 C 8.82 g/m*3 11.2 C 0 km/h
2760 02-10-2010 00:16:04 11.2 C 8.72 g/m*3 11.2 C 0 km/h
2761 02-10-2010 00:28:04 11.2 C 8.72 g/m*3 11.2 C 0 km/h
2762 02-10-2010 00:40:04 11.1 C 8.66 g/m*3 11.1 C 0 km/h
2763 02-10-2010 00:52:04 10.9 C 8.65 g/m*3 10.9 C 0 km/h
2764 02-10-2010 01:04:04 10.9 C 8.65 g/m*3 10.9 C 0 km/h
2765 02-10-2010 01:16:04 11 C 8.71 g/m*3 11 C 0 km/h
2766 02-10-2010 01:28:05 10.9 C 8.75 g/m*3 10.9 C 0 km/h
2767 02-10-2010 01:40:05 11 C 8.81 g/m*3 11 C 0 km/h
2768 02-10-2010 01:52:05 10.8 C 8.8 g/m*3 10.8 C 0 km/h
2769 02-10-2010 02:04:05 10.8 C 8.8 g/m*3 10.8 C 0 km/h
2770 02-10-2010 02:16:05 10.8 C 8.9 g/m*3 10.8 C 0 km/h
2771 02-10-2010 02:28:05 11 C 9.01 g/m*3 11 C 0 km/h
2772 02-10-2010 02:40:05 11.1 C 9.07 g/m*3 11.1 C 0 km/h
2773 02-10-2010 02:52:05 11.1 C 9.07 g/m*3 11.1 C 0 km/h
2774 02-10-2010 03:04:05 11.1 C 9.07 g/m*3 11.1 C 0 km/h
2775 02-10-2010 03:16:05 11.1 C 9.17 g/m*3 11.1 C 0 km/h
Sensor: Nr:Datum:Temp:Abs-Feuchte:Windchill:Wind:
Aussen-T/F 2776 02-10-2010 03:28:05 11.1 C 9.17 g/m*3 11.1 C 0 km/h
2777 02-10-2010 03:40:05 11.1 C 9.17 g/m*3 11.1 C 0 km/h
2778 02-10-2010 03:52:05 11.1 C 9.17 g/m*3 11.1 C 0 km/h
2779 02-10-2010 04:04:05 11.1 C 9.27 g/m*3 11.1 C 0 km/h
2780 02-10-2010 04:16:05 11.1 C 9.27 g/m*3 11.1 C 0 km/h
2781 02-10-2010 04:28:05 11.1 C 9.27 g/m*3 11.1 C 0 km/h
2782 02-10-2010 04:40:05 11.1 C 9.27 g/m*3 11.1 C 0 km/h
2783 02-10-2010 04:52:05 11 C 9.21 g/m*3 11 C 0 km/h
2784 02-10-2010 05:04:05 11 C 9.21 g/m*3 11 C 0 km/h
2785 02-10-2010 05:16:05 11 C 9.31 g/m*3 11 C 0 km/h
2786 02-10-2010 05:28:05 11 C 9.31 g/m*3 11 C 0 km/h
2787 02-10-2010 05:40:05 10.9 C 9.35 g/m*3 10.9 C 0 km/h
2788 02-10-2010 05:52:05 11 C 9.31 g/m*3 11 C 0 km/h
2789 02-10-2010 06:04:06 11 C 9.31 g/m*3 11 C 0 km/h
2790 02-10-2010 06:16:06 11 C 9.41 g/m*3 11 C 0 km/h
2791 02-10-2010 06:28:06 11 C 9.41 g/m*3 11 C 0 km/h
2792 02-10-2010 06:40:06 11 C 9.41 g/m*3 11 C 0 km/h
2793 02-10-2010 06:52:06 11 C 9.41 g/m*3 11 C 0 km/h
2794 02-10-2010 07:04:06 11 C 9.41 g/m*3 11 C 0 km/h
2795 02-10-2010 07:16:06 11.1 C 9.47 g/m*3 11.1 C 0 km/h
2796 02-10-2010 07:28:06 11.2 C 9.63 g/m*3 11.2 C 0 km/h
2797 02-10-2010 07:40:03 11.2 C 9.63 g/m*3 11.2 C 0 km/h
2798 02-10-2010 07:52:02 11.2 C 9.63 g/m*3 11.2 C 0 km/h
2799 02-10-2010 08:04:02 11.3 C 9.69 g/m*3 11.3 C 0 km/h
2800 02-10-2010 08:16:03 11.3 C 9.69 g/m*3 11.3 C 0 km/h
Sensor: Nr:Datum:Temp:Abs-Feuchte:Windchill:Wind:
Aussen-T/F 2801 02-10-2010 08:28:03 11.4 C 9.75 g/m*3 11.4 C 0 km/h
2802 02-10-2010 08:40:02 11.5 C 9.81 g/m*3 11.5 C 0 km/h
2803 02-10-2010 08:52:02 11.8 C 10 g/m*3 11.8 C 0 km/h
2804 02-10-2010 09:04:02 11.8 C 10 g/m*3 11.8 C 0 km/h
2805 02-10-2010 09:16:02 11.8 C 10 g/m*3 11.8 C 0 km/h
2806 02-10-2010 09:28:02 12 C 10.12 g/m*3 12 C 0 km/h
2807 02-10-2010 09:40:02 12.1 C 10.19 g/m*3 12.1 C 0 km/h
2808 02-10-2010 09:52:02 12.3 C 10.32 g/m*3 12.3 C 0 km/h
2809 02-10-2010 10:04:02 12.6 C 10.51 g/m*3 12.6 C 0 km/h
2810 02-10-2010 10:16:02 13 C 10.66 g/m*3 13 C 0 km/h
2811 02-10-2010 10:28:02 13 C 10.66 g/m*3 13 C 0 km/h
2812 02-10-2010 10:40:01 13.3 C 10.86 g/m*3 13.3 C 0 km/h
2813 02-10-2010 10:52:02 13.8 C 11.08 g/m*3 13.8 C 0 km/h
2814 02-10-2010 11:04:01 14 C 11.1 g/m*3 14 C 0 km/h
2815 02-10-2010 11:16:01 14.4 C 11.37 g/m*3 14.4 C 0 km/h
2816 02-10-2010 11:28:01 14.4 C 11.37 g/m*3 14.4 C 0 km/h
2817 02-10-2010 11:40:02 14.4 C 11.25 g/m*3 14.4 C 0 km/h
2818 02-10-2010 11:52:02 14.4 C 11.25 g/m*3 14.4 C 0 km/h
2819 02-10-2010 12:04:02 14.5 C 11.32 g/m*3 14.5 C 0 km/h
2820 02-10-2010 12:16:02 14.7 C 11.46 g/m*3 14.7 C 0 km/h
2821 02-10-2010 12:28:02 15.2 C 11.68 g/m*3 15.2 C 0 km/h
2822 02-10-2010 12:40:02 15.4 C 11.69 g/m*3 15.4 C 0 km/h
2823 02-10-2010 12:52:02 15.4 C 11.43 g/m*3 15.4 C 0 km/h
2824 02-10-2010 13:04:02 15.5 C 11.5 g/m*3 15.5 C 0 km/h
2825 02-10-2010 13:16:02 15.6 C 11.57 g/m*3 15.6 C 0 km/h
Sensor: Nr:Datum:Temp:Abs-Feuchte:Windchill:Wind:
Aussen-T/F 2826 02-10-2010 13:28:02 15.7 C 11.64 g/m*3 15.7 C 0 km/h
2827 02-10-2010 13:40:02 15.9 C 11.65 g/m*3 15.9 C 0 km/h
2828 02-10-2010 13:52:01 16 C 11.31 g/m*3 16 C 0 km/h
2829 02-10-2010 14:04:01 15.7 C 11.24 g/m*3 15.7 C 0 km/h
2830 02-10-2010 14:16:02 15.4 C 11.17 g/m*3 15.4 C 0 km/h
2831 02-10-2010 14:28:02 15.4 C 11.3 g/m*3 15.4 C 0 km/h
2832 02-10-2010 14:40:01 15.7 C 11.64 g/m*3 15.7 C 0 km/h
2833 02-10-2010 14:52:03 16 C 11.72 g/m*3 16 C 0 km/h
2834 02-10-2010 15:04:02 15.8 C 11.71 g/m*3 15.8 C 0 km/h
2835 02-10-2010 15:16:02 15.9 C 11.65 g/m*3 15.9 C 0 km/h
2836 02-10-2010 15:28:02 16 C 11.44 g/m*3 16 C 0 km/h
2837 02-10-2010 15:40:02 16.2 C 11.31 g/m*3 16.2 C 0 km/h
2838 02-10-2010 15:52:02 16.1 C 11.24 g/m*3 16.1 C 0 km/h
2839 02-10-2010 16:04:02 16.2 C 11.31 g/m*3 16.2 C 0 km/h
2840 02-10-2010 16:16:02 16.1 C 10.97 g/m*3 16.1 C 0 km/h
2841 02-10-2010 16:28:02 16.2 C 11.03 g/m*3 16.2 C 0 km/h
2842 02-10-2010 16:40:02 16.4 C 11.17 g/m*3 16.4 C 0 km/h
2843 02-10-2010 16:52:02 16.3 C 10.96 g/m*3 16.3 C 0 km/h
2844 02-10-2010 17:04:01 16.4 C 11.03 g/m*3 16.4 C 0 km/h
2845 02-10-2010 17:16:01 16.3 C 10.82 g/m*3 16.3 C 0 km/h
2846 02-10-2010 17:28:01 16.3 C 10.96 g/m*3 16.3 C 0 km/h
2847 02-10-2010 17:40:02 16.3 C 10.96 g/m*3 16.3 C 0 km/h
2848 02-10-2010 17:52:02 16.1 C 10.83 g/m*3 16.1 C 0 km/h
2849 02-10-2010 18:04:02 15.9 C 10.97 g/m*3 15.9 C 0 km/h
2850 02-10-2010 18:16:02 15.6 C 10.91 g/m*3 15.6 C 0 km/h
Sensor: Nr:Datum:Temp:Abs-Feuchte:Windchill:Wind:
Aussen-T/F 2851 02-10-2010 18:28:02 15.3 C 10.84 g/m*3 15.3 C 0 km/h
2852 02-10-2010 18:40:02 15.2 C 10.9 g/m*3 15.2 C 0 km/h
2853 02-10-2010 18:52:02 15.1 C 10.97 g/m*3 15.1 C 0 km/h
2854 02-10-2010 19:04:02 15 C 10.9 g/m*3 15 C 0 km/h
2855 02-10-2010 19:16:02 15 C 10.9 g/m*3 15 C 0 km/h
2856 02-10-2010 19:28:02 15 C 10.9 g/m*3 15 C 0 km/h
2857 02-10-2010 19:40:02 14.9 C 10.96 g/m*3 14.9 C 0 km/h
2858 02-10-2010 19:52:01 14.8 C 11.02 g/m*3 14.8 C 0 km/h
2859 02-10-2010 20:04:01 14.8 C 11.02 g/m*3 14.8 C 0 km/h
2860 02-10-2010 20:16:02 14.9 C 11.22 g/m*3 14.9 C 0 km/h
2861 02-10-2010 20:28:02 14.9 C 11.22 g/m*3 14.9 C 0 km/h
2862 02-10-2010 20:40:01 14.8 C 11.02 g/m*3 14.8 C 0 km/h
2863 02-10-2010 20:52:01 14.6 C 11.01 g/m*3 14.6 C 0 km/h
2864 02-10-2010 21:04:01 14.6 C 11.01 g/m*3 14.6 C 0 km/h
2865 02-10-2010 21:16:02 14.5 C 10.94 g/m*3 14.5 C 0 km/h
2866 02-10-2010 21:28:02 14.5 C 11.07 g/m*3 14.5 C 0 km/h
2867 02-10-2010 21:40:01 14.5 C 11.07 g/m*3 14.5 C 0 km/h
2868 02-10-2010 21:53:02 14.4 C 11 g/m*3 14.4 C 0 km/h
2869 02-10-2010 22:05:02 14.4 C 11 g/m*3 14.4 C 0 km/h
2870 02-10-2010 22:17:02 14.4 C 11.13 g/m*3 14.4 C 0 km/h
2871 02-10-2010 22:29:02 14.4 C 11.13 g/m*3 14.4 C 0 km/h
2872 02-10-2010 22:41:02 14.5 C 11.19 g/m*3 14.5 C 0 km/h
2873 02-10-2010 22:53:02 14.7 C 11.33 g/m*3 14.7 C 0 km/h
2874 02-10-2010 23:05:02 14.7 C 11.33 g/m*3 14.7 C 0 km/h
2875 02-10-2010 23:17:02 14.6 C 11.14 g/m*3 14.6 C 0 km/h
Sensor: Nr:Datum:Temp:Abs-Feuchte:Windchill:Wind:
Aussen-T/F 2876 02-10-2010 23:29:03 14.5 C 11.07 g/m*3 14.5 C 0 km/h
2877 02-10-2010 23:41:03 14.5 C 11.07 g/m*3 14.5 C 0 km/h
2878 02-10-2010 23:53:03 14.5 C 11.07 g/m*3 14.5 C 0 km/h
2879 03-10-2010 00:05:03 14.6 C 11.14 g/m*3 14.6 C 0 km/h
2880 03-10-2010 00:17:03 14.4 C 11 g/m*3 14.4 C 0 km/h
2881 03-10-2010 00:29:03 14.3 C 10.93 g/m*3 14.3 C 0 km/h
2882 03-10-2010 00:41:03 14.4 C 11.13 g/m*3 14.4 C 0 km/h
2883 03-10-2010 00:53:03 14.5 C 11.19 g/m*3 14.5 C 0 km/h
2884 03-10-2010 01:05:03 14.5 C 11.07 g/m*3 14.5 C 0 km/h
2885 03-10-2010 01:17:03 14.6 C 10.89 g/m*3 14.6 C 0 km/h
2886 03-10-2010 01:29:03 14.7 C 10.58 g/m*3 14.7 C 0 km/h
2887 03-10-2010 01:41:03 14.8 C 10.51 g/m*3 14.8 C 0 km/h
2888 03-10-2010 01:53:03 14.9 C 10.45 g/m*3 14.9 C 0 km/h
2889 03-10-2010 02:05:03 15 C 10.26 g/m*3 15 C 0 km/h
2890 03-10-2010 02:17:03 14.8 C 10.39 g/m*3 14.8 C 0 km/h
2891 03-10-2010 02:29:03 14.6 C 10.39 g/m*3 14.6 C 0 km/h
2892 03-10-2010 02:41:03 14.4 C 10.26 g/m*3 14.4 C 0 km/h
2893 03-10-2010 02:53:03 14.1 C 10.32 g/m*3 14.1 C 0 km/h
2894 03-10-2010 03:05:03 14 C 10.37 g/m*3 14 C 0 km/h
2895 03-10-2010 03:17:03 13.8 C 10.48 g/m*3 13.8 C 0 km/h
2896 03-10-2010 03:29:04 13.8 C 10.6 g/m*3 13.8 C 0 km/h
2897 03-10-2010 03:41:04 13.9 C 10.67 g/m*3 13.9 C 0 km/h
2898 03-10-2010 03:53:04 14.1 C 10.8 g/m*3 14.1 C 0 km/h
2899 03-10-2010 04:05:04 14 C 10.74 g/m*3 14 C 0 km/h
2900 03-10-2010 04:17:04 14.1 C 10.68 g/m*3 14.1 C 0 km/h
Sensor: Nr:Datum:Temp:Abs-Feuchte:Windchill:Wind:
Aussen-T/F 2901 03-10-2010 04:29:04 14 C 10.61 g/m*3 14 C 0 km/h
2902 03-10-2010 04:41:04 14 C 10.49 g/m*3 14 C 0 km/h
2903 03-10-2010 04:53:04 14.3 C 10.57 g/m*3 14.3 C 0 km/h
2904 03-10-2010 05:05:04 14.3 C 10.44 g/m*3 14.3 C 0 km/h
2905 03-10-2010 05:17:04 14.4 C 10.38 g/m*3 14.4 C 0 km/h
2906 03-10-2010 05:29:04 14.4 C 10.38 g/m*3 14.4 C 0 km/h
2907 03-10-2010 05:41:04 14.2 C 10.26 g/m*3 14.2 C 0 km/h
2908 03-10-2010 05:53:04 14 C 10.25 g/m*3 14 C 0 km/h
2909 03-10-2010 06:05:04 13.8 C 10.37 g/m*3 13.8 C 0 km/h
2910 03-10-2010 06:17:04 13.5 C 10.18 g/m*3 13.5 C 0 km/h
2911 03-10-2010 06:29:04 13.4 C 10.23 g/m*3 13.4 C 0 km/h
2912 03-10-2010 06:41:04 13.3 C 10.17 g/m*3 13.3 C 0 km/h
2913 03-10-2010 06:53:04 13.3 C 10.28 g/m*3 13.3 C 0 km/h
2914 03-10-2010 07:05:04 13.3 C 10.28 g/m*3 13.3 C 0 km/h
2915 03-10-2010 07:17:04 13.4 C 10.46 g/m*3 13.4 C 0 km/h
2916 03-10-2010 07:29:04 13.4 C 10.46 g/m*3 13.4 C 0 km/h
2917 03-10-2010 07:41:05 13.5 C 10.53 g/m*3 13.5 C 0 km/h
2918 03-10-2010 07:53:02 13.5 C 10.41 g/m*3 13.5 C 0 km/h
2919 03-10-2010 08:05:01 13.7 C 10.42 g/m*3 13.7 C 0 km/h
2920 03-10-2010 08:17:02 13.9 C 10.43 g/m*3 13.9 C 0 km/h
2921 03-10-2010 08:29:02 13.9 C 10.43 g/m*3 13.9 C 0 km/h
2922 03-10-2010 08:41:01 14.1 C 10.44 g/m*3 14.1 C 0 km/h
2923 03-10-2010 08:53:03 14.3 C 10.32 g/m*3 14.3 C 0 km/h
2924 03-10-2010 09:05:02 14.8 C 10.26 g/m*3 14.8 C 0 km/h
2925 03-10-2010 09:17:02 15 C 10 g/m*3 15 C 0 km/h
Sensor: Nr:Datum:Temp:Abs-Feuchte:Windchill:Wind:
Aussen-T/F 2926 03-10-2010 09:29:03 15.1 C 9.93 g/m*3 15.1 C 0 km/h
2927 03-10-2010 09:41:02 15.2 C 10.12 g/m*3 15.2 C 0 km/h
2928 03-10-2010 09:53:02 15.5 C 10.05 g/m*3 15.5 C 0 km/h
2929 03-10-2010 10:05:02 16.2 C 10.2 g/m*3 16.2 C 0 km/h
2930 03-10-2010 10:17:02 16.9 C 9.92 g/m*3 16.9 C 0 km/h
2931 03-10-2010 10:29:03 17 C 9.69 g/m*3 17 C 0 km/h
2932 03-10-2010 10:41:01 17 C 9.84 g/m*3 17 C 0 km/h
2933 03-10-2010 10:53:02 16.8 C 9.87 g/m*3 16.8 C 0 km/h
2934 03-10-2010 11:05:01 17.2 C 9.81 g/m*3 17.2 C 0 km/h
2935 03-10-2010 11:17:02 17.6 C 10.35 g/m*3 17.6 C 0 km/h
2936 03-10-2010 11:29:02 17.9 C 10.23 g/m*3 17.9 C 0 km/h
2937 03-10-2010 11:41:02 18.5 C 9.97 g/m*3 18.5 C 0 km/h
2938 03-10-2010 11:53:02 19.5 C 10.24 g/m*3 19.5 C 0 km/h
2939 03-10-2010 12:05:03 19.7 C 9.85 g/m*3 19.7 C 0 km/h
2940 03-10-2010 12:17:02 19.7 C 10.02 g/m*3 19.7 C 0 km/h
2941 03-10-2010 12:29:02 19.3 C 9.45 g/m*3 19.3 C 0 km/h
2942 03-10-2010 12:41:02 19.7 C 9.68 g/m*3 19.7 C 0 km/h
2943 03-10-2010 12:53:01 20 C 9.68 g/m*3 20 C 0 km/h
2944 03-10-2010 13:05:02 20.7 C 9.9 g/m*3 20.7 C 0 km/h
2945 03-10-2010 13:17:01 21.1 C 9.58 g/m*3 21.1 C 0 km/h
2946 03-10-2010 13:29:01 21.5 C 9.62 g/m*3 21.5 C 0 km/h
2947 03-10-2010 13:41:01 21.7 C 8.97 g/m*3 21.7 C 0 km/h
2948 03-10-2010 13:53:01 21.8 C 9.02 g/m*3 21.8 C 0 km/h
2949 03-10-2010 14:05:02 22.2 C 8.83 g/m*3 22.2 C 0 km/h
2950 03-10-2010 14:17:01 22.7 C 9.5 g/m*3 22.7 C 0 km/h
Sensor: Nr:Datum:Temp:Abs-Feuchte:Windchill:Wind:
Aussen-T/F 2951 03-10-2010 14:29:01 23.2 C 9.15 g/m*3 23.2 C 0 km/h
2952 03-10-2010 14:41:01 24.4 C 9.12 g/m*3 24.4 C 0 km/h
2953 03-10-2010 14:53:01 24.2 C 8.8 g/m*3 24.2 C 0 km/h
2954 03-10-2010 15:05:02 24.4 C 8.68 g/m*3 24.4 C 0 km/h
2955 03-10-2010 15:17:02 24.4 C 8.68 g/m*3 24.4 C 0 km/h
2956 03-10-2010 15:29:02 24.5 C 8.5 g/m*3 24.5 C 0 km/h
2957 03-10-2010 15:41:01 24.9 C 8.7 g/m*3 24.9 C 0 km/h
2958 03-10-2010 15:53:02 25.4 C 8.48 g/m*3 25.4 C 0 km/h
2959 03-10-2010 16:05:01 24.6 C 8.33 g/m*3 24.6 C 0 km/h
2960 03-10-2010 16:17:02 24.7 C 8.37 g/m*3 24.7 C 0 km/h
2961 03-10-2010 16:29:02 25.1 C 8.57 g/m*3 25.1 C 0 km/h
2962 03-10-2010 16:41:01 25.4 C 8.95 g/m*3 25.4 C 0 km/h
2963 03-10-2010 16:53:03 25.8 C 9.15 g/m*3 25.8 C 0 km/h
2964 03-10-2010 17:05:02 26.1 C 9.3 g/m*3 26.1 C 0 km/h
2965 03-10-2010 17:17:02 25.6 C 9.05 g/m*3 25.6 C 0 km/h
2966 03-10-2010 17:29:02 25.6 C 9.52 g/m*3 25.6 C 0 km/h
2967 03-10-2010 17:41:03 24.4 C 9.35 g/m*3 24.4 C 0 km/h
2968 03-10-2010 17:53:02 24.4 C 9.57 g/m*3 24.4 C 0 km/h
2969 03-10-2010 18:05:01 23.6 C 10.21 g/m*3 23.6 C 0 km/h
2970 03-10-2010 18:17:02 22.5 C 10.39 g/m*3 22.5 C 0 km/h
2971 03-10-2010 18:29:02 21.4 C 10.5 g/m*3 21.4 C 0 km/h
2972 03-10-2010 18:41:02 20.4 C 10.61 g/m*3 20.4 C 0 km/h
2973 03-10-2010 18:53:02 19.8 C 10.76 g/m*3 19.8 C 0 km/h
2974 03-10-2010 19:05:03 19.3 C 10.95 g/m*3 19.3 C 0 km/h
2975 03-10-2010 19:17:02 19 C 10.76 g/m*3 19 C 0 km/h
Sensor: Nr:Datum:Temp:Abs-Feuchte:Windchill:Wind:
Aussen-T/F 2976 03-10-2010 19:29:02 18.9 C 10.85 g/m*3 18.9 C 0 km/h
2977 03-10-2010 19:41:02 18.4 C 10.85 g/m*3 18.4 C 0 km/h
2978 03-10-2010 19:53:01 18.3 C 10.79 g/m*3 18.3 C 0 km/h
2979 03-10-2010 20:05:02 18.1 C 10.82 g/m*3 18.1 C 0 km/h
2980 03-10-2010 20:17:01 18.5 C 10.92 g/m*3 18.5 C 0 km/h
2981 03-10-2010 20:29:01 18.4 C 10.85 g/m*3 18.4 C 0 km/h
2982 03-10-2010 20:41:02 18.4 C 10.85 g/m*3 18.4 C 0 km/h
2983 03-10-2010 20:53:01 18.3 C 10.94 g/m*3 18.3 C 0 km/h
2984 03-10-2010 21:05:02 18.3 C 10.94 g/m*3 18.3 C 0 km/h
2985 03-10-2010 21:17:02 18.1 C 10.97 g/m*3 18.1 C 0 km/h
2986 03-10-2010 21:29:02 17.9 C 11.15 g/m*3 17.9 C 0 km/h
2987 03-10-2010 21:41:02 17.8 C 11.08 g/m*3 17.8 C 0 km/h
2988 03-10-2010 21:53:01 17.7 C 11.01 g/m*3 17.7 C 0 km/h
2989 03-10-2010 22:05:01 17.6 C 11.1 g/m*3 17.6 C 0 km/h
2990 03-10-2010 22:17:02 17.5 C 11.03 g/m*3 17.5 C 0 km/h
2991 03-10-2010 22:29:02 17.5 C 10.88 g/m*3 17.5 C 0 km/h
2992 03-10-2010 22:41:01 17.6 C 10.8 g/m*3 17.6 C 0 km/h
2993 03-10-2010 22:53:02 17.6 C 10.5 g/m*3 17.6 C 0 km/h
2994 03-10-2010 23:05:01 17.5 C 10.44 g/m*3 17.5 C 0 km/h
2995 03-10-2010 23:18:06 17.6 C 10.5 g/m*3 17.6 C 0 km/h
2996 03-10-2010 23:30:07 17.6 C 10.35 g/m*3 17.6 C 0 km/h
2997 03-10-2010 23:42:07 17.6 C 10.2 g/m*3 17.6 C 0 km/h
2998 03-10-2010 23:54:07 17.5 C 10.14 g/m*3 17.5 C 0 km/h
2999 04-10-2010 00:06:07 17.4 C 9.93 g/m*3 17.4 C 0 km/h
3000 04-10-2010 00:18:07 17.4 C 9.93 g/m*3 17.4 C 0 km/h
Sensor: Nr:Datum:Temp:Abs-Feuchte:Windchill:Wind:
Aussen-T/F 3001 04-10-2010 00:30:07 17.2 C 9.81 g/m*3 17.2 C 0 km/h
3002 04-10-2010 00:42:07 17.2 C 9.81 g/m*3 17.2 C 0 km/h
3003 04-10-2010 00:54:07 17.2 C 9.81 g/m*3 17.2 C 0 km/h
3004 04-10-2010 01:06:07 17.2 C 9.81 g/m*3 17.2 C 0 km/h
3005 04-10-2010 01:18:07 17.2 C 9.67 g/m*3 17.2 C 0 km/h
3006 04-10-2010 01:30:07 17.2 C 9.52 g/m*3 17.2 C 0 km/h
3007 04-10-2010 01:42:07 17.2 C 9.52 g/m*3 17.2 C 0 km/h
3008 04-10-2010 01:54:07 17.1 C 9.46 g/m*3 17.1 C 0 km/h
3009 04-10-2010 02:06:07 17 C 9.55 g/m*3 17 C 0 km/h
3010 04-10-2010 02:18:07 16.9 C 9.64 g/m*3 16.9 C 0 km/h
3011 04-10-2010 02:30:07 16.8 C 9.72 g/m*3 16.8 C 0 km/h
3012 04-10-2010 02:42:07 16.8 C 9.58 g/m*3 16.8 C 0 km/h
3013 04-10-2010 02:54:07 16.6 C 9.75 g/m*3 16.6 C 0 km/h
3014 04-10-2010 03:06:07 16.4 C 9.77 g/m*3 16.4 C 0 km/h
3015 04-10-2010 03:18:07 15.9 C 10.02 g/m*3 15.9 C 0 km/h
3016 04-10-2010 03:30:08 15.6 C 9.97 g/m*3 15.6 C 0 km/h
3017 04-10-2010 03:42:08 15.5 C 10.05 g/m*3 15.5 C 0 km/h
3018 04-10-2010 03:54:08 15.4 C 9.99 g/m*3 15.4 C 0 km/h
3019 04-10-2010 04:06:08 15.3 C 9.92 g/m*3 15.3 C 0 km/h
3020 04-10-2010 04:18:08 15.2 C 9.99 g/m*3 15.2 C 0 km/h
3021 04-10-2010 04:30:08 15.2 C 9.99 g/m*3 15.2 C 0 km/h
3022 04-10-2010 04:42:08 15 C 10 g/m*3 15 C 0 km/h
3023 04-10-2010 04:54:08 14.8 C 10.01 g/m*3 14.8 C 0 km/h
3024 04-10-2010 05:06:08 14.6 C 10.01 g/m*3 14.6 C 0 km/h
3025 04-10-2010 05:18:08 14.4 C 9.89 g/m*3 14.4 C 0 km/h
Sensor: Nr:Datum:Temp:Abs-Feuchte:Windchill:Wind:
Aussen-T/F 3026 04-10-2010 05:30:08 14.3 C 9.95 g/m*3 14.3 C 0 km/h
3027 04-10-2010 05:42:08 14.1 C 9.95 g/m*3 14.1 C 0 km/h
3028 04-10-2010 05:54:08 14.1 C 9.95 g/m*3 14.1 C 0 km/h
3029 04-10-2010 06:06:08 14.2 C 10.01 g/m*3 14.2 C 0 km/h
3030 04-10-2010 06:18:08 13.9 C 10.07 g/m*3 13.9 C 0 km/h
3031 04-10-2010 06:30:08 14 C 9.89 g/m*3 14 C 0 km/h
3032 04-10-2010 06:42:08 13.8 C 9.89 g/m*3 13.8 C 0 km/h
3033 04-10-2010 06:54:08 13.7 C 9.83 g/m*3 13.7 C 0 km/h
3034 04-10-2010 07:06:03 13.8 C 10.01 g/m*3 13.8 C 0 km/h
3035 04-10-2010 07:18:02 13.7 C 9.83 g/m*3 13.7 C 0 km/h
3036 04-10-2010 07:30:02 13.5 C 9.71 g/m*3 13.5 C 0 km/h
3037 04-10-2010 07:42:03 13.5 C 9.71 g/m*3 13.5 C 0 km/h
3038 04-10-2010 07:54:02 13.6 C 9.89 g/m*3 13.6 C 0 km/h
3039 04-10-2010 08:06:02 13.8 C 9.89 g/m*3 13.8 C 0 km/h
3040 04-10-2010 08:18:02 14.1 C 9.95 g/m*3 14.1 C 0 km/h
3041 04-10-2010 08:30:02 14.3 C 9.83 g/m*3 14.3 C 0 km/h
3042 04-10-2010 08:42:03 14.4 C 9.64 g/m*3 14.4 C 0 km/h
3043 04-10-2010 08:54:02 14.7 C 9.69 g/m*3 14.7 C 0 km/h
3044 04-10-2010 09:06:02 14.9 C 9.56 g/m*3 14.9 C 0 km/h
3045 04-10-2010 09:18:02 15 C 9.23 g/m*3 15 C 0 km/h
3046 04-10-2010 09:30:02 15 C 9.1 g/m*3 15 C 0 km/h
3047 04-10-2010 09:42:02 15 C 9.1 g/m*3 15 C 0 km/h
3048 04-10-2010 09:54:02 15.1 C 9.16 g/m*3 15.1 C 0 km/h
3049 04-10-2010 10:06:02 15.2 C 9.09 g/m*3 15.2 C 0 km/h
3050 04-10-2010 10:18:02 15.3 C 9.01 g/m*3 15.3 C 0 km/h
Sensor: Nr:Datum:Temp:Abs-Feuchte:Windchill:Wind:
Aussen-T/F 3051 04-10-2010 10:30:02 15.4 C 9.07 g/m*3 15.4 C 0 km/h
3052 04-10-2010 10:42:02 16 C 8.86 g/m*3 16 C 0 km/h
3053 04-10-2010 10:54:01 16.4 C 8.79 g/m*3 16.4 C 0 km/h
3054 04-10-2010 11:06:02 17.1 C 8.88 g/m*3 17.1 C 0 km/h
3055 04-10-2010 11:18:01 17.1 C 8.88 g/m*3 17.1 C 0 km/h
3056 04-10-2010 11:30:01 17.6 C 9 g/m*3 17.6 C 0 km/h
3057 04-10-2010 11:42:01 18 C 8.91 g/m*3 18 C 0 km/h
3058 04-10-2010 11:54:01 18.3 C 8.91 g/m*3 18.3 C 0 km/h
3059 04-10-2010 12:06:01 18.5 C 8.86 g/m*3 18.5 C 0 km/h
3060 04-10-2010 12:18:02 18 C 8.91 g/m*3 18 C 0 km/h
3061 04-10-2010 12:30:02 17.8 C 8.8 g/m*3 17.8 C 0 km/h
3062 04-10-2010 12:42:01 17.5 C 8.65 g/m*3 17.5 C 0 km/h
3063 04-10-2010 12:54:02 17.4 C 8.6 g/m*3 17.4 C 0 km/h
3064 04-10-2010 13:06:01 17.9 C 8.7 g/m*3 17.9 C 0 km/h
3065 04-10-2010 13:18:02 18.3 C 8.6 g/m*3 18.3 C 0 km/h
3066 04-10-2010 13:30:02 18.9 C 8.59 g/m*3 18.9 C 0 km/h
3067 04-10-2010 13:42:01 19.1 C 8.52 g/m*3 19.1 C 0 km/h
3068 04-10-2010 13:54:02 19.4 C 8.68 g/m*3 19.4 C 0 km/h
3069 04-10-2010 14:06:02 19.3 C 8.63 g/m*3 19.3 C 0 km/h
3070 04-10-2010 14:18:02 19.5 C 8.73 g/m*3 19.5 C 0 km/h
3071 04-10-2010 14:30:02 19.7 C 8.66 g/m*3 19.7 C 0 km/h
3072 04-10-2010 14:42:02 19.9 C 8.59 g/m*3 19.9 C 0 km/h
3073 04-10-2010 14:54:02 20.4 C 9.02 g/m*3 20.4 C 0 km/h
3074 04-10-2010 15:06:01 21.2 C 8.9 g/m*3 21.2 C 0 km/h
3075 04-10-2010 15:18:02 22.3 C 8.29 g/m*3 22.3 C 0 km/h
Sensor: Nr:Datum:Temp:Abs-Feuchte:Windchill:Wind:
Aussen-T/F 3076 04-10-2010 15:30:02 22.7 C 8.69 g/m*3 22.7 C 0 km/h
3077 04-10-2010 15:42:02 23 C 8.63 g/m*3 23 C 0 km/h
3078 04-10-2010 15:54:02 23.3 C 8.57 g/m*3 23.3 C 0 km/h
3079 04-10-2010 16:06:02 23.1 C 8.27 g/m*3 23.1 C 0 km/h
3080 04-10-2010 16:18:02 23.4 C 8.2 g/m*3 23.4 C 0 km/h
3081 04-10-2010 16:30:02 23.9 C 8.44 g/m*3 23.9 C 0 km/h
3082 04-10-2010 16:42:02 23.9 C 8 g/m*3 23.9 C 0 km/h
3083 04-10-2010 16:54:01 23.9 C 8.22 g/m*3 23.9 C 0 km/h
3084 04-10-2010 17:06:02 23.3 C 8.15 g/m*3 23.3 C 0 km/h
3085 04-10-2010 17:18:01 22 C 8.54 g/m*3 22 C 0 km/h
3086 04-10-2010 17:30:01 20.4 C 9.38 g/m*3 20.4 C 0 km/h
3087 04-10-2010 17:42:01 19.5 C 9.73 g/m*3 19.5 C 0 km/h
3088 04-10-2010 17:54:01 20.5 C 9.61 g/m*3 20.5 C 0 km/h
3089 04-10-2010 18:06:02 20.2 C 9.44 g/m*3 20.2 C 0 km/h
3090 04-10-2010 18:18:02 19.5 C 9.57 g/m*3 19.5 C 0 km/h
3091 04-10-2010 18:30:02 18.7 C 9.61 g/m*3 18.7 C 0 km/h
3092 04-10-2010 18:42:01 17.8 C 9.71 g/m*3 17.8 C 0 km/h
3093 04-10-2010 18:54:01 17.2 C 9.81 g/m*3 17.2 C 0 km/h
3094 04-10-2010 19:06:01 16.9 C 10.07 g/m*3 16.9 C 0 km/h
3095 04-10-2010 19:18:02 16.8 C 10.15 g/m*3 16.8 C 0 km/h
3096 04-10-2010 19:30:02 16.5 C 10.11 g/m*3 16.5 C 0 km/h
3097 04-10-2010 19:42:01 16.2 C 10.07 g/m*3 16.2 C 0 km/h
3098 04-10-2010 19:54:03 16.2 C 10.07 g/m*3 16.2 C 0 km/h
3099 04-10-2010 20:06:02 16.4 C 10.19 g/m*3 16.4 C 0 km/h
3100 04-10-2010 20:18:02 16.5 C 10.11 g/m*3 16.5 C 0 km/h
Sensor: Nr:Datum:Temp:Abs-Feuchte:Windchill:Wind:
Aussen-T/F 3101 04-10-2010 20:30:03 16.4 C 10.05 g/m*3 16.4 C 0 km/h
3102 04-10-2010 20:42:02 16.1 C 9.87 g/m*3 16.1 C 0 km/h
3103 04-10-2010 20:54:02 15.7 C 9.9 g/m*3 15.7 C 0 km/h
3104 04-10-2010 21:06:01 15.6 C 9.97 g/m*3 15.6 C 0 km/h
3105 04-10-2010 21:18:02 15.5 C 10.05 g/m*3 15.5 C 0 km/h
3106 04-10-2010 21:30:02 15.6 C 9.97 g/m*3 15.6 C 0 km/h
3107 04-10-2010 21:42:02 15.4 C 9.85 g/m*3 15.4 C 0 km/h
3108 04-10-2010 21:54:01 15 C 9.87 g/m*3 15 C 0 km/h
3109 04-10-2010 22:06:02 14.8 C 9.88 g/m*3 14.8 C 0 km/h
3110 04-10-2010 22:19:04 14.7 C 9.95 g/m*3 14.7 C 0 km/h
3111 04-10-2010 22:31:04 14.5 C 9.95 g/m*3 14.5 C 0 km/h
3112 04-10-2010 22:43:04 14.5 C 9.95 g/m*3 14.5 C 0 km/h
3113 04-10-2010 22:55:04 14.3 C 9.83 g/m*3 14.3 C 0 km/h
3114 04-10-2010 23:07:04 14.2 C 9.89 g/m*3 14.2 C 0 km/h
3115 04-10-2010 23:19:04 14.2 C 9.89 g/m*3 14.2 C 0 km/h
3116 04-10-2010 23:31:04 14.3 C 9.95 g/m*3 14.3 C 0 km/h
3117 04-10-2010 23:43:05 14.2 C 9.89 g/m*3 14.2 C 0 km/h
3118 04-10-2010 23:55:05 14.1 C 9.95 g/m*3 14.1 C 0 km/h
3119 05-10-2010 00:07:05 14.1 C 9.95 g/m*3 14.1 C 0 km/h
3120 05-10-2010 00:19:05 14.1 C 9.95 g/m*3 14.1 C 0 km/h
3121 05-10-2010 00:31:05 14.2 C 10.01 g/m*3 14.2 C 0 km/h
3122 05-10-2010 00:43:05 14.3 C 10.07 g/m*3 14.3 C 0 km/h
3123 05-10-2010 00:55:05 14.3 C 10.07 g/m*3 14.3 C 0 km/h
3124 05-10-2010 01:07:05 14.2 C 10.01 g/m*3 14.2 C 0 km/h
3125 05-10-2010 01:19:05 14.1 C 9.95 g/m*3 14.1 C 0 km/h
Sensor: Nr:Datum:Temp:Abs-Feuchte:Windchill:Wind:
Aussen-T/F 3126 05-10-2010 01:31:05 13.8 C 9.77 g/m*3 13.8 C 0 km/h
3127 05-10-2010 01:43:05 13.8 C 9.89 g/m*3 13.8 C 0 km/h
3128 05-10-2010 01:55:05 13.8 C 9.89 g/m*3 13.8 C 0 km/h
3129 05-10-2010 02:07:05 13.4 C 9.65 g/m*3 13.4 C 0 km/h
3130 05-10-2010 02:19:05 13.5 C 9.71 g/m*3 13.5 C 0 km/h
3131 05-10-2010 02:31:05 13.5 C 9.83 g/m*3 13.5 C 0 km/h
3132 05-10-2010 02:43:05 13.6 C 10 g/m*3 13.6 C 0 km/h
3133 05-10-2010 02:55:05 13.6 C 10 g/m*3 13.6 C 0 km/h
3134 05-10-2010 03:07:05 13.6 C 10 g/m*3 13.6 C 0 km/h
3135 05-10-2010 03:19:05 13.6 C 10 g/m*3 13.6 C 0 km/h
3136 05-10-2010 03:31:05 13.7 C 10.07 g/m*3 13.7 C 0 km/h
3137 05-10-2010 03:43:05 13.6 C 10 g/m*3 13.6 C 0 km/h
3138 05-10-2010 03:55:06 13.5 C 9.94 g/m*3 13.5 C 0 km/h
3139 05-10-2010 04:07:06 13.5 C 9.94 g/m*3 13.5 C 0 km/h
3140 05-10-2010 04:19:06 13.6 C 10.12 g/m*3 13.6 C 0 km/h
3141 05-10-2010 04:31:06 13.6 C 10.12 g/m*3 13.6 C 0 km/h
3142 05-10-2010 04:43:06 13.6 C 10.12 g/m*3 13.6 C 0 km/h
3143 05-10-2010 04:55:06 13.7 C 10.18 g/m*3 13.7 C 0 km/h
3144 05-10-2010 05:07:06 13.7 C 10.18 g/m*3 13.7 C 0 km/h
3145 05-10-2010 05:19:06 13.7 C 10.18 g/m*3 13.7 C 0 km/h
3146 05-10-2010 05:31:06 13.6 C 10.12 g/m*3 13.6 C 0 km/h
3147 05-10-2010 05:43:06 13.5 C 10.06 g/m*3 13.5 C 0 km/h
3148 05-10-2010 05:55:06 13.5 C 10.18 g/m*3 13.5 C 0 km/h
3149 05-10-2010 06:07:06 13.4 C 10.23 g/m*3 13.4 C 0 km/h
3150 05-10-2010 06:19:06 13.4 C 10.35 g/m*3 13.4 C 0 km/h
Sensor: Nr:Datum:Temp:Abs-Feuchte:Windchill:Wind:
Aussen-T/F 3151 05-10-2010 06:31:06 13.4 C 10.35 g/m*3 13.4 C 0 km/h
3152 05-10-2010 06:43:06 13.4 C 10.46 g/m*3 13.4 C 0 km/h
3153 05-10-2010 06:55:06 13.5 C 10.53 g/m*3 13.5 C 0 km/h
3154 05-10-2010 07:07:01 13.4 C 10.46 g/m*3 13.4 C 0 km/h
3155 05-10-2010 07:19:02 13.4 C 10.58 g/m*3 13.4 C 0 km/h
3156 05-10-2010 07:31:02 13.4 C 10.58 g/m*3 13.4 C 0 km/h
3157 05-10-2010 07:43:02 13.4 C 10.58 g/m*3 13.4 C 0 km/h
3158 05-10-2010 07:55:02 13.4 C 10.58 g/m*3 13.4 C 0 km/h
3159 05-10-2010 08:07:02 13.4 C 10.58 g/m*3 13.4 C 0 km/h
3160 05-10-2010 08:19:02 13.2 C 10.45 g/m*3 13.2 C 0 km/h
3161 05-10-2010 08:31:02 13.1 C 10.38 g/m*3 13.1 C 0 km/h
3162 05-10-2010 08:43:02 13 C 10.32 g/m*3 13 C 0 km/h
3163 05-10-2010 08:55:02 13 C 10.32 g/m*3 13 C 0 km/h
3164 05-10-2010 09:07:02 13 C 10.43 g/m*3 13 C 0 km/h
3165 05-10-2010 09:19:02 13.2 C 10.56 g/m*3 13.2 C 0 km/h
3166 05-10-2010 09:31:01 13.4 C 10.69 g/m*3 13.4 C 0 km/h
3167 05-10-2010 09:43:01 13.4 C 10.81 g/m*3 13.4 C 0 km/h
3168 05-10-2010 09:55:02 13.5 C 10.88 g/m*3 13.5 C 0 km/h
3169 05-10-2010 10:07:01 13.8 C 11.08 g/m*3 13.8 C 0 km/h
3170 05-10-2010 10:19:02 14.3 C 11.43 g/m*3 14.3 C 0 km/h
3171 05-10-2010 10:31:02 14.7 C 11.83 g/m*3 14.7 C 0 km/h
3172 05-10-2010 10:43:02 15.2 C 12.07 g/m*3 15.2 C 0 km/h
3173 05-10-2010 10:55:02 16 C 12.67 g/m*3 16 C 0 km/h
3174 05-10-2010 11:07:02 17.2 C 13.62 g/m*3 17.2 C 0 km/h
3175 05-10-2010 11:19:02 17.3 C 13.7 g/m*3 17.3 C 0 km/h
Sensor: Nr:Datum:Temp:Abs-Feuchte:Windchill:Wind:
Aussen-T/F 3176 05-10-2010 11:31:02 17.4 C 13.34 g/m*3 17.4 C 0 km/h
3177 05-10-2010 11:43:02 17.3 C 12.37 g/m*3 17.3 C 0 km/h
3178 05-10-2010 11:55:01 18.2 C 11.97 g/m*3 18.2 C 0 km/h
3179 05-10-2010 12:07:02 18.3 C 11.73 g/m*3 18.3 C 0 km/h
3180 05-10-2010 12:19:02 17.9 C 11.45 g/m*3 17.9 C 0 km/h
3181 05-10-2010 12:31:01 18 C 11.37 g/m*3 18 C 0 km/h
3182 05-10-2010 12:43:01 17.9 C 11.3 g/m*3 17.9 C 0 km/h
3183 05-10-2010 12:55:02 18.4 C 11.32 g/m*3 18.4 C 0 km/h
3184 05-10-2010 13:07:01 18.7 C 11.37 g/m*3 18.7 C 0 km/h
3185 05-10-2010 13:19:02 18.9 C 11.18 g/m*3 18.9 C 0 km/h
3186 05-10-2010 13:31:01 19 C 11.08 g/m*3 19 C 0 km/h
3187 05-10-2010 13:43:01 19.3 C 11.44 g/m*3 19.3 C 0 km/h
3188 05-10-2010 13:55:02 20 C 11.06 g/m*3 20 C 0 km/h
3189 05-10-2010 14:07:02 19.9 C 10.31 g/m*3 19.9 C 0 km/h
3190 05-10-2010 14:19:02 19.5 C 10.57 g/m*3 19.5 C 0 km/h
3191 05-10-2010 14:31:02 19.6 C 10.8 g/m*3 19.6 C 0 km/h
3192 05-10-2010 14:43:02 18.7 C 11.05 g/m*3 18.7 C 0 km/h
3193 05-10-2010 14:55:02 18.6 C 11.94 g/m*3 18.6 C 0 km/h
3194 05-10-2010 15:07:01 19 C 12.22 g/m*3 19 C 0 km/h
3195 05-10-2010 15:19:02 17.9 C 12.06 g/m*3 17.9 C 0 km/h
3196 05-10-2010 15:31:02 18.3 C 12.51 g/m*3 18.3 C 0 km/h
3197 05-10-2010 15:43:02 19.3 C 13.27 g/m*3 19.3 C 0 km/h
3198 05-10-2010 15:55:01 19.5 C 13.09 g/m*3 19.5 C 0 km/h
3199 05-10-2010 16:07:02 19 C 12.55 g/m*3 19 C 0 km/h
3200 05-10-2010 16:19:01 18.7 C 12.65 g/m*3 18.7 C 0 km/h
Sensor: Nr:Datum:Temp:Abs-Feuchte:Windchill:Wind:
Aussen-T/F 3201 05-10-2010 16:31:02 18.4 C 12.43 g/m*3 18.4 C 0 km/h
3202 05-10-2010 16:43:02 18.3 C 12.51 g/m*3 18.3 C 0 km/h
3203 05-10-2010 16:55:02 18.1 C 12.21 g/m*3 18.1 C 0 km/h
3204 05-10-2010 17:07:02 17.7 C 11.92 g/m*3 17.7 C 0 km/h
3205 05-10-2010 17:19:01 17.2 C 11.42 g/m*3 17.2 C 0 km/h
3206 05-10-2010 17:31:02 16.8 C 11.58 g/m*3 16.8 C 0 km/h
3207 05-10-2010 17:43:02 16.8 C 11.72 g/m*3 16.8 C 0 km/h
3208 05-10-2010 17:55:02 17 C 11.72 g/m*3 17 C 0 km/h
3209 05-10-2010 18:07:02 17.1 C 11.65 g/m*3 17.1 C 0 km/h
3210 05-10-2010 18:19:02 17.1 C 11.65 g/m*3 17.1 C 0 km/h
3211 05-10-2010 18:31:02 17.1 C 11.35 g/m*3 17.1 C 0 km/h
3212 05-10-2010 18:43:02 17 C 11.29 g/m*3 17 C 0 km/h
3213 05-10-2010 18:55:02 16.8 C 11.29 g/m*3 16.8 C 0 km/h
3214 05-10-2010 19:07:02 16.6 C 11.3 g/m*3 16.6 C 0 km/h
3215 05-10-2010 19:19:03 16.5 C 11.23 g/m*3 16.5 C 0 km/h
3216 05-10-2010 19:31:02 16.5 C 11.37 g/m*3 16.5 C 0 km/h
3217 05-10-2010 19:43:02 17.3 C 11.64 g/m*3 17.3 C 0 km/h
3218 05-10-2010 19:55:02 16.4 C 11.03 g/m*3 16.4 C 0 km/h
3219 05-10-2010 20:07:02 16.4 C 11.03 g/m*3 16.4 C 0 km/h
3220 05-10-2010 20:19:02 16.4 C 11.03 g/m*3 16.4 C 0 km/h
3221 05-10-2010 20:31:02 16.4 C 11.03 g/m*3 16.4 C 0 km/h
3222 05-10-2010 20:43:02 16.3 C 10.96 g/m*3 16.3 C 0 km/h
3223 05-10-2010 20:55:02 16.3 C 10.68 g/m*3 16.3 C 0 km/h
3224 05-10-2010 21:07:02 16.1 C 10.55 g/m*3 16.1 C 0 km/h
3225 05-10-2010 21:19:02 16 C 10.35 g/m*3 16 C 0 km/h
Sensor: Nr:Datum:Temp:Abs-Feuchte:Windchill:Wind:
Aussen-T/F